[[{"header":{"parameterUnit":"m.s-1","parameterCategory":1,"la1":31.0,"la2":29.5877,"lo1":-88.7671,"lo2":-86.6584,"dy":0.0162,"dx":0.0185,"nx":115,"ny":88,"refTime":"2024-08-15T00:00:00:Z","depth":0,"parameterNumber":2,"parameterNumberName":"U-component_of_WINDS"},"data":[0.0,0.0,0.0,0.0,0.0,0.0,0.0,0.0,0.0,0.0,0.0,0.0,0.0,0.0,0.0,0.0,0.0,0.0,0.0,0.0,0.0,0.0,0.0,0.0,0.0,0.0,0.0,0.0,0.0,0.0,0.0,0.0,0.0,0.0,0.0,0.0,0.0,0.0,0.0,0.0,0.0,0.0,0.0,0.0,0.0,0.0,0.0,0.0,0.0,0.0,0.0,0.0,0.0,0.0,0.0,0.0,0.0,0.0,0.0,0.0,0.0,0.0,0.0,0.0,0.0,0.0,0.0,0.0,0.0,0.0,0.0,0.0,0.0,0.0,0.0,0.0,0.0,0.0,0.0,0.0,0.0,0.0,0.0,0.0,0.0,0.0,0.0,0.0,0.0,0.0,0.0,0.0,0.0,0.0,0.0,0.0,0.0,0.0,0.0,0.0,0.0,0.0,0.0,0.0,0.0,0.0,0.0,0.0,0.0,0.0,0.0,0.0,0.0,0.0,0.0,0.0,0.0,0.0,0.0,0.0,0.0,0.0,0.0,0.0,0.0,0.0,0.0,0.0,0.0,0.0,0.0,0.0,0.0,0.0,0.0,0.0,0.0,0.0,0.0,0.0,0.0,0.0,0.0,0.0,0.0,0.0,0.0,0.0,0.0,0.0,0.0,0.0,0.0,0.0,0.0,0.0,0.0,0.0,0.0,0.0,0.0,0.0,0.0,0.0,0.0,0.0,0.0,0.0,0.0,0.0,0.0,0.0,0.0,0.0,0.0,0.0,0.0,0.0,0.0,0.0,0.0,0.0,0.0,0.0,0.0,0.0,0.0,0.0,0.0,0.0,0.0,0.0,0.0,0.0,0.0,0.0,0.0,0.0,0.0,0.0,0.0,0.0,0.0,0.0,0.0,0.0,0.0,0.0,0.0,0.0,0.0,0.0,0.0,0.0,0.0,0.0,0.0,0.0,0.0,0.0,0.0,0.0,0.0,0.0,0.0,0.0,0.0,0.0,0.0,0.0,0.0,0.0,0.0,0.0,0.0,0.0,0.0,0.0,0.0,0.0,0.0,0.0,0.0,0.0,0.0,0.0,0.0,0.0,0.0,0.0,0.0,0.0,0.0,0.0,0.0,0.0,0.0,0.0,0.0,0.0,0.0,0.0,0.0,0.0,0.0,0.0,0.0,0.0,0.0,0.0,0.0,0.0,0.0,0.0,0.0,0.0,0.0,0.0,0.0,0.0,0.0,0.0,0.0,0.0,0.0,0.0,0.0,0.0,0.0,0.0,0.0,0.0,0.0,0.0,0.0,0.0,0.0,0.0,0.0,0.0,0.0,0.0,0.0,0.0,0.0,0.0,0.0,0.0,0.0,0.0,0.0,0.0,0.0,0.0,0.0,0.0,0.0,0.0,0.0,0.0,0.0,0.0,0.0,0.0,0.0,0.0,0.0,0.0,0.0,0.0,0.0,0.0,0.0,0.0,0.0,0.0,0.0,0.0,0.0,0.0,0.0,0.0,0.0,0.0,0.0,0.0,0.0,0.0,0.0,0.0,0.0,0.0,0.0,0.0,0.0,0.0,0.0,0.0,0.0,0.0,0.0,0.0,0.0,0.0,0.0,0.0,0.0,0.0,0.0,0.0,0.0,0.0,0.0,0.0,0.0,0.0,0.0,0.0,0.0,0.0,0.0,0.0,0.0,0.0,0.0,0.0,0.0,0.0,0.0,0.0,0.0,0.0,0.0,0.0,0.0,0.0,0.0,0.0,0.0,0.0,0.0,0.0,0.0,0.0,0.0,0.0,0.0,0.0,0.0,0.0,0.0,0.0,0.0,0.0,0.0,0.0,0.0,0.0,0.0,0.0,0.0,0.0,0.0,0.0,0.0,0.0,0.0,0.0,0.0,0.0,0.0,0.0,0.0,0.0,0.0,0.0,0.0,0.0,0.0,0.0,0.0,0.0,0.0,0.0,0.0,0.0,0.0,0.0,0.0,0.0,0.0,0.0,0.0,0.0,0.0,0.0,0.0,0.0,0.0,0.0,0.0,0.0,0.0,0.0,0.0,0.0,0.0,0.0,0.0,0.0,0.0,0.0,0.0,0.0,0.0,0.0,0.0,0.0,0.0,0.0,0.0,0.0,0.0,0.0,0.0,0.0,0.0,0.0,0.0,0.0,0.0,0.0,0.0,0.0,0.0,0.0,0.0,0.0,0.0,0.0,0.0,0.0,0.0,0.0,0.0,0.0,0.0,0.0,0.0,0.0,0.0,0.0,0.0,0.0,0.0,0.0,0.0,0.0,0.0,0.0,0.0,0.0,0.0,0.0,0.0,0.0,0.0,0.0,0.0,0.0,0.0,0.0,0.0,0.0,0.0,0.0,0.0,0.0,0.0,0.0,0.0,0.0,0.0,0.0,0.0,0.0,0.0,0.0,0.0,0.0,0.0,0.0,0.0,0.0,0.0,0.0,0.0,0.0,0.0,0.0,0.0,0.0,0.0,0.0,0.0,0.0,0.0,0.0,0.0,0.0,0.0,0.0,0.0,0.0,0.0,0.0,0.0,0.0,0.0,0.0,0.0,0.0,0.0,0.0,0.0,0.0,0.0,0.0,0.0,0.0,0.0,0.0,0.0,0.0,0.0,0.0,0.0,0.0,0.0,0.0,0.0,0.0,0.0,0.0,0.0,0.0,0.0,0.0,0.0,0.0,0.0,0.0,0.0,0.0,0.0,0.0,0.0,0.0,0.0,0.0,0.0,0.0,0.0,0.0,0.0,0.0,0.0,0.0,0.0,0.0,0.0,0.0,0.0,0.0,0.0,0.0,0.0,0.0,0.0,0.0,0.0,0.0,0.0,0.0,0.0,0.0,0.0,0.0,0.0,0.0,0.0,0.0,0.0,0.0,0.0,0.0,0.0,0.0,0.0,0.0,0.0,0.0,0.0,0.0,0.0,0.0,0.0,0.0,0.0,0.0,0.0,0.0,0.0,0.0,0.0,0.0,0.0,0.0,0.0,0.0,0.0,0.0,0.0,0.0,0.0,0.0,0.0,0.0,0.0,0.0,0.0,0.0,0.0,0.0,0.0,0.0,0.0,0.0,0.0,0.0,0.0,0.0,0.0,0.0,0.0,0.0,0.0,0.0,0.0,0.0,0.0,0.0,0.0,0.0,0.0,0.0,0.0,0.0,0.0,0.0,0.0,0.0,0.0,0.0,0.0,0.0,0.0,0.0,0.0,0.0,0.0,0.0,0.0,0.0,0.0,0.0,0.0,0.0,0.0,0.0,0.0,0.0,0.0,0.0,0.0,0.0,0.0,0.0,0.0,0.0,0.0,0.0,0.0,0.0,0.0,0.0,0.0,0.0,0.0,0.0,0.0,0.0,0.0,0.0,0.0,0.0,0.0,0.0,0.0,0.0,0.0,0.0,0.0,0.0,0.0,0.0,0.0,0.0,0.0,0.0,0.0,0.0,0.0,0.0,0.0,0.0,0.0,0.0,0.0,0.0,0.0,0.0,0.0,0.0,0.0,0.0,0.0,0.0,0.0,0.0,0.0,0.0,0.0,0.0,0.0,0.0,0.0,0.0,0.0,0.0,0.0,0.0,0.0,0.0,0.0,0.0,0.0,0.0,0.0,0.0,0.0,0.0,0.0,0.0,0.0,0.0,0.0,0.0,0.0,0.0,0.0,0.0,0.0,0.0,0.0,0.0,0.0,0.0,0.0,0.0,0.0,0.0,0.0,0.0,0.0,0.0,0.0,0.0,0.0,0.0,0.0,0.0,0.0,0.0,0.0,0.0,0.0,0.0,0.0,0.0,0.0,0.0,0.0,0.0,0.0,0.0,0.0,0.0,0.0,0.0,0.0,0.0,0.0,0.0,0.0,0.0,0.0,0.0,0.0,0.0,0.0,0.0,0.0,0.0,0.0,0.0,0.0,0.0,0.0,0.0,0.0,0.0,0.0,0.0,0.0,0.0,0.0,0.0,0.0,0.0,0.0,0.0,0.0,0.0,0.0,0.0,0.0,0.0,0.0,0.0,0.0,0.0,0.0,0.0,0.0,0.0,0.0,0.0,0.0,0.0,0.0,0.0,0.0,0.0,0.0,0.0,0.0,0.0,0.0,0.0,0.0,0.0,0.0,0.0,0.0,0.0,0.0,0.0,0.0,0.0,0.0,0.0,0.0,0.0,0.0,0.0,0.0,0.0,0.0,0.0,0.0,0.0,0.0,0.0,0.0,0.0,0.0,0.0,0.0,0.0,0.0,0.0,0.0,0.0,0.0,0.0,-0.087,0.0,0.0,0.0,0.0,0.0,0.0,0.0,0.0,0.0,0.0,0.0,0.0,0.0,0.0,0.0,0.0,0.0,0.0,0.0,0.0,0.0,0.0,0.0,0.0,0.0,0.0,0.0,0.0,0.0,0.0,0.0,0.0,0.0,0.0,0.0,0.0,0.0,0.0,0.0,0.0,0.0,0.0,0.0,0.0,0.0,0.0,0.0,0.0,0.0,0.0,0.0,0.0,0.0,0.0,0.0,0.0,0.0,0.0,0.0,0.0,0.0,0.0,0.0,0.0,0.0,0.0,0.0,0.0,0.0,0.0,0.0,0.0,0.0,0.0,0.0,0.0,0.0,0.0,0.0,0.0,0.0,0.0,0.0,0.0,0.0,0.0,0.0,0.0,0.0,0.0,0.0,0.0,0.0,0.0,0.0,0.0,0.0,0.0,0.0,0.0,0.0,0.0,0.0,0.0,0.0,0.0,0.0,0.0,0.0,0.0,0.3474,0.2431,0.1123,0.0089,-0.0601,0.0,0.0,0.0,0.0,0.0,0.0,0.0,0.0,0.0,0.0,0.0,0.0,0.0,0.0,0.0,0.0,0.0,0.0,0.0,0.0,0.0,0.0,0.0,0.0,0.0,0.0,0.0,0.0,0.0,0.0,0.0,0.0,0.0,0.0,0.0,0.0,0.0,0.0,0.0,0.0,0.0,0.0,0.0,0.0,0.0,0.0,0.0,0.0,0.0,0.0,0.0,0.0,0.0,0.0,0.0,0.0,0.0,0.0,0.0,0.0,0.0,0.0,0.0,0.0,0.0,0.0,0.0,0.0,0.0,0.0,0.0,0.0,0.0,0.0,0.0,0.0,0.0,0.0,0.0,0.0,0.0,0.0,0.0,0.0,0.0,0.0,0.0,0.0,0.0,0.0,0.0,0.0,0.0,0.0,0.0,0.0,0.0,0.0,0.0,0.0,0.0,0.0,0.0,0.0,0.0,0.0,0.0,0.0,0.0,0.0,0.0,0.0,0.1302,0.0047,-0.0705,0.0,0.0,0.0,0.0,0.0,0.0,0.0,0.0,0.0,0.0,0.0,0.0,0.0,0.0,0.0,0.0,0.0,0.0,0.0,0.0,0.0,0.0,0.0,0.0,0.0,0.0,0.0,0.0,0.0,0.0,0.0,0.0,0.0,0.0,0.0,0.0,0.0,0.0,0.0,0.0,0.0,0.0,0.0,0.0,0.0,0.0,0.0,0.0,0.0,0.0,0.0,0.0,0.0,0.0,0.0,0.0,0.0,0.0,0.0,0.0,0.0,0.0,0.0,0.0,0.0,0.0,0.0,0.0,0.0,0.0,0.0,0.0,0.0,0.0,0.0,0.0,0.0,0.0,0.0,0.0,0.0,0.0,0.0,0.0,0.0,0.0,0.0,0.0,0.0,0.0,0.0,0.0,0.0,0.0,0.0,0.0,0.0,0.0,0.0,0.0,0.0,0.0,0.0,0.0,0.0,0.0,0.0,0.0,0.0,0.0,0.4407,0.4126,0.1702,0.0,-0.1585,0.0,0.0,0.0,0.0,0.0,0.0,0.0,0.0,0.0,0.0,0.0,0.0,0.0,0.0,0.0,0.0,0.0,0.0,0.0,0.0,0.0,0.0,0.0,0.0,0.0,0.0,0.0,0.0,0.0,0.0,0.0,0.0,0.0,0.0,0.0,0.0,0.0,0.0,0.0,0.0,0.0,0.0,0.0,0.0,0.0,0.0,0.0,0.0,0.0,0.0,0.0,0.0,0.0,0.0,0.0,0.0,0.0,0.0,0.0,0.0,0.0,0.0,0.0,0.0,0.0,0.0,0.0,0.0,0.0,0.0,0.0,0.0,0.0,0.0,0.0,0.0,0.0,0.0,0.0,0.0,0.0,0.0,0.0,0.0,0.0,0.0,0.0,0.0,0.0,0.0,0.0,0.0,0.0,0.0,0.0,0.0,0.0,0.0,0.0,0.0,0.0,0.0,0.0,0.0,0.0,0.0,0.0,0.0,0.0,0.0,0.4194,0.3316,0.1119,-0.0471,0.0,0.0,0.0,0.0,0.0,0.0,0.0,0.0,0.0,0.0,0.0,0.0,0.0,0.0,0.0,0.0,0.0,0.0,0.0,0.0,0.0,0.0,0.0,0.0,0.0,0.0,0.0,0.0,0.0,0.0,0.0,0.0,0.0,0.0,0.0,0.0,0.0,0.0,0.0,0.0,0.0,0.0,0.0,0.0,0.0,0.0,0.0,0.0,0.0,0.0,0.0,0.0,0.0,0.0,0.0,0.0,0.0,0.0,0.0,0.0,0.0,0.0,0.0,0.0,0.0,0.0,0.0,0.0,0.0,0.0,0.0,0.0,0.0,0.0,0.0,0.0,0.0,0.0,0.0,0.0,0.0,0.0,0.0,0.0,0.0,0.0,0.0,0.0,0.0,0.0,0.0,0.0,0.0,0.0,0.0,0.0,0.0,0.0,0.0,0.0,0.0,0.0,0.0,0.0,0.0,0.0,0.0,0.0,0.0,0.0,0.4928,0.3509,0.1686,0.0062,-0.0922,-0.1258,0.0,0.0,0.0,0.0,0.0,0.0,0.0,0.0,0.0,0.0,0.0,0.0,0.0,0.0,0.0,0.0,0.0,0.0,0.0,0.0,0.0,0.0,0.0,0.0,0.0,0.0,0.0,0.0,0.0,0.0,0.0,0.0,0.0,0.0,0.0,0.0,0.0,0.0,0.0,0.0,0.0,0.0,0.0,0.0,0.0,0.0,0.0,0.0,0.0,0.0,0.0,0.0,0.0,0.0,0.0,0.0,0.0,0.0,0.0,0.0,0.0,0.0,0.0,0.0,0.0,0.0,0.0,0.0,0.0,0.0,0.0,0.0,0.0,0.0,0.0,0.0,0.0,0.0,0.0,0.0,0.0,0.0,0.0,0.0,0.0,0.0,0.0,0.0,0.0,0.0,0.0,0.0,0.0,0.0,0.0,0.0,0.0,0.0,0.0,0.0,0.0,0.0,0.0,0.0,0.0,0.0,0.0,0.0,0.7091,0.4985,0.2385,-0.0567,-0.1361,-0.1855,0.0,0.0,0.0,0.0,0.0,0.0,0.0,0.0,0.0,0.0,0.0,0.0,0.0,0.0,0.0,0.0,0.0,0.0,0.0,0.0,0.0,0.0,0.0,0.0,0.0,0.0,0.0,0.0,0.0,0.0,0.0,0.0,0.0,0.0,0.0,0.0,0.0,0.0,0.0,0.0,0.0,0.0,0.0,0.0,0.0,0.0,0.0,0.0,0.0,0.0,0.0,0.0,0.0,0.0,0.0,0.0,0.0,0.0,0.0,0.0,0.0,0.0,0.0,0.0,0.0,0.0,0.0,0.0,0.0,0.0,0.0,0.0,0.0,0.0,0.0,0.0,0.0,0.0,0.0,0.0,0.0,0.0,0.0,0.0,0.0,0.0,0.0,0.0,0.0,0.0,0.0,0.0,0.0,0.0,0.0,0.0,0.0,0.0,0.0,0.0,0.0,0.0,0.0,0.0,0.0,0.0,0.0,0.0,0.0,0.5502,0.319,0.1235,-0.0255,-0.1066,-0.1637,0.0,0.0,0.0,0.0,0.0,0.0,0.0,0.0,0.0,0.0,0.0,0.0,0.0,0.0,0.0,0.0,0.0,0.0,0.0,0.0,0.0,0.0,0.0,0.0,0.0,0.0,0.0,0.0,0.0,0.0,0.0,0.0,0.0,0.0,0.0,0.0,0.0,0.0,0.0,0.0,0.0,0.0,0.0,0.0,0.0,0.0,0.0,0.0,0.0,0.0,0.0,0.0,0.0,0.0,0.0,0.0,0.0,0.0,0.0,0.0,0.0,0.0,0.0,0.0,0.0,0.0,0.0,0.0,0.0,0.0,0.0,0.0,0.0,0.0,0.0,0.0,0.0,0.0,0.0,0.0,0.0,0.0,0.0,0.0,0.0,0.0,0.0,0.0,0.0,0.0,0.0,0.0,0.0,0.0,0.0,0.0,0.0,0.0,0.0,0.0,0.0,0.0,0.0,0.0,0.0,0.0,0.0,0.0,0.0,0.3631,0.0,0.0131,0.0,-0.1355,-0.1812,0.0,0.0,0.0,0.0,0.0,0.0,0.0,0.0,0.0,0.0,0.0,0.0,0.0,0.0,0.0,0.0,0.0,0.0,0.0,0.0,0.0,0.0,0.0,0.0,0.0,0.0,0.0,0.0,0.0,0.0,0.0,0.0,0.0,0.0,0.0,0.0,0.0,0.0,0.0,0.0,0.0,0.0,0.0,0.0,0.0,0.0,0.0,0.0,0.0,0.0,0.0,0.0,0.0,0.0,0.0,0.0,0.0,0.0,0.0,0.0,0.0,0.0,0.0,0.0,0.0,0.0,0.0,0.0,0.0,0.0,0.0,0.0,0.0,0.0,0.0,0.0,0.0,0.0,0.0,0.0,0.0,0.0,0.0,0.0,0.0,0.0,0.0,0.0,0.0,0.0,0.0,0.0,0.0,0.0,0.0,0.0,0.0,0.0,0.0,0.0,0.0,0.0,0.0,0.0,0.0,0.0,0.0,0.0,0.4388,0.1721,0.0293,-0.0867,-0.1782,-0.2365,-0.2539,0.0,0.0,0.0,0.0,0.0,0.0,0.0,0.0,0.0,0.0,0.0,0.0,0.0,0.0,0.0,0.0,0.0,0.0,0.0,0.0,0.0,0.0,0.0,0.0,0.0,0.0,0.0,0.0,0.0,0.0,0.0,0.0,0.0,0.0,0.0,0.0,0.0,0.0,0.0,0.0,0.0,0.0,0.0,0.0,0.0,0.0,0.0,0.0,0.0,0.0,0.0,0.0,0.0,0.0,0.0,0.0,0.0,0.0,0.0,0.0,0.0,0.0,0.0,0.0,0.0,0.0,0.0,0.0,0.0,0.0,0.0,0.0,0.0,0.0,0.0,0.0,0.0,0.0,0.0,0.0,0.0,0.0,0.0,0.0,0.0,0.0,0.0,0.0,0.0,0.0,0.0,0.0,0.0,0.0,0.0,0.0,0.0,0.0,0.0,0.0,0.0,0.0,0.0,0.0,0.0,0.0,0.0,0.0,0.0,0.1514,-0.0296,-0.1857,-0.3086,-0.2724,-0.2891,0.0,0.0,0.0,0.0,0.0,0.0,0.0,0.0,0.0,0.0,0.0,0.0,0.0,0.0,0.0,0.0,0.0,0.0,0.0,0.0,0.0,0.0,0.0,0.0,0.0,0.0,0.0,0.0,0.0,0.0,0.0,0.0,0.0,0.0,0.0,0.0,0.0,0.0,0.0,0.0,0.0,0.0,0.0,0.0,0.0,0.0,0.0,0.0,0.0,0.0,0.0,0.0,0.0,0.0,0.0,0.0,0.0,0.0,0.0,0.0,0.0,0.0,0.0,0.0,0.0,0.0,0.0,0.0,0.0,0.0,0.0,0.0,0.0,0.0,0.0,0.0,0.0,0.0,0.0,0.0,0.0,0.0,0.0,0.0,0.0,0.0,0.0,0.0,0.0,0.0,0.0,0.0,0.0,0.0,0.0,0.0,0.0,0.0,0.0,0.0,0.0,0.0,0.0,0.0,0.0,0.0,0.0,0.0,0.0,0.0369,-0.1682,-0.3283,-0.4181,-0.3477,-0.3433,-0.4204,0.0,0.0,0.0,0.0,0.0,0.0,0.0,0.0,0.0,0.0,0.0,0.0,0.0,0.0,0.0,0.0,0.0,0.0,0.0,0.0,0.0,0.0,0.0,0.0,0.0,0.0,0.0,0.0,0.0,0.0,0.0,0.0,0.0,0.0,0.0,0.0,0.0,0.0,0.0,0.0,0.0,0.0,0.0,0.0,0.0,0.0,0.0,0.0,0.0,0.0,0.0,0.0,0.0,0.0,0.0,0.0,0.0,0.0,0.0,0.0,0.0,0.0,0.0,0.0,0.0,0.0,0.0,0.0,0.0,0.0,0.0,0.0,0.0,0.0,0.0,0.0,0.0,0.0,0.0,0.0,0.0,0.0,0.0,0.0,0.0,0.0,0.0,0.0,0.0,0.0,0.0,0.0,0.0,0.0,0.0,0.0,0.0,0.0,0.0,0.0,0.0,0.0,0.0,0.0,0.0,0.0,0.0,0.0,-0.1383,-0.3812,-0.5057,-0.5006,-0.4522,-0.4226,0.0,0.0,0.0,0.0,0.0,0.0,0.0,0.0,0.0,0.0,0.0,0.0,0.0,0.0,0.0,0.0,0.0,0.0,0.0,0.0,0.0,0.0,0.0,0.0,0.0,0.0,0.0,0.0,0.0,0.0,0.0,0.0,0.0,0.0,0.0,0.0,0.0,0.0,0.0,0.0,0.0,0.0,0.0,0.0,0.0,0.0,0.0,0.0,0.0,0.0,0.0,0.0,0.0,0.0,0.0,0.0,0.0,0.0,0.0,0.0,0.0,0.0,0.0,0.0,0.0,0.0,0.0,0.0,0.0,0.0,0.0,0.0,0.0,0.0,0.0,0.0,0.0,0.0,0.0,0.0,0.0,0.0,0.0,0.0,0.0,0.0,0.0,0.0,0.0,0.0,0.0,0.0,0.0,0.0,0.0,0.0,0.0,0.0,0.0,0.0,0.0,0.0,0.0,0.0,0.0,0.0,0.0,0.0,0.0,-0.2835,-0.5855,-0.7103,-0.6304,-0.54,-0.4986,0.0,0.0,0.0,0.0,0.0,0.0,0.0,0.0,0.0,0.0,0.0,0.0,0.0,0.0,0.0,0.0,0.0,0.0,0.0,0.0,0.0,0.0,0.0,0.0,0.0,0.0,0.0,0.0,0.0,0.0,0.0,0.0,0.0,0.0,0.0,0.0,0.0,0.0,0.0,0.0,0.0,0.0,0.0,0.0,0.0,0.0,0.0,0.0,0.0,0.0,0.0,0.0,0.0,0.0,0.0,0.0,0.0,0.0,0.0,0.0,0.0,0.0,0.0,0.0,0.0,0.0,0.0,0.0,0.0,0.0,0.0,0.0,0.0,0.0,0.0,0.0,0.0,0.0,0.0,0.0,0.0,0.0,0.0,0.0,0.0,0.0,0.0,0.0,0.0,0.0,0.0,0.0,0.0,0.0,0.0,0.0,0.0,0.0,0.0,0.0,0.0,0.0,0.0,0.0,0.0,0.0,0.0,0.0,-0.2515,-0.3837,-0.7089,-0.8391,-0.7479,-0.6514,-0.5892,0.0,0.0,0.0,0.0,0.0,0.0,0.0,0.0,0.0,0.0,0.0,0.0,0.0,0.0,0.0,0.0,0.0,0.0,0.0,0.0,0.0,0.0,0.0,0.0,0.0,0.0,0.0,0.0,0.0,0.0,0.0,0.0,0.0,0.0,0.0,0.0,0.0,0.0,0.0,0.0,0.0,0.0,0.0,0.0,0.0,0.0,0.0,0.0,0.0,0.0,0.0,0.0,0.0,0.0,0.0,0.0,0.0,0.0,0.0,0.0,0.0,0.0,0.0,0.0,0.0,0.0,0.0,0.0,0.0,0.0,0.0,0.0,0.0,0.0,0.0,0.0,0.0,0.0,0.0,0.0,0.0,0.0,0.0,0.0,0.0,0.0,0.0,0.0,0.0,0.0,0.0,0.0,0.0,0.0,0.0,0.0,0.0,0.0,0.0,0.0,0.0,0.0,0.0,0.0,0.0,0.0,0.0,0.0,-0.2991,-0.4767,-0.7808,-0.9199,-0.8665,-0.7895,-0.6855,0.0,0.0,0.0,0.0,0.0,0.0,0.0,0.0,0.0,0.0,0.0,0.0,0.0,0.0,0.0,0.0,0.0,0.0,0.0,0.0,0.0,0.0,0.0,0.0,0.0,0.0,0.0,0.0,0.0,0.0,0.0,0.0,0.0,0.0,0.0,0.0,0.0,0.0,0.0,0.0,0.0,0.0,0.0,0.0,0.0,0.0,0.0,0.0,0.0,0.0,0.0,0.0,0.0,0.0,0.0,0.0,0.0,0.0,0.0,0.0,0.0,0.0,0.0,0.0,0.0,0.0,0.0,0.0,0.0,0.0,0.0,0.0,0.0,0.0,0.0,0.0,0.0,0.0,0.0,0.0,0.0,0.0,0.0,0.0,0.0,0.0,0.0,0.0,0.0,0.0,0.0,0.0,0.0,0.0,0.0,0.0,0.0,0.0,0.0,0.0,0.0,0.0,0.0,0.0,0.0,0.0,0.0,0.0,-0.3743,-0.6067,-0.849,-0.9926,-1.0261,-0.9182,-0.7598,0.0,0.0,0.0,0.0,0.0,0.0,0.0,0.0,0.0,0.0,0.0,0.0,0.0,0.0,0.0,0.0,0.0,0.0,0.0,0.0,0.0,0.0,0.0,0.0,0.0,0.0,0.0,0.0,0.0,0.0,0.0,0.0,0.0,0.0,0.0,0.0,0.0,0.0,0.0,0.0,0.0,0.0,0.0,0.0,0.0,0.0,0.0,0.0,-0.2445,0.0,0.0,0.0,0.0,0.0,0.0,0.0,0.0,0.0,0.0,0.0,0.0,0.0,0.0,0.0,0.0,0.0,0.0,0.0,0.0,0.0,0.0,0.0,0.0,0.0,0.0,0.0,0.0,0.0,0.0,0.0,0.0,0.0,0.0,0.0,0.0,0.0,0.0,0.0,0.0,0.0,0.0,0.0,0.0,0.0,0.0,0.0,0.0,0.0,0.0,0.0,0.0,0.0,0.0,0.0,0.0,0.0,0.0,0.0,-0.5203,-0.7402,-0.9604,-1.0739,-1.0788,-1.0132,-0.8746,0.0,0.0,0.0,0.0,0.0,0.0,0.0,0.0,0.0,0.0,0.0,0.0,0.0,0.0,0.0,0.0,0.0,0.0,0.0,0.0,0.0,0.0,0.0,0.0,0.0,0.0,0.0,0.0,0.0,0.0,0.0,0.0,0.0,0.0,0.0,0.0,0.0,0.0,0.0,0.0,0.0,0.0,0.0,0.0,0.0,0.0,0.0,0.0,0.0,0.0,0.0,0.0,0.0,0.0,0.0,0.0,0.0,0.0,0.0,0.0,0.0,0.0,0.0,0.0,0.0,0.0,0.0,0.0,0.0,0.0,0.0,0.0,0.0,0.0,0.0,0.0,0.0,0.0,0.0,0.0,0.0,0.0,0.0,0.0,0.0,0.0,0.0,0.0,0.0,0.0,0.0,0.0,0.0,0.0,0.0,0.0,0.0,0.0,0.0,0.0,0.0,0.0,0.0,0.0,0.0,0.0,0.0,-0.4036,-0.6832,-0.898,-1.1034,-1.1813,-1.1301,-1.1163,-1.0025,-0.7731,0.0,0.0,0.0,0.0,0.0,0.0,0.0,0.0,0.0,0.0,0.0,0.0,0.0,0.0,0.0,0.0,0.0,0.0,0.0,0.0,0.0,0.0,0.0,0.0,0.0,0.0,0.0,0.0,0.0,0.0,0.0,0.0,0.0,0.0,0.0,0.0,0.0,0.0,-0.2569,-0.2248,0.0,0.0,0.0,0.0,0.0,0.0,0.0,0.0,-0.1266,0.0,0.0,0.0,0.0,0.0,0.0,0.0,0.0,0.0,0.0,0.0,0.0,0.0,0.0,0.0,0.0,0.0,0.0,0.0,0.0,0.0,0.0,0.0,0.0,0.0,0.0,0.0,0.0,0.0,0.0,0.0,0.0,0.0,0.0,0.0,0.0,0.0,0.0,0.0,0.0,0.0,0.0,0.0,0.0,0.0,0.0,0.0,0.0,0.0,0.0,0.0,0.0,0.0,0.0,0.0,0.0,-0.1158,-0.4805,-0.8155,-1.1115,-1.2617,-1.3372,-1.33,-1.2745,-1.1334,-0.8888,0.0,0.0,0.0,0.0,0.0,0.0,0.0,0.0,0.0,0.0,0.0,0.0,0.0,0.0,0.0,0.0,0.0,0.0,0.0,0.0,0.0,0.0,0.0,0.0,0.0,0.0,0.0,0.0,0.0,0.0,0.0,0.0,0.0,0.0,0.0,0.0,0.0,0.0,0.0,-0.2876,-0.2717,0.0,0.0,0.0,0.0,0.0,0.0,0.0,0.0,-0.1437,0.0,0.0,0.0,0.0,0.0,0.0,0.0,0.0,0.0,0.0,0.0,0.0,0.0,0.0,0.0,0.0,0.0,0.0,0.0,0.0,0.0,0.0,0.0,0.0,0.0,0.0,0.0,0.0,0.0,0.0,0.0,0.0,0.0,0.0,0.0,0.0,0.0,0.0,0.0,0.0,0.0,0.0,0.0,0.0,0.0,0.0,0.0,0.0,0.0,0.0,0.0,0.0,0.0,0.0,0.0,-0.3526,-0.7321,-1.0383,-1.2653,-1.3689,-1.4065,-1.3815,-1.2725,-1.1173,0.0,0.0,0.0,0.0,0.0,0.0,0.0,0.0,0.0,0.0,0.0,0.0,0.0,0.0,0.0,0.0,0.0,0.0,0.0,0.0,0.0,0.0,0.0,0.0,0.0,0.0,0.0,0.0,0.0,0.0,0.0,0.0,0.0,0.0,0.0,0.0,0.0,0.0,0.0,0.0,-0.3125,-0.3103,-0.283,0.0,0.0,0.0,0.0,0.0,0.0,-0.1713,-0.1282,0.0,0.0,0.0,0.0,0.0,0.0,0.0,0.0,0.0,0.0,0.0,0.0,0.0,0.0,0.0,0.0,0.0,0.0,0.0,0.0,0.0,0.0,0.0,0.0,0.0,0.0,0.0,0.0,0.0,0.0,0.0,0.0,0.0,0.0,0.0,0.0,0.0,0.0,0.0,0.0,0.0,0.0,0.0,0.0,0.0,0.0,0.0,0.0,0.0,0.0,0.0,0.0,0.0,0.0,0.0,-0.6215,-0.9977,-1.2679,-1.4168,-1.488,-1.4822,-1.4009,-1.259,-1.0931,0.0,0.0,0.0,0.0,0.0,0.0,0.0,0.0,0.0,0.0,0.0,0.0,0.0,0.0,0.0,0.0,0.0,0.0,0.0,0.0,0.0,0.0,0.0,0.0,0.0,0.0,0.0,0.0,0.0,0.0,0.0,0.0,0.0,0.0,0.0,0.0,0.0,0.0,0.0,0.0,0.0,-0.3548,-0.3434,-0.3042,0.0,0.0,0.0,0.0,-0.1811,-0.1641,0.0,0.0,0.0,0.0,0.0,0.0,0.0,0.0,0.0,0.0,0.0,0.0,0.0,0.0,0.0,0.0,0.0,0.0,0.0,0.0,0.0,0.0,0.0,0.0,0.0,0.0,0.0,0.0,0.0,0.0,0.0,0.0,0.0,0.0,0.0,0.0,0.0,0.0,0.0,0.0,0.0,0.0,0.0,0.0,0.0,0.0,0.0,0.0,0.0,0.0,0.0,0.0,0.0,0.0,0.0,0.0,-0.8575,-1.1785,-1.4296,-1.5992,-1.669,-1.625,-1.4664,-1.3572,-1.1629,0.0,0.0,0.0,0.0,0.0,0.0,0.0,0.0,0.0,0.0,0.0,0.0,0.0,0.0,0.0,0.0,0.0,0.0,0.0,0.0,0.0,0.0,0.0,0.0,0.0,0.0,0.0,0.0,0.0,0.0,0.0,0.0,0.0,0.0,0.0,0.0,0.0,0.0,0.0,0.0,0.0,-0.4314,-0.3671,-0.3495,-0.3528,0.0,0.0,-0.3374,-0.2507,-0.2449,0.0,0.0,0.0,0.0,0.0,0.0,0.0,0.0,0.0,0.0,0.0,0.0,0.0,0.0,0.0,0.0,0.0,0.0,0.0,0.0,0.0,0.0,0.0,0.0,0.0,0.0,0.0,0.0,0.0,0.0,0.0,0.0,0.0,0.0,0.0,0.0,0.0,0.0,0.0,0.0,0.0,0.0,0.0,0.0,0.0,0.0,0.0,0.0,0.0,0.0,0.0,0.0,0.0,0.0,0.0,-0.7027,-0.9573,-1.3048,-1.55,-1.687,-1.7476,-1.7066,-1.572,-1.3902,-1.1651,0.0,0.0,0.0,0.0,0.0,0.0,0.0,0.0,0.0,0.0,0.0,0.0,0.0,0.0,0.0,0.0,0.0,0.0,0.0,0.0,0.0,0.0,0.0,0.0,0.0,0.0,0.0,0.0,0.0,0.0,0.0,0.0,0.0,0.0,0.0,0.0,0.0,0.0,0.0,0.0,0.0,0.0,-0.4408,-0.4528,0.0,0.0,0.0,-0.4411,-0.361,0.0,0.0,0.0,0.0,0.0,0.0,0.0,0.0,0.0,0.0,0.0,0.0,0.0,0.0,0.0,0.0,0.0,0.0,0.0,0.0,0.0,0.0,0.0,0.0,0.0,0.0,0.0,0.0,0.0,0.0,0.0,0.0,0.0,0.0,0.0,0.0,0.0,0.0,0.0,0.0,0.0,0.0,0.0,0.0,0.0,0.0,0.0,0.0,0.0,0.0,0.0,0.0,0.0,0.0,0.0,0.0,0.0,-1.0412,-1.4042,-1.643,-1.749,-1.8004,-1.7706,-1.6426,-1.3998,0.0,0.0,0.0,0.0,0.0,0.0,0.0,0.0,0.0,0.0,0.0,0.0,0.0,0.0,0.0,0.0,0.0,0.0,0.0,0.0,0.0,0.0,0.0,0.0,0.0,0.0,0.0,0.1338,0.0,0.0,0.0,0.0,0.0,0.0,0.0,0.0,0.0,0.0,0.0,0.0,0.0,0.0,-0.5167,-0.5341,-0.5445,-0.5389,0.0,0.0,-0.5196,-0.4374,-0.3733,-0.2993,0.0,0.0,0.0,0.0,0.0,0.0,0.0,0.0,0.0,0.0,0.0,0.0,0.0,0.0,0.0,0.0,0.0,0.0,0.0,0.0,0.0,0.0,0.0,0.0,0.0,0.0,0.0,0.0,0.0,0.0,0.0,0.0,0.0,0.0,0.0,0.0,0.0,0.0,0.0,0.0,0.0,0.0,0.0,0.0,0.0,0.0,0.0,0.0,0.0,0.0,0.0,0.0,0.0,0.0,-0.9022,-1.1522,-1.4761,-1.6965,-1.7999,-1.8567,-1.8089,-1.6441,-1.3917,-1.1386,0.0,0.0,0.0,0.0,0.0,0.0,0.0,0.0,0.0,0.0,0.0,0.0,0.0,0.0,0.0,0.0,0.0,0.0,0.0,0.0,0.0,0.0,0.0,0.0,0.0,0.0,0.0,0.0,0.0,0.0,0.0,0.0,0.0,0.0,0.0,0.0,0.0,0.0,0.0,0.0,0.0,-0.5495,-0.6469,-0.6,-0.5616,0.0,-0.5762,-0.548,-0.4613,-0.4577,-0.4161,-0.2812,0.0,0.0,0.0,0.0,0.0,0.0,0.0,0.0,0.0,0.0,0.0,0.0,0.0,0.0,0.0,0.0,0.0,0.0,0.0,0.0,0.0,0.0,0.0,0.0,0.0,0.0,0.0,0.0,0.0,0.0,0.0,0.0,0.0,0.0,0.0,0.0,0.0,0.0,0.0,0.0,0.0,0.0,0.0,0.0,0.0,0.0,0.0,0.0,0.0,0.0,0.0,0.0,0.0,-0.8574,-1.0844,-1.395,-1.6346,-1.803,-1.8627,-1.8422,-1.7461,-1.4636,-1.1725,0.0,0.0,0.0,0.0,0.0,0.0,0.0,0.0,0.0,0.0,0.0,0.0,0.0,0.0,0.0,0.0,0.0,0.0,0.0,0.0,0.0,0.0,0.0,0.0,0.0,0.0,0.0,0.0,0.2648,0.3313,0.446,0.0,0.0,0.0,0.0,0.0,0.0,0.0,0.0,0.0,0.0,-0.5798,-0.6902,-0.6391,0.0,0.0,-0.6023,-0.6009,-0.5626,-0.5106,-0.4538,-0.391,-0.2915,0.0,0.0,0.0,0.0,0.0,0.0,0.0,0.0,0.0,0.0,0.0,0.0,0.0,0.0,0.0,0.0,0.0,0.0,0.0,0.0,0.0,0.0,0.0,0.0,0.0,0.0,0.0,0.0,0.0,0.0,0.0,0.0,0.0,0.0,0.0,0.0,0.0,0.0,0.0,0.0,0.0,0.0,0.0,0.0,0.0,0.0,0.0,0.0,0.0,0.0,0.0,0.0,-0.7885,-1.0037,-1.2948,-1.5424,-1.7545,-1.8118,-1.8143,-1.7531,-1.4566,-1.1541,0.0,0.0,0.0,0.0,0.0,0.0,0.0,0.0,0.0,0.0,0.0,0.0,0.0,0.0,0.0,0.0,0.0,0.0,0.0,0.0,0.0,0.0,0.0,0.0,0.0,0.0,0.0,0.0,0.3332,0.4105,0.5318,0.0,0.0,0.0,0.0,0.0,0.0,0.0,0.0,0.0,0.0,-0.6054,-0.7124,-0.6581,-0.6112,-0.6152,-0.6217,-0.6352,-0.6315,-0.5764,-0.5214,-0.4921,0.0,0.0,0.0,0.0,0.0,0.0,0.0,0.0,0.0,0.0,0.0,0.0,0.0,0.0,0.0,0.0,0.0,0.0,0.0,0.0,0.0,0.0,0.0,0.0,0.0,0.0,0.0,0.7209,0.0,0.0,0.7474,0.0,0.0,0.0,0.0,0.0,0.0,0.0,0.0,0.0,0.0,0.0,0.0,0.0,0.0,0.0,0.0,0.0,0.0,0.0,0.0,0.0,0.0,-0.7036,-0.9291,-1.1854,-1.4234,-1.6323,-1.6957,-1.6905,-1.6351,-1.3477,-1.0606,-0.781,0.0,0.0,0.0,0.0,0.0,0.0,0.0,0.0,0.0,0.0,0.0,0.0,0.0,0.0,0.0,0.0,0.0,0.0,0.0,0.0,0.0,0.0,0.0,0.0,0.0,0.0,0.2518,0.3648,0.4603,0.0,0.0,0.0,0.0,0.0,0.0,0.0,0.0,0.0,-0.5196,-0.5709,-0.6208,-0.7167,-0.6753,-0.6379,-0.6441,-0.6356,-0.6393,-0.6447,-0.6544,-0.6393,0.0,0.0,0.0,0.0,0.0,0.0,0.0,0.0,0.0,0.0,0.0,0.0,0.0,0.0,0.0,0.0,0.0,0.0,0.0,0.0,0.0,0.0,0.0,0.0,0.0,0.0,0.0,0.915,0.8781,0.0,0.0,0.0,0.0,0.0,0.0,0.0,0.0,0.0,0.0,0.0,0.969,1.0819,0.0,0.0,0.0,0.0,0.0,0.0,0.0,0.0,0.0,0.0,0.0,0.0,-0.5538,-0.7176,-0.9291,-1.1441,-1.3682,-1.3915,-1.4159,-1.4402,-1.1989,-0.8741,-0.4664,0.0,0.0,0.0,0.0,0.0,0.0,0.0,0.0,0.0,0.0,0.0,0.0,0.0,0.0,0.0,0.0,0.0,0.0,0.0,0.0,0.0,0.0,0.0,0.0,0.0,0.2646,0.0,0.0,0.0,0.0,0.0,0.0,0.0,0.0,0.0,0.0,0.0,-0.4218,-0.6384,-0.6849,-0.7142,-0.7658,-0.7602,-0.724,0.0,0.0,0.0,0.0,0.0,0.0,0.0,0.0,0.0,0.0,0.0,0.0,0.0,0.0,-0.593,-0.4213,-0.355,-0.3334,-0.3704,0.0,0.0,0.0,0.0,0.0,0.0,0.0,0.0,0.0,0.0,0.0,0.0,0.0,0.0,1.0822,1.0687,1.1082,0.0,0.0,0.0,0.0,0.0,0.0,0.0,0.0,1.0475,1.072,1.0764,1.1844,1.2357,1.2373,1.2424,1.1563,0.0,0.0,0.0,0.0,0.0,0.0,0.0,0.0,-0.3817,-0.5321,-0.6808,-0.8531,-1.055,-1.0928,-1.1265,-1.171,-0.9591,-0.6713,-0.3164,-0.0812,0.059,0.0,0.0,0.0,0.0,0.0,0.0,0.0,0.0,0.0,0.0,0.0,0.0,0.0,0.0,0.0,0.0,0.0,0.0,0.0,0.0,0.0,0.0,0.0,0.2395,0.0,0.0,0.0,0.0,0.0,0.0,0.0,0.0,0.0,-0.5424,-0.5164,-0.5859,-0.8111,-0.8383,-0.8513,-0.8836,0.0,0.0,0.0,0.0,0.0,0.0,0.0,-0.6888,-0.6848,-0.6783,-0.6756,-0.6837,-0.7139,-0.7373,-0.7373,0.0,0.0,-0.5579,-0.5175,-0.5162,-0.5288,-0.5777,-0.6045,-0.5921,-0.6496,-0.6959,0.0,0.0,0.0,0.0,1.1652,0.0,0.0,0.0,1.2058,1.2389,0.0,1.2914,0.0,0.0,0.0,0.0,1.1224,1.2129,0.0,0.0,1.191,1.2266,1.2164,1.2299,1.2931,1.4028,1.4494,1.4217,1.3057,0.9786,0.0,0.0,0.0,0.0,0.0,0.0,-0.1974,-0.3683,-0.4526,-0.5667,-0.7223,-0.7995,-0.8389,-0.8448,-0.6566,-0.4825,-0.3345,-0.1494,0.0045,0.1187,0.1571,0.0,0.0,0.0,0.0,0.0,0.0,0.0,0.0,0.0,0.0,0.0,0.0,0.0,0.0,0.0,0.0,0.0,0.0,0.0,0.0,0.1374,0.0,0.0,0.0,0.0,0.0,0.0,0.0,0.0,0.0,-1.0339,-0.9879,-0.8053,-0.7601,-1.0002,0.0,0.0,0.0,0.0,-1.0388,-1.0732,-0.8602,-0.7497,-0.9012,-0.8359,-0.75,-0.7187,0.0,0.0,-0.7221,-0.7526,-0.7719,-0.7451,-0.7753,-0.8038,-0.7908,-0.754,-0.7409,-0.7764,-0.7429,-0.7251,-0.7366,-0.7502,-0.7604,1.4562,0.0,0.0,0.0,0.0,1.4845,1.5599,1.6892,1.6129,1.5639,1.5361,1.5156,0.0,0.0,0.0,0.0,0.0,0.0,1.207,1.1793,1.2036,1.2175,1.2246,1.2979,1.379,1.4505,1.4701,1.4625,1.4217,1.1559,0.9322,0.7526,0.0,0.0,0.0,0.0,-0.06,-0.1173,-0.2349,-0.3477,-0.4464,-0.5171,-0.6063,-0.7117,-0.6551,-0.5549,-0.4155,-0.2611,-0.1226,0.0,0.0851,0.0,0.0,0.0,0.0,0.0,0.0,0.0,0.0,0.0,0.0,0.0,0.0,0.0,0.0,0.0,0.0,0.0,0.0,0.0,0.1331,0.1302,0.1224,0.0,0.0,0.0,0.0,0.0,0.0,0.0,0.0,0.0,-1.3102,-1.0836,-0.9228,0.0,0.0,-1.1355,-1.082,-1.1541,-1.1891,-1.1394,-1.0605,0.0,-0.9522,-0.8535,-0.7809,-0.7594,-0.7784,-0.7882,-0.7797,-0.7892,-0.7946,-0.7855,-0.795,-0.8038,-0.8031,-0.7943,-0.7851,-0.7831,-0.779,-0.7828,-0.798,-0.8052,-0.8102,1.7663,1.6909,1.5995,1.6202,1.7171,1.7051,1.7673,1.8718,1.7881,1.7559,1.7552,1.7015,1.6216,1.5286,1.4493,0.0,0.0,0.0,1.2808,1.2372,1.2103,1.2003,1.2073,1.2676,1.3321,1.3961,1.4261,1.4394,1.4305,1.1431,0.8989,0.7009,0.0,0.3822,0.2507,0.1006,0.0198,-0.0051,-0.114,-0.2012,-0.2406,-0.371,-0.5237,-0.6961,-0.673,-0.6172,-0.5307,-0.4217,-0.2864,-0.1283,-0.0374,0.0987,0.0,0.0,0.0,0.0,0.0,0.0,0.0,0.0,0.0,0.0,0.0,0.3579,0.2988,0.0,0.0,0.0,0.116,0.0613,0.0749,0.0426,0.0,0.0,0.0,0.0,0.0,0.0,0.0,-0.7381,-1.001,-1.2518,-1.4316,-1.3149,-1.2032,-1.2225,-1.282,-1.312,-1.2668,0.0,-1.3511,-1.3129,-1.2997,-1.2411,-1.1155,-0.9292,-0.7991,-0.7872,-0.7977,-0.8035,-0.8038,-0.8038,-0.8038,-0.8038,-0.8038,-0.8038,-0.8038,-0.8085,-0.8119,-0.8052,-0.8625,-0.8947,-0.8543,-0.8353,-0.8381,2.0322,2.0244,1.8452,1.8075,1.8639,1.8639,1.8639,1.8624,1.8155,1.8522,1.9383,1.851,1.7827,1.7287,1.6097,0.0,1.4074,1.4257,1.3817,1.2934,1.2137,1.1765,1.1814,1.1814,1.2101,1.2764,1.3358,1.3527,1.3074,0.9709,0.6952,0.5015,0.4057,0.2765,0.1184,0.0744,0.0361,-0.0107,-0.088,-0.134,-0.1566,-0.3569,-0.5676,-0.7765,-0.7278,-0.694,-0.6854,-0.6196,-0.4919,-0.2932,-0.2149,-0.0231,0.3013,0.0,0.0,0.0,0.0,0.0,0.0,0.0,0.0,0.0,0.0,0.0,0.0,0.0,0.0,0.0,0.0995,0.0,-0.0137,-0.1008,0.0,0.0,0.0,-0.7105,-0.9114,-1.1445,-1.2957,-1.3063,0.0,0.0,-1.4663,-1.4905,-1.5291,-1.5411,-1.5184,-1.5097,-1.5364,-1.5184,-1.513,-1.5299,-1.5217,-1.4589,-1.3047,-1.0245,-0.8004,-0.8021,-0.8038,-0.8038,-0.8038,-0.8038,-0.8038,-0.8065,-0.8062,-0.8065,-0.8062,-0.8299,-0.8546,-0.8587,-0.9518,-1.002,-0.8808,-0.8503,-0.8513,2.0686,2.1227,2.0478,2.0397,2.0849,2.0833,2.0833,2.0787,2.04,2.0174,2.0082,1.9829,1.9066,1.7843,1.6703,1.5579,1.4499,1.3627,1.3111,1.2859,1.163,1.1316,1.1814,1.1814,1.1846,1.1957,1.2106,1.1328,0.9528,0.6147,0.3097,0.0454,-0.1876,-0.21,-0.0437,-0.0575,-0.0708,-0.0824,-0.2099,-0.3583,-0.5193,-0.631,-0.762,-0.9172,-0.9607,-0.9548,-0.9003,-0.8833,-0.797,-0.6338,-0.5037,-0.2745,0.0637,-0.004,0.0,0.0,0.0,0.0,0.0,0.0,0.0,0.0,0.0,0.1635,0.1749,0.0,0.3464,0.0,0.05,-0.0336,-0.1135,-0.1482,0.0,0.0,-0.7108,-0.9532,-1.2783,-1.4198,-1.5613,-1.7495,-1.6514,-1.6343,-1.7992,-1.6469,-1.5364,-1.5671,-1.5471,-1.5317,-1.5384,-1.5538,-1.5645,-1.5624,-1.5612,-1.5023,-1.3318,-1.0284,-0.8038,-0.8038,-0.8038,-0.8038,-0.8038,-0.8038,-0.8079,-0.8187,-0.8214,-0.8228,-0.8262,-0.9542,-1.0067,-0.9085,-0.8962,-0.8934,-0.8735,-0.8655,-0.8689,2.0701,2.1337,2.1275,2.1507,2.1915,2.1507,2.143,2.1552,2.1197,2.0959,2.0814,2.0008,1.8763,1.7329,1.643,1.5407,1.4247,1.3263,1.2648,1.2344,1.0973,1.0568,1.0914,1.0586,1.0418,1.0335,0.9683,0.8373,0.6426,0.2395,-0.0916,-0.3465,-0.6207,-0.6829,-0.5282,-0.3779,-0.3014,-0.3014,-0.4416,-0.6049,-0.785,-0.8593,-0.949,-1.0572,-1.1247,-1.1478,-1.1047,-1.0746,-1.0124,-0.9032,-0.7563,-0.5506,-0.2778,-0.2888,-0.3064,0.0,0.0,0.0,0.0,0.0,0.0,0.0,0.0,0.0,0.0,0.0,0.2295,-0.0629,-0.1211,-0.1777,-0.2863,-0.3473,-0.503,-0.8107,-1.0219,-1.2699,-1.5799,-1.7155,-1.8332,-1.972,-1.9155,-1.9243,-2.0838,-1.8443,-1.6579,-1.6633,-1.606,-1.5591,-1.5598,-1.5738,-1.5825,-1.5832,-1.58,-1.5086,-1.2964,-1.0979,-0.9698,-0.9702,-0.9702,-0.9608,-0.9023,-0.898,-0.8866,-0.8452,-0.8323,-0.8387,-0.8459,-0.9282,-0.9865,-0.9177,-0.8804,-0.873,-0.8791,-0.8811,-0.8845,2.0567,2.1023,2.1368,2.1794,2.2152,2.1385,2.1275,2.1598,2.1213,2.1244,2.1397,1.9604,1.794,1.6483,1.5774,1.4818,1.3674,1.2918,1.2239,1.1616,1.0202,0.9547,0.9599,0.8894,0.8462,0.8239,0.6749,0.514,0.3324,-0.1486,-0.4914,-0.7029,-0.9684,-1.1066,-1.0971,-0.803,-0.6365,-0.6115,-0.7309,-0.8666,-1.0175,-1.0785,-1.1426,-1.2184,-1.2762,-1.3074,-1.3148,-1.2665,-1.2096,-1.148,-1.0272,-0.8704,-0.6842,-0.6433,-0.6306,0.0,-0.5454,0.0,0.0,0.0,0.0,0.0,0.0,0.0,0.0,0.0493,0.0063,-0.3501,-0.3839,-0.4178,-0.4971,-0.6096,-0.7932,-1.0767,-1.3297,-1.565,-1.785,-1.9649,-2.0674,-2.0723,-2.165,-2.2415,-2.2318,-2.0034,-1.811,-1.7404,-1.6372,-1.5798,-1.5818,-1.5818,-1.5825,-1.5825,-1.5843,-1.4908,-1.2699,-1.2262,-1.2237,-1.2042,-1.175,-1.1565,-1.0533,-1.0358,-1.0078,-0.9043,-0.8848,-0.8857,-0.8655,-0.8679,-0.874,-0.8906,-0.9247,-0.946,-0.9034,-0.8923,-0.8937,2.0583,2.0991,2.1086,2.1337,2.1718,2.1552,2.1538,2.1582,2.1538,2.1337,2.1007,1.9496,1.8176,1.6964,1.5522,1.4169,1.2928,1.1738,1.1116,1.0906,0.902,0.8389,0.8842,0.814,0.7222,0.6079,0.4566,0.2176,-0.0955,-0.5293,-0.8529,-1.068,-1.2835,-1.3653,-1.3135,0.0,0.0,0.0,-0.9934,-1.1002,-1.2877,-1.3053,-1.3669,-1.4744,-1.4879,0.0,-1.5603,-1.5507,-1.5404,-1.5246,-1.4215,0.0,0.0,0.0,0.0,0.0,0.0,0.0,0.0,0.0,0.0,0.0,-0.7856,-0.6717,-0.423,-0.2645,-0.3423,-0.7291,-0.7987,-0.7955,-0.7569,-0.7716,-0.9005,-1.1552,-1.3898,-1.5967,-1.7809,-1.9857,-2.123,-2.1611,-2.2031,-2.1712,-2.0399,-1.9034,-1.7734,-1.6553,-1.6015,-1.5825,-1.5825,-1.5825,-1.5825,-1.5832,-1.577,-1.4802,-1.2257,-1.3703,-1.4082,-1.2624,-1.1945,-1.1918,-1.1974,-1.1949,-1.1619,-1.0636,-1.0432,-1.0091,-0.917,-0.8882,-0.8989,-0.893,-1.0781,-1.1755,-0.9482,-0.8937,-0.8937,2.0261,2.0649,2.0894,2.1118,0.0,2.1764,2.1705,2.1354,2.1748,2.1595,2.091,1.9451,1.8058,1.6683,1.5323,1.3823,1.2248,1.1258,1.0442,0.9725,0.8343,0.7652,0.7641,0.6533,0.5259,0.3815,0.1235,-0.159,-0.4792,-0.86,-1.1384,-1.3121,-1.4756,-1.5264,-1.4642,-1.4332,-1.3533,-1.2184,-1.2501,-1.331,-1.4529,-1.4891,-1.5453,-1.6303,-1.6866,0.0,0.0,0.0,0.0,0.0,0.0,0.0,0.0,0.0,0.0,-1.3296,-1.185,-1.0803,-1.0514,-1.0988,-1.1462,-1.2003,-1.2608,-1.103,-0.648,-0.5743,-0.6905,-1.0143,-1.0953,-1.0787,-0.9813,-0.9963,-1.109,-1.3453,-1.5464,-1.7048,-1.8012,-2.0255,-2.1572,-2.1034,-2.1474,-2.1119,-1.919,-1.8409,-1.7757,-1.6835,-1.6204,-1.5825,-1.5825,-1.5825,-1.5825,-1.5825,-1.5825,-1.5343,-1.4274,-1.4758,-1.5445,-1.4088,-1.3996,-1.3826,-1.3446,-1.3573,-1.3302,-1.2264,-1.1954,-1.1859,-1.1293,-1.0672,-1.046,-1.1105,-1.2615,-1.3372,-1.1433,-1.1105,-1.0781,1.9894,2.0212,2.0698,2.0878,2.0926,2.1751,2.1615,2.091,2.1705,0.0,0.0,1.9353,1.7814,1.6094,1.504,1.3431,1.1616,1.0914,0.9887,0.8528,0.7812,0.6956,0.5964,0.4518,0.3014,0.1302,-0.2157,-0.5129,-0.7828,-1.1151,-1.344,-1.4767,-1.594,-1.6238,-1.5776,-1.5287,-1.4767,-1.4253,-1.462,-1.5192,-1.5811,-1.6312,-1.6888,-1.7505,-1.8373,-1.8684,-1.8405,-1.8706,-1.8725,-1.8361,-1.8346,-1.853,-1.8864,-1.7555,-1.6682,-1.6499,-1.5191,-1.4444,-1.4384,-1.4866,-1.547,-1.6199,-1.6795,-1.4715,-0.9112,-0.916,-1.0605,-1.3344,-1.3683,-1.3369,-1.2315,-1.2618,-1.3682,-1.5453,-1.7072,-1.7903,-1.8087,-2.0198,-2.1302,-2.035,-2.0669,-2.0206,-1.8126,-1.7802,-1.7617,-1.7296,-1.6393,-1.5825,-1.5825,-1.5825,-1.5825,-1.5825,-1.5825,-1.573,-1.573,-1.573,-1.5852,-1.5741,-1.6016,-1.5895,-1.5146,-1.5161,-1.4804,-1.3725,-1.3571,-1.3455,-1.3259,-1.2724,-1.2512,-1.3156,-1.4341,-1.4776,-1.3701,-1.3732,-1.3552,1.9726,1.9818,2.0227,2.04,2.0449,2.0959,2.0846,2.0356,2.0927,2.0651,1.9758,1.9116,1.7611,1.5564,1.4341,1.2792,1.0914,1.0261,0.9183,0.7818,0.7074,0.5679,0.3733,0.2296,0.0492,-0.1693,-0.4634,-0.7137,-0.9342,-1.2148,-1.4207,-1.5374,-1.6139,-1.6479,-1.638,-1.6293,-1.6194,-1.6083,-1.5708,-1.6003,-1.6995,-1.7122,-1.7652,-1.8598,-1.8788,-1.908,-1.9479,-1.9828,-2.0042,-1.9974,-2.0316,-2.0671,-2.0908,-2.0073,-1.9447,-1.9101,-1.8413,-1.7912,-1.7659,-1.8026,-1.8697,-1.9666,-1.9677,-1.7821,-1.3803,-1.341,-1.4807,-1.7826,-1.681,-1.5976,-1.6094,-1.6032,-1.6277,-1.6912,-1.7474,-1.7918,-1.8222,-1.9053,-1.9778,-2.0214,-2.0073,-1.8856,-1.6835,-1.7073,-1.7238,-1.6372,-1.6021,-1.5825,-1.5825,-1.5825,-1.5825,-1.5825,-1.5825,-1.5825,-1.5832,-1.5832,-1.5959,-1.6172,-1.6253,-1.6486,-1.657,-1.6651,-1.6295,-1.5317,-1.5163,-1.4759,-1.3804,-1.3911,-1.4126,-1.4014,-1.5417,-1.6174,-1.4148,-1.54,-1.6326,1.9884,1.9762,2.0117,2.0192,1.9965,1.9899,1.9682,1.9439,1.9417,1.9324,1.909,1.8318,1.7206,1.5773,1.4488,1.2897,1.111,1.0,0.8404,0.6494,0.5337,0.3618,0.1476,-0.0326,-0.2379,-0.4588,-0.7384,-0.9757,-1.1792,-1.3818,-1.5207,-1.6064,-1.6691,-1.6974,-1.7011,-1.7287,-1.7438,-1.7413,-1.6534,-1.6629,-1.7706,-1.7747,-1.8263,-1.9281,-1.9543,-1.9666,-1.9711,-2.033,-2.055,-2.0299,-2.0943,-2.1577,-2.2075,-2.1762,-2.1534,-2.1465,-2.1044,-2.0724,-2.0556,-2.144,-2.2259,-2.306,-2.2708,-2.1244,-1.8489,-1.7042,-1.7185,-1.9084,-1.8824,-1.8193,-1.7042,-1.7037,-1.7227,-1.759,-1.8455,-1.8735,-1.8129,-1.9276,-1.9569,-1.8448,-1.8311,-1.7855,-1.6015,-1.6365,-1.6532,-1.592,-1.5825,-1.5825,-1.5825,-1.5825,-1.5825,-1.5825,-1.5825,-1.5825,-1.5845,-1.6119,-1.6273,-1.6299,-1.6547,-1.6827,-1.7237,-1.7255,-1.7213,-1.6785,-1.7121,-1.7108,-1.5837,-1.6567,-1.6679,-1.6062,-1.6499,-1.6861,-1.6377,-1.7393,-1.7811,2.0008,1.9756,2.0044,1.9966,1.9664,1.9147,1.8775,1.857,1.8099,1.7977,1.8057,1.741,1.6579,1.554,1.4296,1.2695,1.098,0.9418,0.7388,0.5005,0.3413,0.1338,-0.1167,-0.3262,-0.5329,-0.7594,-1.0163,-1.2264,-1.3772,-1.5084,-1.5944,-1.641,-1.7077,-1.738,-1.7322,-1.7897,-1.8204,-1.8154,-1.7338,-1.7355,-1.8248,-1.8438,-1.8942,-1.9871,-2.0375,-2.0472,-2.0197,-2.0879,-2.1138,-2.0814,-2.1487,-2.2227,-2.2876,-2.2765,-2.2927,-2.3381,-2.3206,-2.3138,-2.3375,-2.4307,-2.516,-2.5805,-2.5081,-2.4015,-2.2533,-2.0098,-1.8765,-1.9363,-1.9521,-1.9104,-1.8065,-1.7819,-1.8065,-1.8702,-1.964,-1.9488,-1.8119,-1.9355,-1.9389,-1.6466,-1.6662,-1.6857,-1.6109,-1.5825,-1.5825,-1.5825,-1.5825,-1.5825,-1.5825,-1.5825,-1.5845,-1.5899,-1.5879,-1.5879,-1.5932,-1.6339,-1.6587,-1.6466,-1.6827,-1.721,-1.7255,-1.7448,-1.7562,-1.7582,-1.8603,-1.87,-1.7989,-1.8603,-1.87,-1.7674,-1.7536,-1.7709,-1.7972,-1.8446,-1.8891,1.9747,1.9726,1.975,1.9737,1.9595,1.9085,1.8545,1.7886,1.7398,1.6836,1.6255,1.6392,1.561,1.4205,1.3001,1.1353,0.9546,0.7916,0.5809,0.3401,0.1721,-0.106,-0.4578,-0.643,-0.8395,-1.0621,-1.2787,-1.3886,-1.4134,-1.5438,-1.6113,-1.6173,-1.6916,-1.7304,-1.7255,-1.7881,-1.8216,-1.8204,-1.8116,-1.8318,-1.8903,-1.9439,-2.0033,-2.0623,-2.1216,-2.1554,-2.1386,-2.1972,-2.2152,-2.2167,-2.2524,-2.3066,-2.3473,-2.3047,-2.3308,-2.4562,-2.4846,-2.5225,-2.5846,-2.6078,-2.6467,-2.7086,-2.6012,-2.521,-2.505,-2.2229,-2.0133,-1.9647,-1.8491,-1.8435,-1.9913,-1.9657,-1.9652,-2.0542,-2.0642,-2.0149,-1.901,-1.83,-1.7404,-1.6015,-1.6015,-1.5927,-1.5825,-1.5825,-1.5825,-1.5825,-1.5825,-1.5825,-1.5832,-1.5865,-1.5952,-1.6106,-1.6025,-1.5999,-1.6206,-1.6486,-1.6794,-1.6994,-1.7094,-1.7261,-1.7442,-1.7528,-1.7589,-1.7687,-1.8708,-1.9013,-1.8401,-1.8603,-1.9124,-1.8112,-1.7869,-1.8176,-1.8664,-1.8898,-1.8958,1.9728,1.9288,1.9542,1.9265,1.8636,1.8409,1.7429,1.6053,1.5835,1.5014,1.3797,1.349,1.3741,1.4195,1.2247,1.0208,0.8108,0.5498,0.2851,0.0179,-0.2368,-0.4907,-0.7296,-0.9785,-1.1663,-1.2994,-1.5037,-1.5769,-1.5445,-1.5835,-1.6042,-1.6137,-1.7142,-1.7628,-1.7633,-1.861,-1.9158,-1.9145,-1.9145,-1.928,-1.9429,-1.9377,-1.9601,-2.0118,-2.0443,-2.0557,-2.0641,-2.1067,-2.1376,-2.1416,-2.2133,-2.3017,-2.3951,-2.3756,-2.4295,-2.5764,-2.6438,-2.6874,-2.7184,-2.7705,-2.7994,-2.8012,-2.7106,-2.6193,-2.5255,-2.3854,-2.2463,-2.0752,-1.8605,-1.798,-1.939,-1.9632,-2.0135,-2.1192,-2.109,-2.0272,-1.9347,-1.8317,-1.7225,-1.6015,-1.5825,-1.5825,-1.5825,-1.5825,-1.5825,-1.5825,-1.5825,-1.5825,-1.5832,-1.5972,-1.6132,-1.6259,-1.6386,-1.65,-1.658,-1.6934,-1.7154,-1.7188,-1.7301,-1.7482,-1.7535,-1.7589,-1.7589,-1.7589,-1.8708,-1.9013,-1.7891,-1.8624,-1.9264,-1.8355,-1.827,-1.8657,-1.8891,-1.9065,-1.9158,1.9273,1.8675,1.8738,1.8151,1.712,1.6889,1.5389,1.3312,1.3168,1.2041,1.0235,0.9532,0.996,1.0908,0.9921,0.7979,0.5221,0.2368,-0.0433,-0.3225,-0.6397,-0.8691,-1.0343,-1.2808,-1.4478,-1.5268,-1.6621,-1.6996,-1.6313,-1.6033,-1.5929,-1.6018,-1.7042,-1.7577,-1.7658,-1.8653,-1.9202,-1.919,-1.9153,-1.9285,-1.9394,-1.9139,-1.929,-2.0011,-2.0243,-2.0292,-2.0337,-2.0751,-2.0983,-2.1026,-2.191,-2.2867,-2.392,-2.436,-2.5283,-2.6616,-2.7131,-2.7634,-2.8112,-2.8826,-2.9108,-2.8812,-2.8263,-2.7275,-2.6007,-2.5161,-2.3831,-2.1649,-1.8957,-1.7853,-1.9396,-1.9462,-2.0126,-2.1659,-2.1351,-2.0554,-1.9629,-1.8411,-1.7217,-1.6015,-1.5825,-1.5825,-1.5825,-1.5825,-1.5825,-1.5825,-1.5825,-1.5825,-1.5865,-1.6072,-1.6286,-1.6393,-1.676,-1.6941,-1.6894,-1.7201,-1.7415,-1.7408,-1.7462,-1.7555,-1.7589,-1.7589,-1.7589,-1.7687,-1.8812,-1.9027,-1.8128,-1.866,-1.9422,-1.8653,-1.8624,-1.8951,-1.9072,-1.9245,-1.9332,1.8045,1.7609,1.6809,1.5626,1.5038,1.4077,1.1921,0.8434,0.8741,0.7441,0.5006,0.4326,0.368,0.316,0.4713,0.3885,0.0449,-0.1534,-0.3824,-0.6563,-0.9736,-1.2146,-1.3826,-1.5462,-1.6639,-1.7202,-1.7483,-1.7203,-1.6483,-1.5963,-1.5614,-1.5524,-1.6428,-1.6775,-1.6749,-1.7434,-1.7743,-1.7841,-1.789,-1.8084,-1.863,-1.8724,-1.9306,-2.0411,-2.1224,-2.1342,-2.1417,-2.1586,-2.1586,-2.16,-2.2221,-2.2907,-2.3573,-2.4877,-2.5994,-2.6691,-2.6543,-2.7163,-2.8714,-2.9116,-2.9436,-2.995,-2.95,-2.8798,-2.7627,-2.6025,-2.4207,-2.2125,-1.9372,-1.8521,-2.0058,-1.9213,-1.9606,-2.1769,-2.1567,-2.0604,-1.9571,-1.8226,-1.7225,-1.6109,-1.5825,-1.5825,-1.5825,-1.5825,-1.5825,-1.5825,-1.5825,-1.5845,-1.5919,-1.6112,-1.6386,-1.6667,-1.6934,-1.7141,-1.7154,-1.7361,-1.7535,-1.7528,-1.7515,-1.7589,-1.7589,-1.7589,-1.7589,-1.7793,-1.8603,-1.8826,-1.8254,-1.839,-1.9196,-1.9105,-1.8904,-1.9045,-1.9212,-1.9305,-1.9366,1.4212,1.1734,0.9903,0.8045,0.617,0.5475,0.3032,-0.0373,-0.0643,-0.1992,-0.3675,-0.3209,-0.3811,-0.5275,-0.3589,-0.2949,-0.3507,-0.5118,-0.7606,-1.0533,-1.2915,-1.4482,-1.5625,-1.7148,-1.7961,-1.8278,-1.8307,-1.7698,-1.6502,-1.585,-1.5474,-1.5535,-1.6213,-1.6549,-1.6631,-1.7257,-1.7578,-1.7622,-1.762,-1.7741,-1.7938,-1.7978,-1.8286,-1.8736,-1.9408,-1.9531,-1.9105,-1.994,-2.0406,-2.0419,-2.1459,-2.2486,-2.3535,-2.5105,-2.5571,-2.4953,-2.6031,-2.7162,-2.7914,-2.8769,-2.9567,-3.0283,-3.0192,-2.9577,-2.861,-2.7105,-2.5486,-2.3527,-2.1074,-1.9556,-1.8255,-1.7814,-1.8112,-1.9615,-1.9454,-1.8956,-1.8226,-1.7217,-1.6292,-1.592,-1.5825,-1.5825,-1.5825,-1.5825,-1.5825,-1.5825,-1.5825,-1.5912,-1.6112,-1.6359,-1.6633,-1.6941,-1.7235,-1.7428,-1.7422,-1.7488,-1.7582,-1.7582,-1.7589,-1.7589,-1.7589,-1.7589,-1.7589,-1.7589,-1.8304,-1.8359,-1.7914,-1.8259,-1.8988,-1.9234,-1.9025,-1.9172,-1.9345,-1.9366,-1.9366,0.8054,0.4844,0.225,-0.0052,-0.2115,-0.3021,-0.5443,-0.8635,-0.8966,-1.015,-1.1452,-1.036,-1.0564,-1.1527,-1.0342,-0.9297,-0.8577,-0.9481,-1.1156,-1.3644,-1.5521,-1.6669,-1.728,-1.8478,-1.8922,-1.8607,-1.8186,-1.7346,-1.6257,-1.5654,-1.542,-1.5468,-1.5921,-1.6151,-1.6255,-1.6631,-1.6789,-1.6553,-1.6507,-1.6503,-1.6477,-1.6461,-1.6451,-1.6513,-1.6935,-1.7401,-1.7567,-1.8519,-1.9036,-1.9181,-2.0343,-2.1782,-2.3375,-2.4606,-2.4985,-2.444,-2.5467,-2.6519,-2.697,-2.8,-2.9153,-3.0286,-3.0418,-3.0079,-2.9287,-2.8299,-2.675,-2.4637,-2.2461,-1.9996,-1.8128,-1.7249,-1.7494,-1.862,-1.8279,-1.7684,-1.7598,-1.6574,-1.592,-1.5825,-1.5825,-1.5825,-1.5825,-1.5825,-1.5825,-1.5825,-1.5825,-1.5945,-1.6233,-1.652,-1.6814,-1.7108,-1.7375,-1.7528,-1.7542,-1.7562,-1.7589,-1.7589,-1.7589,-1.7589,-1.7589,-1.7589,-1.7589,-1.7589,-1.7629,-1.7695,-1.7903,-1.8237,-1.8591,-1.8965,-1.9158,-1.9299,-1.9366,-1.9366,-1.9366,-0.0507,-0.2828,-0.5832,-0.7931,-0.9511,-1.0797,-1.2809,-1.5149,-1.5386,-1.6466,-1.78,-1.6669,-1.6188,-1.6044,-1.4398,-1.4084,-1.4338,-1.3852,-1.4191,-1.5446,-1.739,-1.8424,-1.865,-1.9307,-1.9251,-1.8522,-1.7272,-1.6209,-1.5556,-1.543,-1.542,-1.542,-1.5468,-1.5526,-1.541,-1.5584,-1.5157,-1.4688,-1.4529,-1.4401,-1.4132,-1.425,-1.4319,-1.425,-1.4341,-1.5273,-1.7235,-1.7501,-1.7544,-1.7709,-1.8903,-2.082,-2.2826,-2.3342,-2.403,-2.4991,-2.4883,-2.5001,-2.606,-2.6835,-2.8057,-2.9737,-3.0313,-3.0219,-2.9773,-2.9157,-2.759,-2.4719,-2.2793,-2.0995,-1.9117,-1.7986,-1.7681,-1.8959,-1.8033,-1.7498,-1.7318,-1.6574,-1.5825,-1.5825,-1.5825,-1.5825,-1.5825,-1.5825,-1.5825,-1.5825,-1.5832,-1.5959,-1.6279,-1.6553,-1.6814,-1.7128,-1.7402,-1.7569,-1.7589,-1.7589,-1.7589,-1.7589,-1.7589,-1.7589,-1.7589,-1.7589,-1.7589,-1.7595,-1.7709,-1.7796,-1.8034,-1.8366,-1.8778,-1.9098,-1.9259,-1.9366,-1.9366,-1.9366,-1.9366,-0.7345,-1.0371,-1.3476,-1.6134,-1.8214,-1.9251,-2.0893,-2.2865,-2.2969,-2.3537,-2.3955,-2.238,-2.115,-1.9996,-1.7995,-1.6611,-1.6146,-1.585,-1.6126,-1.688,-1.7611,-1.8555,-1.9371,-1.9695,-1.9162,-1.8073,-1.7489,-1.6582,-1.5604,-1.542,-1.542,-1.542,-1.542,-1.542,-1.542,-1.541,-1.4991,-1.4273,-1.4163,-1.3965,-1.3399,-1.3339,-1.3347,-1.3339,-1.3347,-1.3751,-1.4405,-1.5428,-1.5991,-1.6001,-1.7127,-1.9097,-2.1339,-2.1593,-2.2147,-2.3585,-2.3045,-2.2959,-2.3927,-2.472,-2.6153,-2.8292,-2.9343,-2.9779,-2.9857,-2.936,-2.7486,-2.4383,-2.2594,-2.1147,-1.965,-1.8774,-1.8045,-1.7088,-1.6567,-1.648,-1.648,-1.6109,-1.5825,-1.5825,-1.5825,-1.5825,-1.5825,-1.5825,-1.5825,-1.5825,-1.5832,-1.5985,-1.6446,-1.662,-1.6921,-1.7348,-1.7508,-1.7589,-1.7589,-1.7589,-1.7589,-1.7589,-1.7589,-1.7589,-1.7589,-1.7589,-1.7589,-1.7675,-1.7782,-1.7908,-1.815,-1.8552,-1.8945,-1.9165,-1.9319,-1.9366,-1.9366,-1.9366,-1.9366,-1.3632,-1.7213,-2.0482,-2.2981,-2.4884,-2.5452,-2.6262,-2.7245,-2.7301,-2.7515,-2.7382,-2.5853,-2.4392,-2.2916,-2.036,-1.826,-1.6957,-1.6368,-1.6482,-1.7246,-1.7852,-1.8661,-1.9592,-1.9202,-1.8573,-1.7632,-1.7032,-1.6337,-1.5468,-1.542,-1.542,-1.542,-1.542,-1.542,-1.5352,-1.504,-1.4569,-1.3846,-1.3425,-1.2931,-1.2266,-1.2089,-1.2097,-1.2097,-1.2089,-1.2274,-1.2573,-1.3228,-1.3672,-1.4049,-1.4814,-1.6618,-1.9132,-1.9055,-1.9522,-2.0768,-2.1072,-2.1202,-2.2017,-2.2955,-2.4419,-2.6816,-2.7911,-2.8436,-2.8862,-2.8801,-2.7406,-2.4105,-2.2515,-2.1268,-1.983,-1.9216,-1.8094,-1.6075,-1.592,-1.5825,-1.5825,-1.5825,-1.5825,-1.5825,-1.5825,-1.5825,-1.5825,-1.5825,-1.5825,-1.5825,-1.5832,-1.6046,-1.6506,-1.6693,-1.7061,-1.7382,-1.7542,-1.7589,-1.7589,-1.7589,-1.7589,-1.7589,-1.7589,-1.7589,-1.7589,-1.7589,-1.7595,-1.7789,-1.7929,-1.8087,-1.8315,-1.8632,-1.8985,-1.9178,-1.9366,-1.9366,-1.9366,-1.9366,-1.9366,-1.896,-2.3078,-2.6347,-2.7883,-2.874,-2.8963,-2.8675,-2.8517,-2.8347,-2.8316,-2.8214,-2.7054,-2.5982,-2.4471,-2.1498,-1.9154,-1.7599,-1.6083,-1.5921,-1.6754,-1.7743,-1.8768,-1.954,-1.8596,-1.7947,-1.7433,-1.6317,-1.5584,-1.542,-1.542,-1.542,-1.542,-1.542,-1.542,-1.5294,-1.4628,-1.4034,-1.3183,-1.2389,-1.1717,-1.087,-1.0751,-1.0744,-1.0744,-1.0807,-1.1045,-1.1392,-1.0696,-1.0696,-1.1553,-1.2099,-1.3217,-1.5203,-1.5864,-1.6578,-1.7648,-1.8465,-1.9314,-2.0291,-2.102,-2.2687,-2.4903,-2.5801,-2.6633,-2.7274,-2.7931,-2.7072,-2.3706,-2.2109,-2.0881,-1.96,-1.9174,-1.8087,-1.6278,-1.5825,-1.5825,-1.5825,-1.5825,-1.5825,-1.5825,-1.5825,-1.5825,-1.5825,-1.5825,-1.5825,-1.5838,-1.5865,-1.6179,-1.6533,-1.68,-1.7034,-1.7398,-1.7765,-1.8206,-1.8304,-1.8304,-1.8304,-1.8199,-1.8003,-1.7595,-1.7635,-1.7655,-1.7702,-1.7896,-1.8061,-1.8209,-1.8434,-1.8771,-1.9072,-1.9265,-1.9359,-1.9366,-1.9366,-1.9366,-1.9366,-1.9148,-2.3409,-2.6561,-2.8445,-2.9187,-2.8961,-2.8353,-2.7719,-2.7261,-2.7433,-2.7661,-2.6763,-2.5797,-2.4757,-2.1728,-1.9306,-1.7545,-1.6066,-1.5806,-1.6482,-1.6821,-1.8167,-1.9307,-1.8809,-1.8089,-1.7456,-1.6564,-1.5921,-1.5468,-1.5352,-1.5352,-1.542,-1.5294,-1.5352,-1.5352,-1.504,-1.4332,-1.3191,-1.2826,-1.1903,-1.0807,-1.0561,-1.0618,-1.0618,-1.0555,-1.0301,-0.9786,-0.7815,-0.7889,-1.0007,-0.9151,-0.9411,-1.115,-1.2504,-1.3576,-1.4196,-1.5475,-1.6693,-1.7493,-1.8134,-1.9555,-2.17,-2.3162,-2.4362,-2.6409,-2.6696,-2.5525,-2.2982,-2.0704,-1.9022,-1.8247,-1.8133,-1.7368,-1.6197,-1.5825,-1.5825,-1.5825,-1.5825,-1.5825,-1.5825,-1.5825,-1.5825,-1.5825,-1.5825,-1.5743,-1.5777,-1.5929,-1.6175,-1.6447,-1.6914,-1.7141,-1.7784,-1.8304,-1.8812,-1.9124,-1.9124,-1.9124,-1.902,-1.852,-1.7609,-1.7695,-1.7796,-1.7876,-1.8009,-1.8424,-1.8612,-1.8778,-1.9078,-1.9232,-1.9352,-1.9359,-1.9366,-1.9366,-1.9366,-1.9366,-1.8676,-2.2802,-2.6083,-2.7989,-2.8777,-2.8392,-2.7552,-2.6545,-2.6151,-2.6347,-2.6741,-2.61,-2.5273,-2.4357,-2.1605,-1.9117,-1.7168,-1.5931,-1.57,-1.5968,-1.6379,-1.7413,-1.8382,-1.8112,-1.7556,-1.7081,-1.6404,-1.5806,-1.541,-1.5108,-1.4932,-1.4746,-1.4569,-1.4392,-1.4273,-1.4016,-1.3468,-1.2573,-1.2212,-1.1483,-1.0688,-1.0238,-1.0047,-0.9977,-0.9716,-0.8964,-0.7555,-0.5823,-0.6084,-0.7737,-0.7161,-0.6689,-0.8045,-0.989,-1.1323,-1.2224,-1.3738,-1.4974,-1.5934,-1.6451,-1.7743,-1.9919,-2.1413,-2.3037,-2.4802,-2.5632,-2.5242,-2.2289,-2.0592,-1.9222,-1.7951,-1.7265,-1.664,-1.592,-1.5825,-1.5825,-1.5825,-1.5825,-1.5825,-1.5825,-1.5825,-1.5825,-1.5825,-1.573,-1.551,-1.5409,-1.5848,-1.5866,-1.5999,-1.6721,-1.7345,-1.7873,-1.861,-1.9228,-1.9546,-1.9554,-1.9346,-1.9235,-1.8654,-1.7822,-1.7849,-1.7989,-1.8163,-1.835,-1.8704,-1.8971,-1.9105,-1.9212,-1.9285,-1.9366,-1.9366,-1.9366,-1.9366,-1.9366,-1.9366,-1.7529,-2.159,-2.5156,-2.7243,-2.8123,-2.784,-2.6788,-2.5359,-2.5072,-2.5379,-2.5791,-2.5369,-2.465,-2.3767,-2.136,-1.8951,-1.6532,-1.5565,-1.5157,-1.5274,-1.568,-1.6507,-1.6946,-1.6968,-1.669,-1.6514,-1.5756,-1.5362,-1.5079,-1.4538,-1.4213,-1.3965,-1.3425,-1.313,-1.3216,-1.256,-1.2011,-1.1681,-1.127,-1.0664,-1.016,-0.9569,-0.9177,-0.8766,-0.7819,-0.6877,-0.5566,-0.4561,-0.4928,-0.6746,-0.543,-0.5569,-0.6623,-0.8309,-1.034,-1.2063,-1.3251,-1.4367,-1.5357,-1.5955,-1.7171,-1.9314,-2.0917,-2.2275,-2.3638,-2.4981,-2.4783,-2.2459,-2.1949,-2.0598,-1.8352,-1.6842,-1.6008,-1.5825,-1.5825,-1.5825,-1.5825,-1.5825,-1.5825,-1.5825,-1.5825,-1.5737,-1.5445,-1.5484,-1.5185,-1.4166,-1.4838,-1.5576,-1.594,-1.6652,-1.7147,-1.7634,-1.8513,-1.9539,-1.9761,-1.9887,-1.9569,-1.9279,-1.8575,-1.7949,-1.8096,-1.8263,-1.8484,-1.8718,-1.8951,-1.9125,-1.9265,-1.9345,-1.9366,-1.9366,-1.9366,-1.9366,-1.9366,-1.9366,-1.9366,-1.5212,-2.0385,-2.3981,-2.6574,-2.8064,-2.756,-2.633,-2.4794,-2.4122,-2.4421,-2.5069,-2.4698,-2.4016,-2.3229,-2.1203,-1.8894,-1.654,-1.5156,-1.4145,-1.3666,-1.4323,-1.4728,-1.5187,-1.5786,-1.6423,-1.6294,-1.5726,-1.5117,-1.4529,-1.4207,-1.3846,-1.3243,-1.287,-1.2956,-1.2875,-1.2649,-1.2266,-1.1272,-1.0916,-1.0196,-0.9179,-0.8701,-0.8074,-0.7229,-0.5773,-0.4818,-0.4303,-0.3603,-0.3804,-0.4795,-0.562,-0.61,-0.6919,-0.8934,-1.081,-1.2137,-1.3185,-1.4048,-1.4664,-1.561,-1.6919,-1.8565,-2.0033,-2.149,-2.3294,-2.3977,-2.4152,-2.3401,-2.3062,-2.1084,-1.8317,-1.6669,-1.592,-1.5825,-1.5825,-1.5825,-1.5825,-1.5825,-1.5825,-1.5825,-1.5629,-1.5051,-1.3221,-1.4084,-1.3796,-1.3109,-1.3847,-1.4974,-1.5792,-1.6488,-1.7134,-1.7589,-1.8855,-1.9879,-1.9864,-1.991,-1.9643,-1.911,-1.8393,-1.821,-1.8364,-1.8564,-1.8798,-1.8965,-1.9118,-1.9265,-1.9359,-1.9366,-1.9366,-1.9366,-1.9366,-1.9366,-1.9366,-1.9366,-1.9426,-1.3956,-1.9312,-2.292,-2.5702,-2.7375,-2.6771,-2.5213,-2.3431,-2.2849,-2.3227,-2.41,-2.4189,-2.3841,-2.2982,-2.1372,-1.9221,-1.6644,-1.494,-1.3786,-1.3252,-1.3485,-1.3606,-1.3726,-1.4483,-1.5119,-1.5693,-1.5206,-1.4602,-1.4194,-1.3449,-1.281,-1.2328,-1.171,-1.15,-1.1862,-1.1861,-1.1483,-1.1089,-1.0672,-0.9996,-0.9168,-0.7681,-0.6257,-0.4965,-0.3543,-0.2906,-0.3393,-0.3213,-0.3636,-0.4667,-0.602,-0.7218,-0.7693,-0.916,-1.073,-1.2211,-1.3402,-1.3828,-1.4227,-1.5072,-1.6431,-1.7874,-1.9003,-2.0984,-2.3032,-2.4249,-2.4779,-2.4247,-2.2665,-2.0285,-1.7964,-1.6574,-1.592,-1.5825,-1.5825,-1.5825,-1.5825,-1.5825,-1.5825,-1.5629,-1.5026,-1.4171,-1.34,-1.3039,-1.3148,-1.2669,-1.3907,-1.5024,-1.5737,-1.6411,-1.7187,-1.801,-1.9294,-2.0021,-1.9879,-1.9725,-1.9523,-1.9056,-1.8354,-1.841,-1.8651,-1.8878,-1.9125,-1.9212,-1.9137,-1.9292,-1.9366,-1.9366,-1.9243,-1.9366,-1.9366,-1.9366,-1.9372,-1.9386,-1.9492,-1.3032,-1.8138,-2.2096,-2.4969,-2.6534,-2.5861,-2.3901,-2.1565,-2.1377,-2.2026,-2.3043,-2.3946,-2.3854,-2.2968,-2.1888,-1.9386,-1.6254,-1.4703,-1.3425,-1.252,-1.2696,-1.2818,-1.294,-1.3235,-1.3846,-1.4883,-1.4332,-1.3942,-1.3395,-1.2591,-1.1958,-1.1413,-1.0219,-1.0147,-1.0469,-1.0306,-1.0101,-1.02,-1.0008,-0.9411,-0.876,-0.6664,-0.4778,-0.3318,-0.2219,-0.2162,-0.2946,-0.3347,-0.3827,-0.4756,-0.6546,-0.7855,-0.868,-0.9562,-1.0368,-1.235,-1.3611,-1.4084,-1.4216,-1.4974,-1.6198,-1.7293,-1.8541,-2.0198,-2.2671,-2.478,-2.5498,-2.4051,-2.2063,-1.91,-1.778,-1.6574,-1.592,-1.5825,-1.5825,-1.5825,-1.573,-1.5642,-1.5337,-1.514,-1.437,-1.3482,-1.2501,-1.1865,-1.2196,-1.2611,-1.3964,-1.5141,-1.5747,-1.6499,-1.7259,-1.7582,-1.8757,-1.9182,-1.9049,-1.9182,-1.9056,-1.8791,-1.8187,-1.8131,-1.8405,-1.8358,-1.8404,-1.9061,-1.9223,-1.912,-1.8648,-1.8175,-1.8292,-1.9004,-1.9004,-1.8765,-1.89,-1.9406,-1.9559,-1.1396,-1.6045,-2.1679,-2.5044,-2.6246,-2.5013,-2.2955,-2.0825,-2.0204,-2.0914,-2.2431,-2.365,-2.3889,-2.312,-2.2288,-1.8857,-1.4972,-1.3433,-1.252,-1.1538,-1.1655,-1.1896,-1.1958,-1.2189,-1.2834,-1.325,-1.3033,-1.2637,-1.2414,-1.1909,-1.1276,-1.0672,-0.9807,-0.9559,-0.9791,-0.995,-0.9383,-0.8969,-0.8998,-0.8635,-0.7309,-0.5806,-0.4358,-0.3064,-0.2145,-0.231,-0.3091,-0.3958,-0.4516,-0.4763,-0.5864,-0.6563,-0.7407,-0.9059,-1.1,-1.2685,-1.371,-1.419,-1.4619,-1.573,-1.6589,-1.7612,-1.8665,-1.9998,-2.1927,-2.4118,-2.4871,-2.3304,-2.0748,-1.8164,-1.7747,-1.648,-1.592,-1.5825,-1.5825,-1.5825,-1.5635,-1.5045,-1.4268,-1.3974,-1.3516,-1.2829,-1.1678,-1.0968,-1.1349,-1.2063,-1.3275,-1.483,-1.6007,-1.6717,-1.7477,-1.7582,-1.7793,-1.7898,-1.7891,-1.8217,-1.8442,-1.8326,-1.789,-1.7472,-1.7479,-1.7292,-1.7523,-1.7793,-1.8046,-1.7923,-1.7455,-1.6979,-1.7455,-1.8169,-1.8046,-1.7923,-1.8687,-1.9466,-1.9679,-0.8166,-1.3054,-1.9009,-2.2396,-2.3619,-2.3581,-2.1713,-1.923,-1.9144,-2.0112,-2.1838,-2.3637,-2.459,-2.4178,-2.3427,-1.9557,-1.488,-1.3122,-1.2097,-1.0982,-1.0598,-1.0521,-1.0451,-1.0557,-1.0375,-1.0388,-1.0375,-1.1143,-1.1594,-1.0934,-1.0477,-0.9843,-0.8894,-0.8508,-0.8915,-0.8893,-0.8793,-0.8291,-0.8383,-0.8129,-0.6927,-0.5535,-0.4215,-0.3202,-0.2813,-0.2969,-0.3826,-0.4297,-0.5002,-0.5473,-0.6025,-0.6257,-0.6891,-0.813,-1.0462,-1.2463,-1.3475,-1.3959,-1.456,-1.5418,-1.6199,-1.6495,-1.7588,-1.8806,-2.0287,-2.2104,-2.2891,-2.0294,-1.8929,-1.6943,-1.6669,-1.6109,-1.592,-1.5825,-1.5825,-1.5825,-1.5534,-1.4561,-1.3878,-1.3108,-1.216,-1.142,-1.0497,-1.0252,-1.0594,-1.1496,-1.2641,-1.4207,-1.5956,-1.6929,-1.7589,-1.7582,-1.7602,-1.7788,-1.7556,-1.7559,-1.7682,-1.7563,-1.7141,-1.6821,-1.6275,-1.5831,-1.588,-1.6256,-1.638,-1.602,-1.6492,-1.602,-1.6733,-1.7091,-1.7091,-1.722,-1.8719,-1.9559,-1.9424,-0.5202,-0.9987,-1.657,-1.9807,-2.0695,-2.2115,-2.074,-1.813,-1.8251,-1.9598,-2.1567,-2.3852,-2.535,-2.529,-2.3554,-2.0073,-1.4608,-1.3622,-1.2089,-1.0654,-0.9779,-0.9332,-0.8877,-0.8484,-0.828,-0.8608,-0.8565,-0.9102,-1.0244,-0.9873,-0.9371,-0.8947,-0.7808,-0.7542,-0.817,-0.8042,-0.8323,-0.8179,-0.8228,-0.7761,-0.6831,-0.5604,-0.4373,-0.3513,-0.3435,-0.3826,-0.4453,-0.4611,-0.4844,-0.5246,-0.5497,-0.5743,-0.6298,-0.6994,-0.8626,-1.0849,-1.2155,-1.2757,-1.3239,-1.3771,-1.4246,-1.4382,-1.5078,-1.6284,-1.7992,-1.9323,-1.9878,-1.6147,-1.573,-1.592,-1.6015,-1.5825,-1.5825,-1.5825,-1.5825,-1.573,-1.5439,-1.4752,-1.3878,-1.2727,-1.1292,-1.0484,-0.9923,-0.9429,-0.9848,-1.134,-1.2596,-1.4105,-1.5743,-1.6935,-1.7582,-1.7589,-1.7635,-1.7882,-1.7666,-1.7036,-1.6998,-1.6995,-1.6212,-1.5587,-1.4857,-1.4113,-1.4242,-1.4123,-1.3522,-1.3402,-1.4232,-1.4708,-1.3994,-1.4113,-1.5306,-1.6273,-1.7026,-1.7851,-1.8125,-0.3878,-0.7592,-1.6327,-1.9477,-1.8697,-2.0885,-2.0371,-1.7816,-1.7786,-1.9434,-2.2089,-2.4156,-2.5697,-2.5696,-2.3067,-1.9605,-1.633,-1.3835,-1.2074,-1.0445,-0.9512,-0.8765,-0.8231,-0.8091,-0.7746,-0.7654,-0.7912,-0.825,-0.8654,-0.8482,-0.8417,-0.8304,-0.7708,-0.7327,-0.7455,-0.7497,-0.7379,-0.7019,-0.7383,-0.6984,-0.5607,-0.4988,-0.4681,-0.4608,-0.453,-0.453,-0.4688,-0.4688,-0.4613,-0.3845,-0.3665,-0.4456,-0.5792,-0.5653,-0.5084,-0.6094,-0.7986,-1.0695,-1.0846,-1.1364,-1.1635,-1.1942,-1.2411,-1.323,-1.4784,-1.7033,-1.7331,-1.3041,-1.437,-1.573,-1.5825,-1.5825,-1.5825,-1.5825,-1.5825,-1.5825,-1.5629,-1.4752,-1.3878,-1.3471,-1.234,-1.1048,-1.005,-0.9421,-0.921,-1.0915,-1.2512,-1.4024,-1.5316,-1.6393,-1.7582,-1.7582,-1.7636,-1.7795,-1.7302,-1.666,-1.6063,-1.6051,-1.5221,-1.4287,-1.3255,-1.2337,-1.1736,-1.1495,-1.1137,-1.1615,-1.2928,-1.2689,-1.1257,-1.1732,-1.3517,-1.4237,-1.4723,-1.5707,-1.6903,0.0687,-0.3281,-0.9884,-1.3563,-1.5174,-1.742,-1.813,-1.7816,-1.8058,-1.9712,-2.2235,-2.423,-2.5612,-2.5726,-2.3241,-1.9866,-1.6481,-1.3987,-1.1819,-1.0009,-0.9017,-0.8168,-0.7371,-0.68,-0.6531,-0.686,-0.6777,-0.6674,-0.7024,-0.7459,-0.7727,-0.7658,-0.7104,-0.6681,-0.6814,-0.6904,-0.671,-0.6567,-0.6633,-0.6475,-0.5857,-0.5622,-0.5544,-0.5553,-0.555,-0.5237,-0.4844,-0.4688,-0.4567,-0.404,-0.3912,-0.3848,-0.448,-0.4548,-0.4424,-0.3997,-0.5292,-0.7021,-0.8368,-0.9183,-0.9469,-0.9782,-1.0371,-1.112,-1.2067,-1.3547,-1.4994,-1.3061,-1.4592,-1.5642,-1.5825,-1.5825,-1.5825,-1.5825,-1.5825,-1.5825,-1.5534,-1.4651,-1.3896,-1.3699,-1.3549,-1.2713,-1.1911,-1.1726,-1.1433,-1.1827,-1.2738,-1.3501,-1.4465,-1.5316,-1.6499,-1.7582,-1.7595,-1.7623,-1.6826,-1.6132,-1.4839,-1.435,-1.3646,-1.2667,-1.1483,-1.0543,-1.0422,-1.0301,-1.0301,-1.102,-1.1856,-1.1495,-1.0539,-1.1137,-1.1972,-1.2826,-1.3583,-1.4846,-1.6151,0.454,0.0946,-0.4412,-0.8407,-1.1344,-1.3768,-1.5543,-1.67,-1.7137,-1.8914,-2.1699,-2.4332,-2.6138,-2.5779,-2.3779,-2.0574,-1.6916,-1.4033,-1.1524,-0.9624,-0.8265,-0.7315,-0.6656,-0.5884,-0.5731,-0.5806,-0.6047,-0.6039,-0.6247,-0.6641,-0.7025,-0.7045,-0.663,-0.6391,-0.6331,-0.6409,-0.6338,-0.6335,-0.6335,-0.6335,-0.618,-0.618,-0.6257,-0.6257,-0.618,-0.5786,-0.4924,-0.4729,-0.4788,-0.4252,-0.414,-0.3777,-0.3671,-0.4363,-0.437,-0.4003,-0.453,-0.5166,-0.6171,-0.686,-0.7566,-0.7791,-0.7973,-0.8208,-0.9213,-1.0271,-1.1858,-1.2867,-1.4694,-1.5635,-1.5825,-1.5825,-1.5825,-1.5825,-1.5825,-1.5825,-1.573,-1.5045,-1.4682,-1.4768,-1.4937,-1.5562,-1.4959,-1.467,-1.4172,-1.3439,-1.3285,-1.3305,-1.3722,-1.4347,-1.5209,-1.6399,-1.739,-1.7143,-1.6086,-1.5248,-1.3966,-1.2928,-1.2093,-1.1499,-1.0543,-1.0061,-1.0061,-0.9819,-0.9819,-1.0058,-1.0899,-1.0539,-1.0179,-1.066,-1.1144,-1.1897,-1.2842,-1.3976,-1.5393,0.6024,0.431,-0.3044,-0.6165,-0.6902,-1.1332,-1.3209,-1.3076,-1.3744,-1.5903,-1.9727,-2.4706,-2.7432,-2.6707,-2.4088,-2.118,-1.8517,-1.3929,-1.1192,-0.9282,-0.7861,-0.6757,-0.6139,-0.5898,-0.5769,-0.585,-0.5884,-0.5962,-0.6057,-0.6318,-0.6437,-0.6328,-0.6325,-0.6331,-0.6261,-0.6261,-0.6261,-0.6261,-0.6261,-0.6261,-0.6335,-0.6335,-0.6412,-0.6342,-0.6261,-0.5789,-0.4774,-0.4788,-0.4705,-0.4003,-0.3829,-0.448,-0.4598,-0.5472,-0.5574,-0.5058,-0.4896,-0.5196,-0.517,-0.4952,-0.4368,-0.4277,-0.458,-0.5277,-0.6401,-0.7521,-0.9596,-1.2624,-1.4663,-1.5635,-1.5825,-1.5825,-1.5825,-1.5825,-1.5825,-1.5825,-1.5825,-1.573,-1.5471,-1.5747,-1.5914,-1.6043,-1.6393,-1.5866,-1.4959,-1.4218,-1.2782,-1.2692,-1.3073,-1.3588,-1.4024,-1.5007,-1.6649,-1.6603,-1.5255,-1.4074,-1.2724,-1.1856,-1.1137,-1.066,-1.0061,-0.9819,-0.9819,-0.9819,-0.9819,-0.9819,-0.9819,-0.994,-0.994,-0.994,-1.0197,-1.0966,-1.1499,-1.2373,-1.4007,0.842,0.8133,0.4893,0.2427,0.0475,-0.0796,-0.2366,-0.4018,-0.5141,-1.0283,-1.7712,-2.4524,-2.7776,-2.6473,-2.3521,-2.0443,-1.7508,-1.3201,-1.0555,-0.8829,-0.7536,-0.6647,-0.6158,-0.5891,-0.5888,-0.602,-0.6071,-0.6098,-0.6183,-0.6461,-0.6325,-0.6257,-0.649,-0.6261,-0.6261,-0.6335,-0.6412,-0.6412,-0.6335,-0.6338,-0.6409,-0.693,-0.693,-0.6338,-0.7141,-0.6369,-0.5209,-0.4981,-0.4814,-0.4624,-0.4157,-0.5142,-0.6757,-0.7842,-0.7854,-0.7061,-0.7068,-0.6186,-0.5223,-0.4928,-0.466,-0.3717,-0.3387,-0.3314,-0.4418,-0.532,-0.8093,-1.1225,-1.437,-1.5343,-1.573,-1.5825,-1.5825,-1.5825,-1.573,-1.573,-1.5743,-1.5655,-1.5985,-1.6119,-1.5853,-1.5667,-1.616,-1.6615,-1.5683,-1.4759,-1.332,-1.2279,-1.2659,-1.2758,-1.3103,-1.3277,-1.4625,-1.4845,-1.3546,-1.2438,-1.137,-1.0899,-1.0301,-1.0061,-0.9819,-0.9819,-0.9819,-0.9819,-0.9819,-0.9819,-0.9819,-0.9819,-0.9819,-0.9822,-0.9866,-1.0046,-1.061,-1.1111,-1.2826,1.004,1.12,1.1744,0.9855,0.6854,0.7346,0.648,0.4577,0.3194,-0.3902,-1.4977,-2.2295,-2.6486,-2.564,-2.2959,-1.9696,-1.6493,-1.2621,-0.9826,-0.8156,-0.7124,-0.654,-0.6159,-0.604,-0.6067,-0.6283,-0.6558,-0.6695,-0.6846,-0.7015,-0.7326,-0.7403,-0.7173,-0.7096,-0.6335,-0.6644,-0.6868,-0.7096,-0.7176,-0.7176,-0.7399,-0.7842,-0.82,-0.7557,-0.8217,-0.8066,-0.7178,-0.714,-0.709,-0.6901,-0.6786,-0.7554,-0.9238,-1.0636,-1.0872,-1.0409,-0.9847,-0.874,-0.7775,-0.5371,-0.4558,-0.3185,-0.2607,-0.2715,-0.3316,-0.3917,-0.66,-1.0811,-1.3431,-1.4758,-1.4956,-1.4675,-1.4758,-1.4561,-1.4848,-1.4949,-1.53,-1.5434,-1.5932,-1.6326,-1.5878,-1.5269,-1.5159,-1.5594,-1.5352,-1.4843,-1.4561,-1.3423,-1.2985,-1.2787,-1.2316,-1.2289,-1.2497,-1.2174,-1.1511,-1.0986,-1.0657,-1.0418,-1.0061,-0.994,-0.9819,-0.9819,-0.9819,-0.9819,-0.9819,-0.9819,-0.9822,-0.9822,-0.9822,-0.9819,-0.9927,-1.0076,-1.0253,-1.0987,-1.2248,1.0698,1.2974,1.5464,1.4215,1.1165,1.1432,1.1269,1.0459,0.866,0.1433,-1.0394,-1.7679,-2.3272,-2.4938,-2.2224,-1.9097,-1.5991,-1.1733,-0.8737,-0.7564,-0.6729,-0.6263,-0.6256,-0.6213,-0.6343,-0.6546,-0.6996,-0.7452,-0.7778,-0.8585,-0.8969,-0.913,-0.8969,-0.8447,-0.6714,-0.7322,-0.8232,-0.914,-0.921,-0.9346,-0.9523,-0.9825,-1.0003,-1.0004,-1.0215,-1.0179,-0.9528,-0.9547,-0.9508,-0.9212,-0.9492,-1.0196,-1.1251,-1.1889,-1.2536,-1.3417,-1.399,-1.361,-1.2423,-0.6108,-0.3633,-0.3003,-0.2916,-0.2815,-0.3017,-0.3919,-0.5919,-1.0426,-1.1991,-1.2937,-1.3033,-1.3033,-1.3307,-1.3494,-1.3782,-1.3986,-1.4328,-1.5049,-1.5537,-1.5463,-1.5209,-1.4897,-1.4434,-1.4336,-1.45,-1.4714,-1.5163,-1.4657,-1.3506,-1.2302,-1.1402,-1.1518,-1.1406,-1.0917,-1.0532,-1.0194,-0.9933,-0.9819,-0.9819,-0.9819,-0.9819,-0.9819,-0.9819,-0.9819,-0.9819,-0.9819,-0.9822,-0.9825,-0.9903,-1.0005,-1.0148,-1.0297,-1.046,-1.083,-1.1949,1.3466,1.5382,1.7942,1.9398,1.9843,2.0448,2.0868,1.963,1.1636,0.2831,-0.5398,-1.4929,-2.153,-2.2715,-2.1019,-1.7879,-1.5119,-1.1084,-0.8056,-0.7327,-0.664,-0.6346,-0.6331,-0.6567,-0.6732,-0.7215,-0.7756,-0.8403,-0.8793,-0.9969,-1.0267,-1.0278,-1.107,-1.0416,-0.9611,-0.9691,-1.0209,-1.1132,-1.1687,-1.2144,-1.2532,-1.311,-1.3393,-1.3217,-1.3395,-1.2876,-1.1903,-1.2052,-1.1595,-1.1133,-1.1268,-1.1729,-1.2301,-1.2832,-1.4055,-1.5536,-1.6492,-1.6579,-1.4263,-0.9841,-0.6606,-0.5191,-0.4017,-0.3915,-0.442,-0.4017,-0.6517,-0.9418,-1.1194,-1.2047,-1.2247,-1.2242,-1.2334,-1.2431,-1.2528,-1.2522,-1.2969,-1.4027,-1.4721,-1.4257,-1.4034,-1.4166,-1.3964,-1.3398,-1.3455,-1.3151,-1.3398,-1.3938,-1.3207,-1.1385,-1.0277,-1.0725,-1.0735,-1.0094,-0.9652,-0.9761,-0.9815,-0.9819,-0.9819,-0.9819,-0.9819,-0.9819,-0.9819,-0.9819,-0.9819,-0.9822,-0.9866,-0.9937,-1.01,-1.0232,-1.0348,-1.0419,-1.0504,-1.0861,-1.16,1.5359,1.7049,1.9755,2.2265,2.4492,2.5542,2.6581,2.5078,1.4369,0.569,-0.1541,-1.1719,-1.8811,-2.0342,-1.9042,-1.6396,-1.4083,-1.0769,-0.825,-0.7641,-0.7483,-0.754,-0.7476,-0.733,-0.7872,-0.8372,-0.9153,-0.9803,-1.0513,-1.1726,-1.2521,-1.3078,-1.36,-1.4323,-1.383,-1.3547,-1.3071,-1.4221,-1.5223,-1.5791,-1.6446,-1.7064,-1.7469,-1.7497,-1.7269,-1.6611,-1.523,-1.422,-1.3413,-1.2777,-1.2486,-1.276,-1.3222,-1.4095,-1.5387,-1.7036,-1.8404,-1.827,-1.5853,-1.379,-1.0642,-0.8379,-0.6501,-0.5807,-0.6108,-0.5912,-0.847,-1.0751,-1.1258,-1.137,-1.1673,-1.157,-1.097,-1.097,-1.1263,-1.1263,-1.1702,-1.2757,-1.3679,-1.3291,-1.3425,-1.3521,-1.3381,-1.2792,-1.2403,-1.1905,-1.1406,-1.206,-1.274,-1.1483,-1.0178,-1.0632,-1.1105,-1.0925,-1.0317,-0.9781,-0.9819,-0.9819,-0.9819,-0.9819,-0.9819,-0.9819,-0.9819,-0.9822,-0.9825,-0.9856,-0.9947,-1.0059,-1.0249,-1.0392,-1.0504,-1.0551,-1.0565,-1.0889,-1.1365,1.6229,1.7978,2.0921,2.2918,2.4379,2.6227,2.723,2.6587,1.8228,0.9732,0.1462,-0.7191,-1.443,-1.8703,-1.7001,-1.4724,-1.2679,-1.043,-0.8934,-0.8262,-0.8219,-0.8618,-0.8922,-0.8998,-0.9145,-0.9933,-1.0802,-1.1559,-1.2391,-1.4037,-1.5317,-1.6432,-1.7081,-1.8025,-1.8051,-1.7595,-1.7045,-1.8082,-1.9126,-1.989,-2.0787,-2.1297,-2.197,-2.2139,-2.1878,-2.0979,-1.9701,-1.8446,-1.6871,-1.5755,-1.4706,-1.423,-1.4489,-1.5387,-1.6633,-1.8112,-1.9788,-1.8904,-1.7697,-1.5933,-1.3993,-1.1327,-0.9563,-0.8663,-0.8273,-0.8484,-1.0356,-1.1823,-1.2323,-1.1678,-1.1208,-1.0212,-0.9217,-0.9509,-0.9899,-1.0086,-1.0431,-1.1309,-1.2329,-1.275,-1.3179,-1.3275,-1.3083,-1.2521,-1.1769,-1.083,-1.0453,-1.0903,-1.1621,-1.2352,-1.1368,-1.1378,-1.1748,-1.2021,-1.1257,-1.0061,-0.9819,-0.9819,-0.9819,-0.9819,-0.9819,-0.994,-1.0179,-1.0183,-0.9957,-0.9914,-1.01,-1.0266,-1.0426,-1.0548,-1.0622,-1.0639,-1.0643,-1.066,-1.0982,1.698,1.8519,2.0716,2.2585,2.4146,2.5575,2.6189,2.5122,1.782,1.0186,0.2822,-0.6047,-1.2327,-1.6265,-1.4949,-1.3155,-1.1125,-0.9286,-0.8248,-0.7944,-0.83,-0.8761,-0.9069,-0.9448,-1.0104,-1.1117,-1.2074,-1.3131,-1.4451,-1.6184,-1.7997,-1.9259,-2.0006,-2.1144,-2.1641,-2.1631,-2.1619,-2.1946,-2.3005,-2.4051,-2.5149,-2.5808,-2.6539,-2.6816,-2.6267,-2.5244,-2.3802,-2.198,-2.0131,-1.7883,-1.618,-1.5047,-1.4166,-1.4692,-1.569,-1.9059,-1.9789,-1.9381,-1.8692,-1.6843,-1.488,-1.3573,-1.2302,-1.2206,-1.1716,-1.1434,-1.2037,-1.2813,-1.3584,-1.3227,-1.1775,-1.0395,-0.9509,-0.941,-0.9537,-0.9449,-0.9896,-1.0583,-1.1703,-1.2745,-1.3179,-1.3675,-1.348,-1.2403,-1.1551,-1.0181,-0.9608,-1.0081,-1.0551,-1.1265,-1.1624,-1.1512,-1.1363,-1.1242,-1.0899,-0.9819,-0.9819,-0.9819,-0.9819,-0.9819,-0.994,-1.0179,-1.0418,-1.0469,-1.007,-1.0127,-1.0341,-1.0473,-1.0555,-1.0622,-1.069,-1.0707,-1.0721,-1.0721,-1.0721,1.6501,1.7562,2.001,2.2081,2.3662,2.4451,2.427,2.2204,1.6714,1.023,0.3255,-0.4467,-1.0094,-1.3322,-1.2811,-1.156,-1.0159,-0.8826,-0.7888,-0.7733,-0.7973,-0.8761,-0.9226,-0.975,-1.0812,-1.1893,-1.3162,-1.4328,-1.6018,-1.8014,-1.9814,-2.1385,-2.2311,-2.3331,-2.4129,-2.4821,-2.5368,-2.5786,-2.6576,-2.7804,-2.8884,-2.9814,-3.0509,-3.083,-3.0164,-2.8978,-2.7431,-2.5394,-2.2693,-2.0017,-1.7952,-1.5838,-1.5049,-1.5113,-1.6016,-1.884,-1.8888,-1.8317,-1.7394,-1.598,-1.4785,-1.4148,-1.3878,-1.3968,-1.3968,-1.3776,-1.3974,-1.4364,-1.4854,-1.4765,-1.2813,-1.1068,-1.0386,-0.9801,-0.9402,-0.9094,-0.9658,-1.0244,-1.1357,-1.2607,-1.3479,-1.4308,-1.3906,-1.2615,-1.1266,-0.9943,-0.9401,-0.9662,-0.9881,-1.0098,-1.0558,-1.0662,-1.0357,-1.0058,-0.9819,-0.9819,-0.9819,-0.9819,-0.9819,-0.9819,-1.0061,-1.0086,-1.0229,-1.0221,-1.0107,-1.029,-1.0466,-1.0551,-1.0633,-1.069,-1.0721,-1.0721,-1.0721,-1.0721,-1.0721,1.5245,1.5686,1.9025,2.1401,2.295,2.3065,2.1787,1.902,1.5411,0.9984,0.3343,-0.2586,-0.755,-1.0434,-1.0338,-0.9366,-0.8245,-0.7233,-0.6713,-0.7122,-0.7601,-0.8206,-0.9125,-1.011,-1.0944,-1.2412,-1.403,-1.5542,-1.7285,-1.9135,-2.1032,-2.3,-2.3878,-2.4754,-2.5797,-2.6971,-2.7762,-2.8855,-2.9271,-3.013,-3.1754,-3.2692,-3.3096,-3.3428,-3.2896,-3.2021,-3.0505,-2.8146,-2.5105,-2.2512,-1.9745,-1.7185,-1.5661,-1.5231,-1.6404,-1.6907,-1.68,-1.6448,-1.5698,-1.4469,-1.4118,-1.3861,-1.3878,-1.4459,-1.4848,-1.5045,-1.514,-1.5419,-1.59,-1.5419,-1.3669,-1.2887,-1.2302,-1.1301,-1.0622,-1.0466,-1.0754,-1.1485,-1.2573,-1.3693,-1.4382,-1.4877,-1.4341,-1.3053,-1.1063,-0.9782,-0.9259,-0.9408,-0.953,-0.9612,-0.9806,-1.0013,-0.9916,-0.9819,-0.9819,-0.9819,-0.9819,-0.9819,-0.9819,-0.9863,-1.0019,-1.0036,-0.9924,-1.0343,-1.0785,-1.0524,-1.0541,-1.0619,-1.0673,-1.0697,-1.0721,-1.0721,-1.0721,-1.0721,-1.0721,1.4808,1.5581,1.8613,2.0463,2.1186,2.1343,2.0414,1.8465,1.4603,0.9492,0.347,-0.1594,-0.5396,-0.738,-0.7531,-0.6509,-0.4913,-0.4655,-0.437,-0.4622,-0.5415,-0.6881,-0.7956,-0.8939,-1.0461,-1.2391,-1.4347,-1.6669,-1.8829,-2.0353,-2.1756,-2.3833,-2.4778,-2.5716,-2.6761,-2.807,-2.9709,-3.0941,-3.1839,-3.2208,-3.3205,-3.4376,-3.5014,-3.5144,-3.4792,-3.4459,-3.307,-3.1343,-2.8149,-2.5041,-2.1376,-1.7666,-1.3726,-1.3094,-1.3318,-1.408,-1.385,-1.3593,-1.3504,-1.2945,-1.2689,-1.3573,-1.3974,-1.4752,-1.5242,-1.5635,-1.6008,-1.6372,-1.6358,-1.5589,-1.5285,-1.4791,-1.4232,-1.3088,-1.2063,-1.2072,-1.2182,-1.2985,-1.3923,-1.4624,-1.5304,-1.477,-1.4234,-1.2985,-1.1105,-1.0021,-0.9505,-0.9429,-0.9585,-0.9686,-0.9734,-0.9919,-0.9926,-0.9819,-0.9819,-0.9819,-0.9819,-0.9819,-0.9819,-0.9883,-0.9964,-1.0066,-1.028,-1.1187,-1.1611,-1.1059,-1.0609,-1.0666,-1.0714,-1.0721,-1.0721,-1.0721,-1.0721,-1.0721,-1.0721,1.3923,1.4622,1.7159,1.8843,1.9622,1.9505,1.8867,1.7585,1.4285,0.9992,0.5171,0.0321,-0.2939,-0.4153,-0.4212,-0.3434,-0.1621,-0.1196,-0.1577,-0.2128,-0.3037,-0.4558,-0.603,-0.7639,-0.9401,-1.1421,-1.4561,-1.7239,-1.9619,-2.0726,-2.188,-2.435,-2.5452,-2.6286,-2.7404,-2.9373,-3.0914,-3.2015,-3.3353,-3.406,-3.4313,-3.5143,-3.5622,-3.5739,-3.5722,-3.5554,-3.4822,-3.3237,-3.0653,-2.6324,-2.1901,-1.7049,-1.351,-1.2117,-1.1323,-1.0948,-1.0595,-1.044,-1.0812,-1.1016,-1.1239,-1.2415,-1.3782,-1.4465,-1.5534,-1.5825,-1.5825,-1.6197,-1.6285,-1.5704,-1.7166,-1.7323,-1.6411,-1.5452,-1.4654,-1.4387,-1.4057,-1.4049,-1.5169,-1.615,-1.563,-1.3475,-1.2832,-1.2082,-1.0449,-0.9792,-0.9364,-0.9379,-0.9526,-0.9737,-0.9788,-0.9819,-0.9819,-0.9819,-0.9819,-0.9819,-0.9819,-0.9819,-0.9825,-0.9917,-1.0022,-1.0236,-1.0659,-1.1117,-1.1323,-1.1016,-1.0687,-1.0714,-1.0721,-1.0721,-1.0721,-1.0721,-1.0717,-1.0585,-1.0585,1.331,1.3606,1.5776,1.7357,1.8394,1.807,1.7677,1.6881,1.4028,1.0859,0.7448,0.2799,0.0394,-0.0524,-0.0783,0.0,0.0663,0.1258,0.0996,0.0218,-0.0987,-0.3084,-0.4812,-0.6207,-0.8808,-1.152,-1.4402,-1.6743,-1.8971,-1.9986,-2.1646,-2.4607,-2.6036,-2.6905,-2.8586,-3.0228,-3.1566,-3.259,-3.3681,-3.4781,-3.5287,-3.5639,-3.5639,-3.5622,-3.565,-3.5694,-3.5215,-3.4281,-3.2353,-2.7399,-2.1763,-1.6106,-1.23,-1.0251,-0.9044,-0.8245,-0.7681,-0.7793,-0.8082,-0.8576,-0.9862,-1.1439,-1.3,-1.4364,-1.5439,-1.5825,-1.5825,-1.5825,-1.592,-1.6466,-1.7933,-1.9047,-1.8141,-1.7501,-1.6813,-1.6246,-1.5756,-1.5399,-1.628,-1.7252,-1.4967,-1.2601,-1.0757,-1.0002,-0.9738,-0.9171,-0.9222,-0.9242,-0.9349,-0.9637,-0.9805,-0.9819,-0.9819,-0.9819,-0.9819,-0.9819,-0.9819,-0.9846,-0.9866,-0.9958,-1.0097,-1.0358,-1.0521,-1.0544,-1.0619,-1.068,-1.07,-1.0717,-1.0721,-1.0721,-1.0721,-1.0717,-1.0449,-1.0449,-1.0449,1.4387,1.5099,1.6733,1.7578,1.7841,1.8232,1.7807,1.6223,1.322,1.0616,0.8455,0.5917,0.344,0.1845,0.184,0.2558,0.3762,0.3758,0.3426,0.2976,-0.0151,-0.2389,-0.4647,-0.7038,-0.9734,-1.2083,-1.4015,-1.5624,-1.7697,-1.8975,-2.0785,-2.3361,-2.4873,-2.6133,-2.7801,-2.954,-3.1213,-3.2392,-3.3779,-3.488,-3.5333,-3.5577,-3.5622,-3.5739,-3.6011,-3.6139,-3.6053,-3.5814,-3.387,-2.9086,-2.1474,-1.4885,-1.0324,-0.76,-0.6084,-0.5688,-0.5114,-0.5712,-0.6106,-0.7588,-0.9461,-1.1643,-1.3204,-1.4561,-1.5439,-1.5825,-1.5825,-1.5737,-1.573,-1.5629,-1.6922,-1.8719,-1.8589,-1.8376,-1.7867,-1.7469,-1.701,-1.6909,-1.7166,-1.5825,-1.3408,-1.0272,-0.6901,-0.674,-0.742,-0.7119,-0.7589,-0.782,-0.8415,-0.9057,-0.9819,-0.9819,-0.9819,-0.9819,-0.9819,-0.9819,-0.9825,-0.9856,-0.9941,-1.009,-1.028,-1.0527,-1.0649,-1.0639,-1.0656,-1.0704,-1.0717,-1.0721,-1.0721,-1.0721,-1.0721,-1.0585,-1.0313,-0.9775,-0.9507]},{"header":{"parameterUnit":"m.s-1","parameterCategory":1,"la1":31.0,"la2":29.5877,"lo1":-88.7671,"lo2":-86.6584,"dy":0.0162,"dx":0.0185,"nx":115,"ny":88,"refTime":"2024-08-15T00:00:00:Z","depth":0,"parameterNumber":3,"parameterNumberName":"V-component_of_WINDS"},"data":[0.0,0.0,0.0,0.0,0.0,0.0,0.0,0.0,0.0,0.0,0.0,0.0,0.0,0.0,0.0,0.0,0.0,0.0,0.0,0.0,0.0,0.0,0.0,0.0,0.0,0.0,0.0,0.0,0.0,0.0,0.0,0.0,0.0,0.0,0.0,0.0,0.0,0.0,0.0,0.0,0.0,0.0,0.0,0.0,0.0,0.0,0.0,0.0,0.0,0.0,0.0,0.0,0.0,0.0,0.0,0.0,0.0,0.0,0.0,0.0,0.0,0.0,0.0,0.0,0.0,0.0,0.0,0.0,0.0,0.0,0.0,0.0,0.0,0.0,0.0,0.0,0.0,0.0,0.0,0.0,0.0,0.0,0.0,0.0,0.0,0.0,0.0,0.0,0.0,0.0,0.0,0.0,0.0,0.0,0.0,0.0,0.0,0.0,0.0,0.0,0.0,0.0,0.0,0.0,0.0,0.0,0.0,0.0,0.0,0.0,0.0,0.0,0.0,0.0,0.0,0.0,0.0,0.0,0.0,0.0,0.0,0.0,0.0,0.0,0.0,0.0,0.0,0.0,0.0,0.0,0.0,0.0,0.0,0.0,0.0,0.0,0.0,0.0,0.0,0.0,0.0,0.0,0.0,0.0,0.0,0.0,0.0,0.0,0.0,0.0,0.0,0.0,0.0,0.0,0.0,0.0,0.0,0.0,0.0,0.0,0.0,0.0,0.0,0.0,0.0,0.0,0.0,0.0,0.0,0.0,0.0,0.0,0.0,0.0,0.0,0.0,0.0,0.0,0.0,0.0,0.0,0.0,0.0,0.0,0.0,0.0,0.0,0.0,0.0,0.0,0.0,0.0,0.0,0.0,0.0,0.0,0.0,0.0,0.0,0.0,0.0,0.0,0.0,0.0,0.0,0.0,0.0,0.0,0.0,0.0,0.0,0.0,0.0,0.0,0.0,0.0,0.0,0.0,0.0,0.0,0.0,0.0,0.0,0.0,0.0,0.0,0.0,0.0,0.0,0.0,0.0,0.0,0.0,0.0,0.0,0.0,0.0,0.0,0.0,0.0,0.0,0.0,0.0,0.0,0.0,0.0,0.0,0.0,0.0,0.0,0.0,0.0,0.0,0.0,0.0,0.0,0.0,0.0,0.0,0.0,0.0,0.0,0.0,0.0,0.0,0.0,0.0,0.0,0.0,0.0,0.0,0.0,0.0,0.0,0.0,0.0,0.0,0.0,0.0,0.0,0.0,0.0,0.0,0.0,0.0,0.0,0.0,0.0,0.0,0.0,0.0,0.0,0.0,0.0,0.0,0.0,0.0,0.0,0.0,0.0,0.0,0.0,0.0,0.0,0.0,0.0,0.0,0.0,0.0,0.0,0.0,0.0,0.0,0.0,0.0,0.0,0.0,0.0,0.0,0.0,0.0,0.0,0.0,0.0,0.0,0.0,0.0,0.0,0.0,0.0,0.0,0.0,0.0,0.0,0.0,0.0,0.0,0.0,0.0,0.0,0.0,0.0,0.0,0.0,0.0,0.0,0.0,0.0,0.0,0.0,0.0,0.0,0.0,0.0,0.0,0.0,0.0,0.0,0.0,0.0,0.0,0.0,0.0,0.0,0.0,0.0,0.0,0.0,0.0,0.0,0.0,0.0,0.0,0.0,0.0,0.0,0.0,0.0,0.0,0.0,0.0,0.0,0.0,0.0,0.0,0.0,0.0,0.0,0.0,0.0,0.0,0.0,0.0,0.0,0.0,0.0,0.0,0.0,0.0,0.0,0.0,0.0,0.0,0.0,0.0,0.0,0.0,0.0,0.0,0.0,0.0,0.0,0.0,0.0,0.0,0.0,0.0,0.0,0.0,0.0,0.0,0.0,0.0,0.0,0.0,0.0,0.0,0.0,0.0,0.0,0.0,0.0,0.0,0.0,0.0,0.0,0.0,0.0,0.0,0.0,0.0,0.0,0.0,0.0,0.0,0.0,0.0,0.0,0.0,0.0,0.0,0.0,0.0,0.0,0.0,0.0,0.0,0.0,0.0,0.0,0.0,0.0,0.0,0.0,0.0,0.0,0.0,0.0,0.0,0.0,0.0,0.0,0.0,0.0,0.0,0.0,0.0,0.0,0.0,0.0,0.0,0.0,0.0,0.0,0.0,0.0,0.0,0.0,0.0,0.0,0.0,0.0,0.0,0.0,0.0,0.0,0.0,0.0,0.0,0.0,0.0,0.0,0.0,0.0,0.0,0.0,0.0,0.0,0.0,0.0,0.0,0.0,0.0,0.0,0.0,0.0,0.0,0.0,0.0,0.0,0.0,0.0,0.0,0.0,0.0,0.0,0.0,0.0,0.0,0.0,0.0,0.0,0.0,0.0,0.0,0.0,0.0,0.0,0.0,0.0,0.0,0.0,0.0,0.0,0.0,0.0,0.0,0.0,0.0,0.0,0.0,0.0,0.0,0.0,0.0,0.0,0.0,0.0,0.0,0.0,0.0,0.0,0.0,0.0,0.0,0.0,0.0,0.0,0.0,0.0,0.0,0.0,0.0,0.0,0.0,0.0,0.0,0.0,0.0,0.0,0.0,0.0,0.0,0.0,0.0,0.0,0.0,0.0,0.0,0.0,0.0,0.0,0.0,0.0,0.0,0.0,0.0,0.0,0.0,0.0,0.0,0.0,0.0,0.0,0.0,0.0,0.0,0.0,0.0,0.0,0.0,0.0,0.0,0.0,0.0,0.0,0.0,0.0,0.0,0.0,0.0,0.0,0.0,0.0,0.0,0.0,0.0,0.0,0.0,0.0,0.0,0.0,0.0,0.0,0.0,0.0,0.0,0.0,0.0,0.0,0.0,0.0,0.0,0.0,0.0,0.0,0.0,0.0,0.0,0.0,0.0,0.0,0.0,0.0,0.0,0.0,0.0,0.0,0.0,0.0,0.0,0.0,0.0,0.0,0.0,0.0,0.0,0.0,0.0,0.0,0.0,0.0,0.0,0.0,0.0,0.0,0.0,0.0,0.0,0.0,0.0,0.0,0.0,0.0,0.0,0.0,0.0,0.0,0.0,0.0,0.0,0.0,0.0,0.0,0.0,0.0,0.0,0.0,0.0,0.0,0.0,0.0,0.0,0.0,0.0,0.0,0.0,0.0,0.0,0.0,0.0,0.0,0.0,0.0,0.0,0.0,0.0,0.0,0.0,0.0,0.0,0.0,0.0,0.0,0.0,0.0,0.0,0.0,0.0,0.0,0.0,0.0,0.0,0.0,0.0,0.0,0.0,0.0,0.0,0.0,0.0,0.0,0.0,0.0,0.0,0.0,0.0,0.0,0.0,0.0,0.0,0.0,0.0,0.0,0.0,0.0,0.0,0.0,0.0,0.0,0.0,0.0,0.0,0.0,0.0,0.0,0.0,0.0,0.0,0.0,0.0,0.0,0.0,0.0,0.0,0.0,0.0,0.0,0.0,0.0,0.0,0.0,0.0,0.0,0.0,0.0,0.0,0.0,0.0,0.0,0.0,0.0,0.0,0.0,0.0,0.0,0.0,0.0,0.0,0.0,0.0,0.0,0.0,0.0,0.0,0.0,0.0,0.0,0.0,0.0,0.0,0.0,0.0,0.0,0.0,0.0,0.0,0.0,0.0,0.0,0.0,0.0,0.0,0.0,0.0,0.0,0.0,0.0,0.0,0.0,0.0,0.0,0.0,0.0,0.0,0.0,0.0,0.0,0.0,0.0,0.0,0.0,0.0,0.0,0.0,0.0,0.0,0.0,0.0,0.0,0.0,0.0,0.0,0.0,0.0,0.0,0.0,0.0,0.0,0.0,0.0,0.0,0.0,0.0,0.0,0.0,0.0,0.0,0.0,0.0,0.0,0.0,0.0,0.0,0.0,0.0,0.0,0.0,0.0,0.0,0.0,0.0,0.0,0.0,0.0,0.0,0.0,0.0,0.0,0.0,0.0,0.0,0.0,0.0,0.0,0.0,0.0,0.0,0.0,0.0,0.0,0.0,0.0,0.0,0.0,0.0,0.0,0.0,0.0,0.0,0.0,0.0,0.0,0.0,0.0,0.0,0.0,0.0,0.0,0.0,0.0,0.0,0.0,0.0,0.0,0.0,0.0,0.0,0.0,0.0,0.0,0.0,0.0,0.0,0.0,0.0,0.0,0.0,0.0,0.0,0.0,0.0,0.0,0.0,0.0,0.0,0.0,0.0,0.0,0.0,0.0,0.0,0.0,0.0,0.0,0.0,0.0,0.0,0.0,0.0,0.0,0.0,0.0,0.0,0.0,0.0,1.0197,0.0,0.0,0.0,0.0,0.0,0.0,0.0,0.0,0.0,0.0,0.0,0.0,0.0,0.0,0.0,0.0,0.0,0.0,0.0,0.0,0.0,0.0,0.0,0.0,0.0,0.0,0.0,0.0,0.0,0.0,0.0,0.0,0.0,0.0,0.0,0.0,0.0,0.0,0.0,0.0,0.0,0.0,0.0,0.0,0.0,0.0,0.0,0.0,0.0,0.0,0.0,0.0,0.0,0.0,0.0,0.0,0.0,0.0,0.0,0.0,0.0,0.0,0.0,0.0,0.0,0.0,0.0,0.0,0.0,0.0,0.0,0.0,0.0,0.0,0.0,0.0,0.0,0.0,0.0,0.0,0.0,0.0,0.0,0.0,0.0,0.0,0.0,0.0,0.0,0.0,0.0,0.0,0.0,0.0,0.0,0.0,0.0,0.0,0.0,0.0,0.0,0.0,0.0,0.0,0.0,0.0,0.0,0.0,0.0,0.0,0.9231,0.9841,1.0055,1.0156,1.0197,0.0,0.0,0.0,0.0,0.0,0.0,0.0,0.0,0.0,0.0,0.0,0.0,0.0,0.0,0.0,0.0,0.0,0.0,0.0,0.0,0.0,0.0,0.0,0.0,0.0,0.0,0.0,0.0,0.0,0.0,0.0,0.0,0.0,0.0,0.0,0.0,0.0,0.0,0.0,0.0,0.0,0.0,0.0,0.0,0.0,0.0,0.0,0.0,0.0,0.0,0.0,0.0,0.0,0.0,0.0,0.0,0.0,0.0,0.0,0.0,0.0,0.0,0.0,0.0,0.0,0.0,0.0,0.0,0.0,0.0,0.0,0.0,0.0,0.0,0.0,0.0,0.0,0.0,0.0,0.0,0.0,0.0,0.0,0.0,0.0,0.0,0.0,0.0,0.0,0.0,0.0,0.0,0.0,0.0,0.0,0.0,0.0,0.0,0.0,0.0,0.0,0.0,0.0,0.0,0.0,0.0,0.0,0.0,0.0,0.0,0.0,0.0,1.0604,1.0742,1.0758,0.0,0.0,0.0,0.0,0.0,0.0,0.0,0.0,0.0,0.0,0.0,0.0,0.0,0.0,0.0,0.0,0.0,0.0,0.0,0.0,0.0,0.0,0.0,0.0,0.0,0.0,0.0,0.0,0.0,0.0,0.0,0.0,0.0,0.0,0.0,0.0,0.0,0.0,0.0,0.0,0.0,0.0,0.0,0.0,0.0,0.0,0.0,0.0,0.0,0.0,0.0,0.0,0.0,0.0,0.0,0.0,0.0,0.0,0.0,0.0,0.0,0.0,0.0,0.0,0.0,0.0,0.0,0.0,0.0,0.0,0.0,0.0,0.0,0.0,0.0,0.0,0.0,0.0,0.0,0.0,0.0,0.0,0.0,0.0,0.0,0.0,0.0,0.0,0.0,0.0,0.0,0.0,0.0,0.0,0.0,0.0,0.0,0.0,0.0,0.0,0.0,0.0,0.0,0.0,0.0,0.0,0.0,0.0,0.0,0.0,0.984,1.1571,1.2108,0.0,1.2458,0.0,0.0,0.0,0.0,0.0,0.0,0.0,0.0,0.0,0.0,0.0,0.0,0.0,0.0,0.0,0.0,0.0,0.0,0.0,0.0,0.0,0.0,0.0,0.0,0.0,0.0,0.0,0.0,0.0,0.0,0.0,0.0,0.0,0.0,0.0,0.0,0.0,0.0,0.0,0.0,0.0,0.0,0.0,0.0,0.0,0.0,0.0,0.0,0.0,0.0,0.0,0.0,0.0,0.0,0.0,0.0,0.0,0.0,0.0,0.0,0.0,0.0,0.0,0.0,0.0,0.0,0.0,0.0,0.0,0.0,0.0,0.0,0.0,0.0,0.0,0.0,0.0,0.0,0.0,0.0,0.0,0.0,0.0,0.0,0.0,0.0,0.0,0.0,0.0,0.0,0.0,0.0,0.0,0.0,0.0,0.0,0.0,0.0,0.0,0.0,0.0,0.0,0.0,0.0,0.0,0.0,0.0,0.0,0.0,0.0,1.4625,1.3947,1.3116,1.2687,0.0,0.0,0.0,0.0,0.0,0.0,0.0,0.0,0.0,0.0,0.0,0.0,0.0,0.0,0.0,0.0,0.0,0.0,0.0,0.0,0.0,0.0,0.0,0.0,0.0,0.0,0.0,0.0,0.0,0.0,0.0,0.0,0.0,0.0,0.0,0.0,0.0,0.0,0.0,0.0,0.0,0.0,0.0,0.0,0.0,0.0,0.0,0.0,0.0,0.0,0.0,0.0,0.0,0.0,0.0,0.0,0.0,0.0,0.0,0.0,0.0,0.0,0.0,0.0,0.0,0.0,0.0,0.0,0.0,0.0,0.0,0.0,0.0,0.0,0.0,0.0,0.0,0.0,0.0,0.0,0.0,0.0,0.0,0.0,0.0,0.0,0.0,0.0,0.0,0.0,0.0,0.0,0.0,0.0,0.0,0.0,0.0,0.0,0.0,0.0,0.0,0.0,0.0,0.0,0.0,0.0,0.0,0.0,0.0,0.0,1.4312,1.6686,1.5396,1.4101,1.319,1.277,0.0,0.0,0.0,0.0,0.0,0.0,0.0,0.0,0.0,0.0,0.0,0.0,0.0,0.0,0.0,0.0,0.0,0.0,0.0,0.0,0.0,0.0,0.0,0.0,0.0,0.0,0.0,0.0,0.0,0.0,0.0,0.0,0.0,0.0,0.0,0.0,0.0,0.0,0.0,0.0,0.0,0.0,0.0,0.0,0.0,0.0,0.0,0.0,0.0,0.0,0.0,0.0,0.0,0.0,0.0,0.0,0.0,0.0,0.0,0.0,0.0,0.0,0.0,0.0,0.0,0.0,0.0,0.0,0.0,0.0,0.0,0.0,0.0,0.0,0.0,0.0,0.0,0.0,0.0,0.0,0.0,0.0,0.0,0.0,0.0,0.0,0.0,0.0,0.0,0.0,0.0,0.0,0.0,0.0,0.0,0.0,0.0,0.0,0.0,0.0,0.0,0.0,0.0,0.0,0.0,0.0,0.0,0.0,1.0127,1.2184,1.3879,1.5282,1.5173,1.4334,0.0,0.0,0.0,0.0,0.0,0.0,0.0,0.0,0.0,0.0,0.0,0.0,0.0,0.0,0.0,0.0,0.0,0.0,0.0,0.0,0.0,0.0,0.0,0.0,0.0,0.0,0.0,0.0,0.0,0.0,0.0,0.0,0.0,0.0,0.0,0.0,0.0,0.0,0.0,0.0,0.0,0.0,0.0,0.0,0.0,0.0,0.0,0.0,0.0,0.0,0.0,0.0,0.0,0.0,0.0,0.0,0.0,0.0,0.0,0.0,0.0,0.0,0.0,0.0,0.0,0.0,0.0,0.0,0.0,0.0,0.0,0.0,0.0,0.0,0.0,0.0,0.0,0.0,0.0,0.0,0.0,0.0,0.0,0.0,0.0,0.0,0.0,0.0,0.0,0.0,0.0,0.0,0.0,0.0,0.0,0.0,0.0,0.0,0.0,0.0,0.0,0.0,0.0,0.0,0.0,0.0,0.0,0.0,0.0,0.9294,1.1904,1.4479,1.6697,1.4786,1.3829,0.0,0.0,0.0,0.0,0.0,0.0,0.0,0.0,0.0,0.0,0.0,0.0,0.0,0.0,0.0,0.0,0.0,0.0,0.0,0.0,0.0,0.0,0.0,0.0,0.0,0.0,0.0,0.0,0.0,0.0,0.0,0.0,0.0,0.0,0.0,0.0,0.0,0.0,0.0,0.0,0.0,0.0,0.0,0.0,0.0,0.0,0.0,0.0,0.0,0.0,0.0,0.0,0.0,0.0,0.0,0.0,0.0,0.0,0.0,0.0,0.0,0.0,0.0,0.0,0.0,0.0,0.0,0.0,0.0,0.0,0.0,0.0,0.0,0.0,0.0,0.0,0.0,0.0,0.0,0.0,0.0,0.0,0.0,0.0,0.0,0.0,0.0,0.0,0.0,0.0,0.0,0.0,0.0,0.0,0.0,0.0,0.0,0.0,0.0,0.0,0.0,0.0,0.0,0.0,0.0,0.0,0.0,0.0,0.0,1.0545,0.0,1.5058,0.0,1.4743,1.3532,0.0,0.0,0.0,0.0,0.0,0.0,0.0,0.0,0.0,0.0,0.0,0.0,0.0,0.0,0.0,0.0,0.0,0.0,0.0,0.0,0.0,0.0,0.0,0.0,0.0,0.0,0.0,0.0,0.0,0.0,0.0,0.0,0.0,0.0,0.0,0.0,0.0,0.0,0.0,0.0,0.0,0.0,0.0,0.0,0.0,0.0,0.0,0.0,0.0,0.0,0.0,0.0,0.0,0.0,0.0,0.0,0.0,0.0,0.0,0.0,0.0,0.0,0.0,0.0,0.0,0.0,0.0,0.0,0.0,0.0,0.0,0.0,0.0,0.0,0.0,0.0,0.0,0.0,0.0,0.0,0.0,0.0,0.0,0.0,0.0,0.0,0.0,0.0,0.0,0.0,0.0,0.0,0.0,0.0,0.0,0.0,0.0,0.0,0.0,0.0,0.0,0.0,0.0,0.0,0.0,0.0,0.0,0.0,1.0338,1.4272,1.4919,1.5268,1.5346,1.5148,1.3533,0.0,0.0,0.0,0.0,0.0,0.0,0.0,0.0,0.0,0.0,0.0,0.0,0.0,0.0,0.0,0.0,0.0,0.0,0.0,0.0,0.0,0.0,0.0,0.0,0.0,0.0,0.0,0.0,0.0,0.0,0.0,0.0,0.0,0.0,0.0,0.0,0.0,0.0,0.0,0.0,0.0,0.0,0.0,0.0,0.0,0.0,0.0,0.0,0.0,0.0,0.0,0.0,0.0,0.0,0.0,0.0,0.0,0.0,0.0,0.0,0.0,0.0,0.0,0.0,0.0,0.0,0.0,0.0,0.0,0.0,0.0,0.0,0.0,0.0,0.0,0.0,0.0,0.0,0.0,0.0,0.0,0.0,0.0,0.0,0.0,0.0,0.0,0.0,0.0,0.0,0.0,0.0,0.0,0.0,0.0,0.0,0.0,0.0,0.0,0.0,0.0,0.0,0.0,0.0,0.0,0.0,0.0,0.0,0.0,1.2113,1.3571,1.5121,1.665,1.4015,1.3043,0.0,0.0,0.0,0.0,0.0,0.0,0.0,0.0,0.0,0.0,0.0,0.0,0.0,0.0,0.0,0.0,0.0,0.0,0.0,0.0,0.0,0.0,0.0,0.0,0.0,0.0,0.0,0.0,0.0,0.0,0.0,0.0,0.0,0.0,0.0,0.0,0.0,0.0,0.0,0.0,0.0,0.0,0.0,0.0,0.0,0.0,0.0,0.0,0.0,0.0,0.0,0.0,0.0,0.0,0.0,0.0,0.0,0.0,0.0,0.0,0.0,0.0,0.0,0.0,0.0,0.0,0.0,0.0,0.0,0.0,0.0,0.0,0.0,0.0,0.0,0.0,0.0,0.0,0.0,0.0,0.0,0.0,0.0,0.0,0.0,0.0,0.0,0.0,0.0,0.0,0.0,0.0,0.0,0.0,0.0,0.0,0.0,0.0,0.0,0.0,0.0,0.0,0.0,0.0,0.0,0.0,0.0,0.0,0.0,1.3003,1.5357,1.6891,1.7415,1.4912,1.3899,1.4541,0.0,0.0,0.0,0.0,0.0,0.0,0.0,0.0,0.0,0.0,0.0,0.0,0.0,0.0,0.0,0.0,0.0,0.0,0.0,0.0,0.0,0.0,0.0,0.0,0.0,0.0,0.0,0.0,0.0,0.0,0.0,0.0,0.0,0.0,0.0,0.0,0.0,0.0,0.0,0.0,0.0,0.0,0.0,0.0,0.0,0.0,0.0,0.0,0.0,0.0,0.0,0.0,0.0,0.0,0.0,0.0,0.0,0.0,0.0,0.0,0.0,0.0,0.0,0.0,0.0,0.0,0.0,0.0,0.0,0.0,0.0,0.0,0.0,0.0,0.0,0.0,0.0,0.0,0.0,0.0,0.0,0.0,0.0,0.0,0.0,0.0,0.0,0.0,0.0,0.0,0.0,0.0,0.0,0.0,0.0,0.0,0.0,0.0,0.0,0.0,0.0,0.0,0.0,0.0,0.0,0.0,0.0,0.0,1.6211,1.9613,2.0096,1.7603,1.733,1.5772,0.0,0.0,0.0,0.0,0.0,0.0,0.0,0.0,0.0,0.0,0.0,0.0,0.0,0.0,0.0,0.0,0.0,0.0,0.0,0.0,0.0,0.0,0.0,0.0,0.0,0.0,0.0,0.0,0.0,0.0,0.0,0.0,0.0,0.0,0.0,0.0,0.0,0.0,0.0,0.0,0.0,0.0,0.0,0.0,0.0,0.0,0.0,0.0,0.0,0.0,0.0,0.0,0.0,0.0,0.0,0.0,0.0,0.0,0.0,0.0,0.0,0.0,0.0,0.0,0.0,0.0,0.0,0.0,0.0,0.0,0.0,0.0,0.0,0.0,0.0,0.0,0.0,0.0,0.0,0.0,0.0,0.0,0.0,0.0,0.0,0.0,0.0,0.0,0.0,0.0,0.0,0.0,0.0,0.0,0.0,0.0,0.0,0.0,0.0,0.0,0.0,0.0,0.0,0.0,0.0,0.0,0.0,0.0,0.0,1.7902,2.0935,2.1699,1.9843,1.7527,1.5815,0.0,0.0,0.0,0.0,0.0,0.0,0.0,0.0,0.0,0.0,0.0,0.0,0.0,0.0,0.0,0.0,0.0,0.0,0.0,0.0,0.0,0.0,0.0,0.0,0.0,0.0,0.0,0.0,0.0,0.0,0.0,0.0,0.0,0.0,0.0,0.0,0.0,0.0,0.0,0.0,0.0,0.0,0.0,0.0,0.0,0.0,0.0,0.0,0.0,0.0,0.0,0.0,0.0,0.0,0.0,0.0,0.0,0.0,0.0,0.0,0.0,0.0,0.0,0.0,0.0,0.0,0.0,0.0,0.0,0.0,0.0,0.0,0.0,0.0,0.0,0.0,0.0,0.0,0.0,0.0,0.0,0.0,0.0,0.0,0.0,0.0,0.0,0.0,0.0,0.0,0.0,0.0,0.0,0.0,0.0,0.0,0.0,0.0,0.0,0.0,0.0,0.0,0.0,0.0,0.0,0.0,0.0,0.0,1.7081,1.9071,2.1498,2.2594,2.2191,1.9754,1.7738,0.0,0.0,0.0,0.0,0.0,0.0,0.0,0.0,0.0,0.0,0.0,0.0,0.0,0.0,0.0,0.0,0.0,0.0,0.0,0.0,0.0,0.0,0.0,0.0,0.0,0.0,0.0,0.0,0.0,0.0,0.0,0.0,0.0,0.0,0.0,0.0,0.0,0.0,0.0,0.0,0.0,0.0,0.0,0.0,0.0,0.0,0.0,0.0,0.0,0.0,0.0,0.0,0.0,0.0,0.0,0.0,0.0,0.0,0.0,0.0,0.0,0.0,0.0,0.0,0.0,0.0,0.0,0.0,0.0,0.0,0.0,0.0,0.0,0.0,0.0,0.0,0.0,0.0,0.0,0.0,0.0,0.0,0.0,0.0,0.0,0.0,0.0,0.0,0.0,0.0,0.0,0.0,0.0,0.0,0.0,0.0,0.0,0.0,0.0,0.0,0.0,0.0,0.0,0.0,0.0,0.0,0.0,0.0,1.7876,2.0047,2.1746,2.3057,2.397,2.2606,2.0341,0.0,0.0,0.0,0.0,0.0,0.0,0.0,0.0,0.0,0.0,0.0,0.0,0.0,0.0,0.0,0.0,0.0,0.0,0.0,0.0,0.0,0.0,0.0,0.0,0.0,0.0,0.0,0.0,0.0,0.0,0.0,0.0,0.0,0.0,0.0,0.0,0.0,0.0,0.0,0.0,0.0,0.0,0.0,0.0,0.0,0.0,0.0,0.0,0.0,0.0,0.0,0.0,0.0,0.0,0.0,0.0,0.0,0.0,0.0,0.0,0.0,0.0,0.0,0.0,0.0,0.0,0.0,0.0,0.0,0.0,0.0,0.0,0.0,0.0,0.0,0.0,0.0,0.0,0.0,0.0,0.0,0.0,0.0,0.0,0.0,0.0,0.0,0.0,0.0,0.0,0.0,0.0,0.0,0.0,0.0,0.0,0.0,0.0,0.0,0.0,0.0,0.0,0.0,0.0,0.0,0.0,0.0,0.0,1.7994,2.1159,2.2557,2.3243,2.3182,2.203,2.0054,0.0,0.0,0.0,0.0,0.0,0.0,0.0,0.0,0.0,0.0,0.0,0.0,0.0,0.0,0.0,0.0,0.0,0.0,0.0,0.0,0.0,0.0,0.0,0.0,0.0,0.0,0.0,0.0,0.0,0.0,0.0,0.0,0.0,0.0,0.0,0.0,0.0,0.0,0.0,0.0,0.0,0.0,0.0,0.0,0.0,0.0,0.0,0.0,1.9909,0.0,0.0,0.0,0.0,0.0,0.0,0.0,0.0,0.0,0.0,0.0,0.0,0.0,0.0,0.0,0.0,0.0,0.0,0.0,0.0,0.0,0.0,0.0,0.0,0.0,0.0,0.0,0.0,0.0,0.0,0.0,0.0,0.0,0.0,0.0,0.0,0.0,0.0,0.0,0.0,0.0,0.0,0.0,0.0,0.0,0.0,0.0,0.0,0.0,0.0,0.0,0.0,0.0,0.0,0.0,0.0,0.0,0.0,0.0,1.9251,2.1805,2.2764,2.3029,2.2617,2.2362,2.0858,0.0,0.0,0.0,0.0,0.0,0.0,0.0,0.0,0.0,0.0,0.0,0.0,0.0,0.0,0.0,0.0,0.0,0.0,0.0,0.0,0.0,0.0,0.0,0.0,0.0,0.0,0.0,0.0,0.0,0.0,0.0,0.0,0.0,0.0,0.0,0.0,0.0,0.0,0.0,0.0,0.0,0.0,0.0,0.0,0.0,0.0,0.0,0.0,0.0,0.0,0.0,0.0,0.0,0.0,0.0,0.0,0.0,0.0,0.0,0.0,0.0,0.0,0.0,0.0,0.0,0.0,0.0,0.0,0.0,0.0,0.0,0.0,0.0,0.0,0.0,0.0,0.0,0.0,0.0,0.0,0.0,0.0,0.0,0.0,0.0,0.0,0.0,0.0,0.0,0.0,0.0,0.0,0.0,0.0,0.0,0.0,0.0,0.0,0.0,0.0,0.0,0.0,0.0,0.0,0.0,0.0,0.0,1.859,2.0719,2.2366,2.2498,2.2453,2.23,2.2761,2.1746,1.9016,0.0,0.0,0.0,0.0,0.0,0.0,0.0,0.0,0.0,0.0,0.0,0.0,0.0,0.0,0.0,0.0,0.0,0.0,0.0,0.0,0.0,0.0,0.0,0.0,0.0,0.0,0.0,0.0,0.0,0.0,0.0,0.0,0.0,0.0,0.0,0.0,0.0,0.0,1.8277,2.0522,0.0,0.0,0.0,0.0,0.0,0.0,0.0,0.0,2.2288,0.0,0.0,0.0,0.0,0.0,0.0,0.0,0.0,0.0,0.0,0.0,0.0,0.0,0.0,0.0,0.0,0.0,0.0,0.0,0.0,0.0,0.0,0.0,0.0,0.0,0.0,0.0,0.0,0.0,0.0,0.0,0.0,0.0,0.0,0.0,0.0,0.0,0.0,0.0,0.0,0.0,0.0,0.0,0.0,0.0,0.0,0.0,0.0,0.0,0.0,0.0,0.0,0.0,0.0,0.0,0.0,1.8284,1.9273,2.097,2.3435,2.1854,2.14,2.2245,2.2298,2.1093,1.8633,0.0,0.0,0.0,0.0,0.0,0.0,0.0,0.0,0.0,0.0,0.0,0.0,0.0,0.0,0.0,0.0,0.0,0.0,0.0,0.0,0.0,0.0,0.0,0.0,0.0,0.0,0.0,0.0,0.0,0.0,0.0,0.0,0.0,0.0,0.0,0.0,0.0,0.0,0.0,2.2611,2.385,0.0,0.0,0.0,0.0,0.0,0.0,0.0,0.0,2.3491,0.0,0.0,0.0,0.0,0.0,0.0,0.0,0.0,0.0,0.0,0.0,0.0,0.0,0.0,0.0,0.0,0.0,0.0,0.0,0.0,0.0,0.0,0.0,0.0,0.0,0.0,0.0,0.0,0.0,0.0,0.0,0.0,0.0,0.0,0.0,0.0,0.0,0.0,0.0,0.0,0.0,0.0,0.0,0.0,0.0,0.0,0.0,0.0,0.0,0.0,0.0,0.0,0.0,0.0,0.0,1.7141,1.9198,2.1055,2.2709,2.1384,2.0951,2.1582,2.1178,2.0157,0.0,0.0,0.0,0.0,0.0,0.0,0.0,0.0,0.0,0.0,0.0,0.0,0.0,0.0,0.0,0.0,0.0,0.0,0.0,0.0,0.0,0.0,0.0,0.0,0.0,0.0,0.0,0.0,0.0,0.0,0.0,0.0,0.0,0.0,0.0,0.0,0.0,0.0,0.0,0.0,2.374,2.4826,2.4839,0.0,0.0,0.0,0.0,0.0,0.0,2.4491,2.4459,0.0,0.0,0.0,0.0,0.0,0.0,0.0,0.0,0.0,0.0,0.0,0.0,0.0,0.0,0.0,0.0,0.0,0.0,0.0,0.0,0.0,0.0,0.0,0.0,0.0,0.0,0.0,0.0,0.0,0.0,0.0,0.0,0.0,0.0,0.0,0.0,0.0,0.0,0.0,0.0,0.0,0.0,0.0,0.0,0.0,0.0,0.0,0.0,0.0,0.0,0.0,0.0,0.0,0.0,0.0,1.5479,1.8185,2.029,2.1609,2.0766,2.0495,2.0965,2.0345,1.942,0.0,0.0,0.0,0.0,0.0,0.0,0.0,0.0,0.0,0.0,0.0,0.0,0.0,0.0,0.0,0.0,0.0,0.0,0.0,0.0,0.0,0.0,0.0,0.0,0.0,0.0,0.0,0.0,0.0,0.0,0.0,0.0,0.0,0.0,0.0,0.0,0.0,0.0,0.0,0.0,0.0,2.5654,2.565,2.5699,0.0,0.0,0.0,0.0,2.5111,2.5905,0.0,0.0,0.0,0.0,0.0,0.0,0.0,0.0,0.0,0.0,0.0,0.0,0.0,0.0,0.0,0.0,0.0,0.0,0.0,0.0,0.0,0.0,0.0,0.0,0.0,0.0,0.0,0.0,0.0,0.0,0.0,0.0,0.0,0.0,0.0,0.0,0.0,0.0,0.0,0.0,0.0,0.0,0.0,0.0,0.0,0.0,0.0,0.0,0.0,0.0,0.0,0.0,0.0,0.0,0.0,0.0,1.4557,1.5428,1.7576,2.0841,1.9803,1.9713,2.0943,2.0505,1.9353,0.0,0.0,0.0,0.0,0.0,0.0,0.0,0.0,0.0,0.0,0.0,0.0,0.0,0.0,0.0,0.0,0.0,0.0,0.0,0.0,0.0,0.0,0.0,0.0,0.0,0.0,0.0,0.0,0.0,0.0,0.0,0.0,0.0,0.0,0.0,0.0,0.0,0.0,0.0,0.0,0.0,2.6487,2.6544,2.6548,2.68,0.0,0.0,2.7981,2.866,2.9469,0.0,0.0,0.0,0.0,0.0,0.0,0.0,0.0,0.0,0.0,0.0,0.0,0.0,0.0,0.0,0.0,0.0,0.0,0.0,0.0,0.0,0.0,0.0,0.0,0.0,0.0,0.0,0.0,0.0,0.0,0.0,0.0,0.0,0.0,0.0,0.0,0.0,0.0,0.0,0.0,0.0,0.0,0.0,0.0,0.0,0.0,0.0,0.0,0.0,0.0,0.0,0.0,0.0,0.0,0.0,1.2875,1.4532,1.5619,1.7214,1.9236,1.8741,1.9037,2.0212,1.9135,1.8027,0.0,0.0,0.0,0.0,0.0,0.0,0.0,0.0,0.0,0.0,0.0,0.0,0.0,0.0,0.0,0.0,0.0,0.0,0.0,0.0,0.0,0.0,0.0,0.0,0.0,0.0,0.0,0.0,0.0,0.0,0.0,0.0,0.0,0.0,0.0,0.0,0.0,0.0,0.0,0.0,0.0,0.0,2.7441,2.8193,0.0,0.0,0.0,2.9516,2.9939,0.0,0.0,0.0,0.0,0.0,0.0,0.0,0.0,0.0,0.0,0.0,0.0,0.0,0.0,0.0,0.0,0.0,0.0,0.0,0.0,0.0,0.0,0.0,0.0,0.0,0.0,0.0,0.0,0.0,0.0,0.0,0.0,0.0,0.0,0.0,0.0,0.0,0.0,0.0,0.0,0.0,0.0,0.0,0.0,0.0,0.0,0.0,0.0,0.0,0.0,0.0,0.0,0.0,0.0,0.0,0.0,0.0,1.4332,1.5871,1.7014,1.7644,1.7848,1.8335,1.9233,1.8161,0.0,0.0,0.0,0.0,0.0,0.0,0.0,0.0,0.0,0.0,0.0,0.0,0.0,0.0,0.0,0.0,0.0,0.0,0.0,0.0,0.0,0.0,0.0,0.0,0.0,0.0,0.0,1.0521,0.0,0.0,0.0,0.0,0.0,0.0,0.0,0.0,0.0,0.0,0.0,0.0,0.0,0.0,2.8937,2.8468,2.974,3.0564,0.0,0.0,3.1053,3.112,3.1538,3.1087,0.0,0.0,0.0,0.0,0.0,0.0,0.0,0.0,0.0,0.0,0.0,0.0,0.0,0.0,0.0,0.0,0.0,0.0,0.0,0.0,0.0,0.0,0.0,0.0,0.0,0.0,0.0,0.0,0.0,0.0,0.0,0.0,0.0,0.0,0.0,0.0,0.0,0.0,0.0,0.0,0.0,0.0,0.0,0.0,0.0,0.0,0.0,0.0,0.0,0.0,0.0,0.0,0.0,0.0,1.3067,1.361,1.5286,1.6312,1.6639,1.7089,1.7622,1.818,1.8468,1.7617,0.0,0.0,0.0,0.0,0.0,0.0,0.0,0.0,0.0,0.0,0.0,0.0,0.0,0.0,0.0,0.0,0.0,0.0,0.0,0.0,0.0,0.0,0.0,0.0,0.0,0.0,0.0,0.0,0.0,0.0,0.0,0.0,0.0,0.0,0.0,0.0,0.0,0.0,0.0,0.0,0.0,2.9294,2.9794,3.0868,3.1852,0.0,3.2679,3.2748,3.2822,3.4187,3.3886,2.9887,0.0,0.0,0.0,0.0,0.0,0.0,0.0,0.0,0.0,0.0,0.0,0.0,0.0,0.0,0.0,0.0,0.0,0.0,0.0,0.0,0.0,0.0,0.0,0.0,0.0,0.0,0.0,0.0,0.0,0.0,0.0,0.0,0.0,0.0,0.0,0.0,0.0,0.0,0.0,0.0,0.0,0.0,0.0,0.0,0.0,0.0,0.0,0.0,0.0,0.0,0.0,0.0,0.0,1.3458,1.4132,1.5978,1.7149,1.7487,1.737,1.7558,1.8082,1.8155,1.7465,0.0,0.0,0.0,0.0,0.0,0.0,0.0,0.0,0.0,0.0,0.0,0.0,0.0,0.0,0.0,0.0,0.0,0.0,0.0,0.0,0.0,0.0,0.0,0.0,0.0,0.0,0.0,0.0,1.3313,1.4068,1.5301,0.0,0.0,0.0,0.0,0.0,0.0,0.0,0.0,0.0,0.0,3.0906,3.1459,3.2502,0.0,0.0,3.416,3.452,3.4545,3.4685,3.3897,3.128,3.027,0.0,0.0,0.0,0.0,0.0,0.0,0.0,0.0,0.0,0.0,0.0,0.0,0.0,0.0,0.0,0.0,0.0,0.0,0.0,0.0,0.0,0.0,0.0,0.0,0.0,0.0,0.0,0.0,0.0,0.0,0.0,0.0,0.0,0.0,0.0,0.0,0.0,0.0,0.0,0.0,0.0,0.0,0.0,0.0,0.0,0.0,0.0,0.0,0.0,0.0,0.0,0.0,1.4007,1.5092,1.6874,1.806,1.8569,1.8039,1.7985,1.8474,1.856,1.8029,0.0,0.0,0.0,0.0,0.0,0.0,0.0,0.0,0.0,0.0,0.0,0.0,0.0,0.0,0.0,0.0,0.0,0.0,0.0,0.0,0.0,0.0,0.0,0.0,0.0,0.0,0.0,0.0,1.4725,1.5319,1.5335,0.0,0.0,0.0,0.0,0.0,0.0,0.0,0.0,0.0,0.0,3.2269,3.281,3.3858,3.4661,3.4891,3.5257,3.557,3.5815,3.5393,3.4372,3.2441,0.0,0.0,0.0,0.0,0.0,0.0,0.0,0.0,0.0,0.0,0.0,0.0,0.0,0.0,0.0,0.0,0.0,0.0,0.0,0.0,0.0,0.0,0.0,0.0,0.0,0.0,0.0,0.7209,0.0,0.0,0.7441,0.0,0.0,0.0,0.0,0.0,0.0,0.0,0.0,0.0,0.0,0.0,0.0,0.0,0.0,0.0,0.0,0.0,0.0,0.0,0.0,0.0,0.0,1.4669,1.6421,1.7825,1.889,1.9626,1.9082,1.9023,1.94,1.9887,1.9533,1.8178,0.0,0.0,0.0,0.0,0.0,0.0,0.0,0.0,0.0,0.0,0.0,0.0,0.0,0.0,0.0,0.0,0.0,0.0,0.0,0.0,0.0,0.0,0.0,0.0,0.0,0.0,1.3756,1.5193,1.5666,0.0,0.0,0.0,0.0,0.0,0.0,0.0,0.0,0.0,2.8733,3.1181,3.3094,3.3719,3.474,3.5724,3.6526,3.6045,3.5801,3.6565,3.6647,3.5801,0.0,0.0,0.0,0.0,0.0,0.0,0.0,0.0,0.0,0.0,0.0,0.0,0.0,0.0,0.0,0.0,0.0,0.0,0.0,0.0,0.0,0.0,0.0,0.0,0.0,0.0,0.0,0.8458,0.8081,0.0,0.0,0.0,0.0,0.0,0.0,0.0,0.0,0.0,0.0,0.0,1.3648,1.5098,0.0,0.0,0.0,0.0,0.0,0.0,0.0,0.0,0.0,0.0,0.0,0.0,1.5858,1.7217,1.9588,2.0746,2.0573,2.0534,2.0698,2.1053,2.0976,2.0223,1.8705,0.0,0.0,0.0,0.0,0.0,0.0,0.0,0.0,0.0,0.0,0.0,0.0,0.0,0.0,0.0,0.0,0.0,0.0,0.0,0.0,0.0,0.0,0.0,0.0,0.0,1.3453,0.0,0.0,0.0,0.0,0.0,0.0,0.0,0.0,0.0,0.0,0.0,2.909,3.103,3.2569,3.3964,3.5272,3.5763,3.6396,0.0,0.0,0.0,0.0,0.0,0.0,0.0,0.0,0.0,0.0,0.0,0.0,0.0,0.0,3.9676,3.5591,3.3779,3.3114,3.3821,0.0,0.0,0.0,0.0,0.0,0.0,0.0,0.0,0.0,0.0,0.0,0.0,0.0,0.0,0.9491,0.929,0.8815,0.0,0.0,0.0,0.0,0.0,0.0,0.0,0.0,1.503,1.635,1.611,1.7643,1.7813,1.6721,1.6487,1.4536,0.0,0.0,0.0,0.0,0.0,0.0,0.0,0.0,1.7219,1.8711,2.0953,2.2081,2.1995,2.2159,2.2471,2.2859,2.2324,2.1455,2.0262,1.9573,1.8037,0.0,0.0,0.0,0.0,0.0,0.0,0.0,0.0,0.0,0.0,0.0,0.0,0.0,0.0,0.0,0.0,0.0,0.0,0.0,0.0,0.0,0.0,0.0,1.5124,0.0,0.0,0.0,0.0,0.0,0.0,0.0,0.0,0.0,3.1569,3.1276,3.161,3.3786,3.4584,3.5457,3.6806,0.0,0.0,0.0,0.0,0.0,0.0,0.0,3.8569,3.8834,3.8469,3.8315,3.8777,4.0489,4.1816,4.1816,0.0,0.0,3.9076,3.8028,3.7931,3.823,3.8653,3.8711,3.7919,3.8816,3.9469,0.0,0.0,0.0,0.0,1.0263,0.0,0.0,0.0,1.0029,1.0303,0.0,1.0741,0.0,0.0,0.0,0.0,0.8888,1.2397,0.0,0.0,1.774,1.8979,1.8205,1.912,1.9171,1.8531,1.906,1.8115,1.5839,1.4106,0.0,0.0,0.0,0.0,0.0,0.0,1.8783,2.0889,2.2,2.2943,2.3811,2.3893,2.4192,2.4709,2.3879,2.3195,2.2724,2.2059,2.0605,1.8106,1.6311,0.0,0.0,0.0,0.0,0.0,0.0,0.0,0.0,0.0,0.0,0.0,0.0,0.0,0.0,0.0,0.0,0.0,0.0,0.0,0.0,1.6113,0.0,0.0,0.0,0.0,0.0,0.0,0.0,0.0,0.0,3.1819,3.4451,3.4201,3.4645,3.6688,0.0,0.0,0.0,0.0,3.7777,3.9364,3.9204,3.949,4.1074,4.155,4.1476,4.0758,0.0,0.0,4.095,4.2681,4.3778,4.2258,4.397,4.5586,4.543,4.3313,4.2563,4.4603,4.2678,4.1123,4.1777,4.2547,4.3124,1.388,0.0,0.0,0.0,0.0,1.0835,1.1126,1.2105,1.2154,1.2055,1.184,1.2164,0.0,0.0,0.0,0.0,0.0,0.0,1.538,1.6921,1.8802,1.9867,2.0281,2.0771,2.0736,2.0242,1.9687,1.9059,1.8362,1.7971,1.6065,1.284,0.0,0.0,0.0,0.0,2.1144,2.2391,2.3849,2.4737,2.4995,2.4859,2.4777,2.482,2.445,2.4036,2.3562,2.337,2.2447,2.0684,1.9493,0.0,0.0,0.0,0.0,0.0,0.0,0.0,0.0,0.0,0.0,0.0,0.0,0.0,0.0,0.0,0.0,0.0,0.0,0.0,1.6019,1.7021,1.8064,0.0,0.0,0.0,0.0,0.0,0.0,0.0,0.0,0.0,3.8598,3.6878,3.5681,0.0,0.0,3.8028,3.9016,3.9277,3.9825,4.1086,4.1377,0.0,4.2081,4.1953,4.2134,4.3066,4.4143,4.4701,4.422,4.4759,4.5066,4.4547,4.5086,4.5586,4.5547,4.5047,4.4528,4.4412,4.4182,4.4393,4.5259,4.5663,4.5951,1.5287,1.4001,1.2329,1.2154,1.288,1.2218,1.249,1.3413,1.3721,1.3595,1.3347,1.4026,1.4034,1.3583,1.462,0.0,0.0,0.0,1.7468,1.9143,2.0344,2.1215,2.178,2.1955,2.1845,2.1395,2.0653,2.0273,2.0241,2.0729,1.9277,1.612,0.0,1.8576,1.8424,2.0952,2.2694,2.3574,2.4857,2.5565,2.5571,2.5197,2.4905,2.4682,2.4685,2.4528,2.419,2.4225,2.3754,2.26,2.1403,1.9663,0.0,0.0,0.0,0.0,0.0,0.0,0.0,0.0,0.0,0.0,0.0,1.3357,1.1553,0.0,0.0,0.0,1.3603,1.6512,1.8051,1.9527,0.0,0.0,0.0,0.0,0.0,0.0,0.0,3.0165,3.2742,3.5846,3.9601,3.9016,3.8454,3.9069,3.9166,3.9499,4.0486,0.0,4.0974,4.1959,4.2511,4.2929,4.3132,4.3251,4.3649,4.4643,4.524,4.5566,4.5586,4.5586,4.5586,4.5586,4.5586,4.5586,4.5586,4.5855,4.6047,4.5663,4.5975,4.657,4.7242,4.7375,4.7528,1.5384,1.5325,1.3841,1.3497,1.3982,1.3982,1.3982,1.4034,1.4636,1.4866,1.494,1.5949,1.6479,1.6766,1.8847,0.0,1.6848,1.875,2.001,2.0799,2.2124,2.2721,2.2695,2.2695,2.2521,2.2107,2.1799,2.1648,2.1652,2.2464,2.2219,2.0891,2.1118,2.1365,2.1686,2.2722,2.3669,2.4472,2.5199,2.557,2.5597,2.5,2.4588,2.4441,2.457,2.4606,2.4509,2.4623,2.4451,2.3883,2.2319,2.1151,2.0463,0.0,0.0,0.0,0.0,0.0,0.0,0.0,0.0,0.0,0.0,0.0,0.0,0.0,0.0,0.0,1.6865,0.0,2.0898,2.3083,0.0,0.0,0.0,2.7475,2.8049,3.0209,3.1671,3.1733,0.0,0.0,3.8702,4.0675,4.2011,4.2341,4.1717,4.1479,4.2213,4.1717,4.157,4.232,4.2971,4.3601,4.4046,4.4821,4.5393,4.549,4.5586,4.5586,4.5586,4.5586,4.5586,4.574,4.572,4.574,4.572,4.6472,4.7261,4.8087,4.7851,4.7649,4.8107,4.8221,4.8279,1.4891,1.425,1.4272,1.415,1.3865,1.3855,1.3855,1.3889,1.4484,1.4996,1.5409,1.5702,1.6501,1.7843,1.9818,2.0395,1.9957,2.0983,2.1607,2.1939,2.2702,2.2947,2.2695,2.2695,2.2635,2.2488,2.2297,2.2352,2.2584,2.2941,2.3133,2.312,2.3186,2.2853,2.2242,2.3938,2.4951,2.5162,2.5264,2.5097,2.4694,2.3968,2.3626,2.3739,2.3629,2.3632,2.3762,2.3784,2.3819,2.386,2.249,2.1958,2.2452,1.8184,0.0,0.0,0.0,0.0,0.0,0.0,0.0,0.0,0.0,1.8228,1.4248,0.0,1.94,0.0,2.0834,2.5642,2.3625,2.5132,0.0,0.0,2.9608,3.0232,3.2246,3.2268,3.2369,3.2904,3.4817,3.7363,4.0649,4.1542,4.2213,4.3057,4.2506,4.2084,4.2268,4.269,4.2983,4.322,4.3784,4.4258,4.425,4.4992,4.5586,4.5586,4.5586,4.5586,4.5586,4.5586,4.5817,4.6432,4.6586,4.6663,4.6855,4.7429,4.8398,4.9624,4.8952,4.8202,4.8914,4.9086,4.9279,1.4971,1.419,1.4283,1.3967,1.343,1.3967,1.405,1.3862,1.4433,1.4744,1.4846,1.5632,1.7193,1.9246,2.0472,2.1108,2.1323,2.1857,2.2241,2.25,2.3135,2.3323,2.3141,2.3229,2.3262,2.3213,2.3091,2.3162,2.3371,2.3275,2.3322,2.3535,2.3369,2.3053,2.2654,2.4199,2.4995,2.4995,2.5043,2.472,2.3982,2.2831,2.2494,2.3064,2.2807,2.2648,2.2775,2.2529,2.2473,2.264,2.1357,2.1292,2.2623,1.904,1.6137,0.0,0.0,0.0,0.0,0.0,0.0,0.0,0.0,0.0,0.0,0.0,2.4973,2.2179,2.6418,2.9047,2.843,2.9346,3.0466,3.1634,3.2166,3.2866,3.388,3.385,3.394,3.4329,3.6025,3.8178,4.0676,4.1667,4.2359,4.3051,4.2955,4.2837,4.2855,4.324,4.3479,4.3497,4.4007,4.4443,4.4477,4.4868,4.5142,4.5161,4.5161,4.5201,4.5361,4.5668,4.6148,4.6742,4.7201,4.7567,4.7971,4.8316,4.9037,5.0124,4.9933,4.951,4.9856,4.9971,5.0164,1.5219,1.4652,1.4143,1.3552,1.3113,1.4154,1.4283,1.3826,1.4376,1.4329,1.4029,1.5734,1.794,2.0354,2.0933,2.136,2.1672,2.204,2.2424,2.2797,2.3464,2.378,2.3759,2.3948,2.4063,2.4099,2.393,2.3927,2.4029,2.3449,2.3116,2.2992,2.2539,2.2439,2.2746,2.3655,2.4176,2.4301,2.4479,2.4136,2.3263,2.175,2.1376,2.2209,2.1883,2.1652,2.1561,2.1078,2.0846,2.0925,1.9732,1.9898,2.1701,1.9226,1.8444,0.0,1.8266,0.0,0.0,0.0,0.0,0.0,0.0,0.0,0.0,2.5112,2.8867,3.2625,3.184,3.1738,3.3263,3.3711,3.3688,3.3138,3.4415,3.515,3.4658,3.5266,3.5808,3.5893,3.7499,3.902,4.0263,4.1534,4.2408,4.2808,4.3213,4.3406,4.3461,4.3461,4.3479,4.3479,4.3826,4.4235,4.4655,4.4595,4.4501,4.4553,4.4631,4.472,4.5175,4.5776,4.6418,4.7069,4.7742,4.8375,4.9086,4.9221,4.9567,5.051,5.0508,5.0429,5.0586,5.0606,5.0683,1.5231,1.4698,1.456,1.419,1.3637,1.3862,1.392,1.3815,1.392,1.419,1.4641,1.5929,1.7476,1.9258,2.1169,2.2028,2.2057,2.2669,2.3045,2.3124,2.3964,2.4192,2.3968,2.4153,2.4382,2.4612,2.4341,2.4258,2.4317,2.3393,2.2813,2.2517,2.1681,2.1431,2.1752,0.0,0.0,0.0,2.2984,2.2558,2.186,2.1093,2.0652,2.0671,2.0574,0.0,1.9882,1.9759,1.9716,1.969,1.9123,0.0,0.0,0.0,0.0,0.0,0.0,0.0,0.0,0.0,0.0,0.0,2.2185,2.2495,2.2278,2.5704,2.8919,3.1271,3.2952,3.3783,3.3451,3.4099,3.5134,3.664,3.6444,3.6504,3.7337,3.6956,3.6772,3.7432,3.8159,3.9371,4.1138,4.1766,4.2291,4.3123,4.341,4.3479,4.3479,4.3479,4.3479,4.3497,4.3624,4.392,4.4576,4.4132,4.3992,4.4392,4.458,4.487,4.5481,4.5791,4.6601,4.7976,4.856,4.9051,5.0085,5.0375,5.0336,5.0644,5.0183,4.9924,5.0544,5.0683,5.0683,1.5688,1.5141,1.4835,1.4514,0.0,1.36,1.3695,1.4201,1.3589,1.3758,1.4438,1.5266,1.7062,1.9707,2.1482,2.2338,2.2441,2.2954,2.3315,2.3623,2.4229,2.4456,2.4418,2.4596,2.474,2.4786,2.4598,2.4264,2.382,2.2849,2.2104,2.1623,2.0783,2.0534,2.0911,2.1148,2.1553,2.2209,2.1762,2.1301,2.0846,2.0033,1.9602,1.9516,1.898,0.0,0.0,0.0,0.0,0.0,0.0,0.0,0.0,0.0,0.0,2.0871,1.9721,1.929,2.0091,2.0237,2.1001,2.2574,2.3712,2.4486,2.4832,2.7313,2.9616,3.1452,3.3961,3.5282,3.4795,3.5625,3.6558,3.7213,3.7334,3.7626,3.8192,3.8094,3.8129,3.874,3.9345,4.0354,4.1866,4.2087,4.2345,4.3014,4.3339,4.3479,4.3479,4.3479,4.3479,4.3479,4.3479,4.3631,4.3931,4.3791,4.3615,4.4011,4.4389,4.4871,4.5394,4.6192,4.7164,4.8291,4.8852,4.9397,4.991,5.0206,5.0291,5.0092,4.9673,4.9475,5.0019,5.0092,5.0183,1.6182,1.572,1.5107,1.4892,1.4789,1.3658,1.3836,1.4778,1.3695,0.0,0.0,1.485,1.6979,2.0415,2.1681,2.2463,2.2797,2.3141,2.3577,2.4081,2.4405,2.4663,2.4841,2.4985,2.4995,2.4849,2.4652,2.4129,2.3228,2.2244,2.1404,2.0703,2.0039,1.9874,2.0193,2.0565,2.0894,2.1131,2.0783,2.0344,1.9967,1.9099,1.8592,1.8527,1.7666,1.7423,1.7773,1.626,1.5574,1.6031,1.499,1.4542,1.4938,1.6228,1.7503,1.8731,1.9978,2.1214,2.247,2.2248,2.2404,2.3135,2.4551,2.6009,2.7432,2.8834,3.0369,3.2018,3.4516,3.5996,3.6019,3.6906,3.7338,3.6852,3.768,3.8394,3.8567,3.9007,3.9439,3.9939,4.0565,4.1429,4.2444,4.2454,4.2531,4.281,4.3268,4.3479,4.3479,4.3479,4.3479,4.3479,4.3479,4.3513,4.3513,4.3513,4.3552,4.3842,4.4303,4.4886,4.5597,4.6661,4.7676,4.8262,4.8934,4.9351,4.9485,4.9645,4.9719,4.9532,4.9202,4.9094,4.9405,4.9518,4.9709,1.6479,1.6337,1.5732,1.5443,1.541,1.4744,1.4801,1.5339,1.4721,1.5073,1.6071,1.6111,1.7688,2.0283,2.1565,2.2496,2.3141,2.3459,2.3923,2.4424,2.467,2.4847,2.4976,2.4992,2.5034,2.5001,2.4408,2.3715,2.2978,2.2029,2.1162,2.0403,1.9929,1.9726,1.9782,1.9854,1.9909,1.9949,2.0196,1.9939,1.9126,1.8933,1.844,1.7572,1.7368,1.7105,1.671,1.5985,1.5588,1.5676,1.5033,1.4541,1.4303,1.5195,1.6536,1.8205,1.8819,1.972,2.1233,2.1868,2.2681,2.3857,2.5299,2.6545,2.7535,2.9089,3.0698,3.2325,3.4088,3.526,3.5936,3.622,3.656,3.7109,3.7904,3.8646,3.9301,3.9946,4.0551,4.099,4.1385,4.2103,4.3014,4.2794,4.2665,4.3213,4.3428,4.3479,4.3479,4.3479,4.3479,4.3479,4.3479,4.3479,4.3497,4.3497,4.3846,4.4433,4.4654,4.5296,4.647,4.7021,4.7662,4.858,4.8833,4.9038,4.9356,4.9326,4.9265,4.9276,4.8897,4.8692,4.934,4.9598,4.9876,1.6102,1.6436,1.6218,1.6061,1.6095,1.6114,1.6225,1.6456,1.6511,1.665,1.6889,1.7384,1.8777,2.0836,2.231,2.3266,2.3826,2.4292,2.458,2.4667,2.4843,2.4954,2.5035,2.49,2.471,2.4456,2.3598,2.2848,2.2177,2.1278,2.0552,2.0015,2.0158,2.0228,2.0273,2.0602,2.0782,2.0752,2.0237,1.9471,1.8496,1.8458,1.7947,1.6909,1.6544,1.6429,1.6466,1.5599,1.5276,1.5576,1.4732,1.4146,1.4131,1.4609,1.5148,1.5811,1.6965,1.8254,1.9678,2.0704,2.1402,2.1693,2.3929,2.5771,2.6776,2.9222,3.1651,3.3904,3.485,3.5514,3.6339,3.6535,3.6943,3.7721,3.8262,3.9059,4.0246,4.0641,4.1258,4.2177,4.2364,4.258,4.341,4.3195,4.3069,4.3444,4.3479,4.3479,4.3479,4.3479,4.3479,4.3479,4.3479,4.3479,4.3534,4.4287,4.4709,4.4782,4.5461,4.6232,4.7039,4.7407,4.7941,4.8403,4.8347,4.831,4.8742,4.8457,4.8439,4.8709,4.8604,4.8624,4.9304,5.0156,5.1003,1.5915,1.6504,1.6523,1.6679,1.6944,1.7468,1.7895,1.8248,1.8824,1.8779,1.8375,1.8669,1.9846,2.1686,2.3102,2.413,2.4807,2.5358,2.5555,2.545,2.5495,2.5531,2.5461,2.52,2.4805,2.4269,2.3374,2.2588,2.1933,2.1244,2.0779,2.0538,2.0625,2.0805,2.1107,2.1519,2.1695,2.1635,2.0662,1.9616,1.857,1.8519,1.7975,1.6822,1.6426,1.643,1.6798,1.5877,1.5499,1.5899,1.4976,1.4365,1.4364,1.4503,1.4466,1.4328,1.5506,1.6965,1.8428,1.9422,2.0013,1.9981,2.2583,2.4868,2.65,2.9106,3.2015,3.4576,3.5583,3.6118,3.6431,3.6943,3.7453,3.7924,3.8546,3.9518,4.0935,4.1273,4.1817,4.3178,4.3124,4.3069,4.3375,4.3479,4.3479,4.3479,4.3479,4.3479,4.3479,4.3479,4.3534,4.3681,4.3626,4.3626,4.3773,4.4892,4.5571,4.5241,4.6232,4.6965,4.7407,4.7939,4.8251,4.8306,4.7838,4.7779,4.8114,4.7838,4.7779,4.8231,4.851,4.8987,5.0055,5.1026,5.1903,1.6423,1.6479,1.6572,1.7157,1.8193,1.8755,1.98,2.1222,2.1774,2.1842,2.1377,2.0152,2.0715,2.2514,2.3454,2.4768,2.6227,2.6723,2.7039,2.721,2.7172,2.6971,2.6641,2.6276,2.5838,2.5175,2.4434,2.3691,2.3179,2.2781,2.2694,2.2674,2.1458,2.1273,2.2086,2.1886,2.171,2.1695,2.159,2.098,1.9919,1.9782,1.901,1.7536,1.7802,1.8006,1.8025,1.7399,1.7075,1.7087,1.6515,1.5853,1.5243,1.511,1.5281,1.5572,1.5151,1.5839,1.8014,1.843,1.9229,2.0783,2.2413,2.4559,2.698,2.8709,3.0707,3.3354,3.5711,3.6574,3.5924,3.6775,3.7353,3.725,3.8618,3.9975,4.0766,4.1837,4.2808,4.341,4.341,4.3463,4.3479,4.3479,4.3479,4.3479,4.3479,4.3479,4.3497,4.3589,4.3828,4.425,4.403,4.3956,4.4525,4.5296,4.614,4.6691,4.6966,4.7425,4.7921,4.8159,4.8324,4.8267,4.7797,4.7656,4.7937,4.7838,4.7632,4.8443,4.9095,4.9939,5.1279,5.1922,5.2087,1.6262,1.6989,1.7673,1.885,2.0249,2.0535,2.1523,2.2927,2.3149,2.3342,2.354,2.3131,2.3096,2.3393,2.4971,2.6249,2.7155,2.7642,2.7705,2.7421,2.7065,2.6801,2.6535,2.5658,2.5012,2.4568,2.349,2.3052,2.3224,2.3149,2.3125,2.3154,2.2543,2.2563,2.2979,2.2879,2.2832,2.2817,2.2817,2.2574,2.2058,2.1054,2.0033,1.9175,1.9231,1.9338,1.9248,1.8721,1.8338,1.8291,1.7448,1.68,1.6461,1.5949,1.5627,1.5634,1.5573,1.5909,1.6904,1.7906,1.9061,2.0259,2.2048,2.4319,2.7083,2.8681,3.0635,3.321,3.574,3.6865,3.6276,3.6922,3.7472,3.7648,3.8843,4.0219,4.1255,4.2127,4.2902,4.341,4.3479,4.3479,4.3479,4.3479,4.3479,4.3479,4.3479,4.3479,4.3497,4.3883,4.4323,4.4672,4.5021,4.5333,4.5553,4.6526,4.7131,4.7223,4.7535,4.8031,4.8177,4.8324,4.8324,4.8324,4.7797,4.7656,4.8172,4.7893,4.7681,4.8769,5.0196,5.1261,5.1903,5.238,5.2637,1.6828,1.8113,1.9319,2.0789,2.2412,2.2514,2.3471,2.4775,2.4896,2.5244,2.5819,2.619,2.5947,2.5542,2.6713,2.76,2.8172,2.8495,2.8336,2.7763,2.7167,2.6748,2.6427,2.5411,2.4702,2.4315,2.341,2.3285,2.3958,2.377,2.384,2.4086,2.3782,2.3755,2.4083,2.4091,2.4032,2.4017,2.3971,2.3815,2.3423,2.231,2.1423,2.0995,2.0689,2.0559,2.0515,2.0039,1.9825,1.9779,1.8796,1.8189,1.7943,1.6899,1.6185,1.6151,1.6544,1.6769,1.6808,1.7925,1.8903,1.9802,2.1687,2.4025,2.6581,2.8565,3.0778,3.3496,3.5842,3.7013,3.6671,3.7386,3.8052,3.8282,3.9324,4.0558,4.1619,4.2342,4.2884,4.341,4.3479,4.3479,4.3479,4.3479,4.3479,4.3479,4.3479,4.3479,4.3589,4.4158,4.4745,4.5039,4.6049,4.6544,4.6416,4.726,4.7847,4.7829,4.7976,4.8233,4.8324,4.8324,4.8324,4.8267,4.7756,4.7692,4.8166,4.7984,4.8375,4.9889,5.1169,5.2068,5.2399,5.2876,5.3115,1.8686,1.9991,2.1418,2.2842,2.4182,2.4506,2.5711,2.6953,2.7307,2.777,2.8033,2.8521,2.8927,2.8851,2.8163,2.8545,2.9411,2.9276,2.9046,2.8713,2.788,2.7281,2.6844,2.6118,2.5501,2.503,2.4738,2.5266,2.625,2.5423,2.5479,2.6354,2.4938,2.4754,2.5546,2.5249,2.5105,2.5012,2.4736,2.4327,2.3738,2.3539,2.342,2.3275,2.2267,2.1718,2.1699,2.1586,2.1586,2.16,2.0903,2.0267,1.9519,1.7827,1.7205,1.7919,1.8242,1.8408,1.8469,1.8638,1.8934,1.9543,2.1335,2.3529,2.6103,2.8154,3.0707,3.3908,3.5864,3.6946,3.7136,3.8325,3.9111,3.9071,4.0139,4.1101,4.1732,4.2422,4.2902,4.3375,4.3479,4.3479,4.3479,4.3479,4.3479,4.3479,4.3479,4.3534,4.3736,4.4268,4.5021,4.5792,4.6526,4.7095,4.7131,4.77,4.8177,4.8159,4.8122,4.8324,4.8324,4.8324,4.8324,4.8229,4.7838,4.7793,4.8181,4.8861,4.9682,5.0762,5.1587,5.2325,5.2784,5.3041,5.3206,2.137,2.3153,2.4057,2.4761,2.5213,2.4953,2.4697,2.4431,2.4562,2.4627,2.4965,2.6132,2.7116,2.7785,2.821,2.8657,2.9086,2.9025,2.8636,2.7986,2.7229,2.6673,2.6134,2.5303,2.495,2.4815,2.4405,2.5041,2.6538,2.625,2.627,2.6505,2.582,2.5606,2.5855,2.5465,2.5221,2.5166,2.5048,2.4987,2.4918,2.4744,2.4712,2.4864,2.3967,2.3588,2.391,2.3244,2.2863,2.2877,2.1932,2.0877,1.9748,1.8577,1.9095,2.1218,2.0706,2.0098,2.0095,1.9865,1.9943,2.0522,2.1239,2.3212,2.5874,2.7583,2.9578,3.2831,3.5073,3.6586,3.8272,3.9316,3.9975,4.0217,4.1248,4.208,4.2422,4.2884,4.3286,4.3444,4.3479,4.3479,4.3479,4.3479,4.3479,4.3479,4.3479,4.3718,4.4268,4.4947,4.57,4.6544,4.7352,4.7884,4.7865,4.8049,4.8306,4.8306,4.8324,4.8324,4.8324,4.8324,4.8324,4.8324,4.7995,4.8141,4.8559,4.9493,5.0451,5.1444,5.227,5.2674,5.3151,5.3206,5.3206,2.2902,2.3809,2.3918,2.3848,2.3577,2.2198,2.1046,2.0099,1.9674,1.9708,2.0449,2.2344,2.4009,2.544,2.7118,2.7988,2.8054,2.8133,2.7786,2.7068,2.6219,2.5668,2.526,2.4521,2.4328,2.4692,2.4689,2.5357,2.6528,2.6708,2.6708,2.6657,2.6367,2.6227,2.6139,2.5855,2.573,2.5859,2.5911,2.603,2.6115,2.5964,2.5947,2.6046,2.5587,2.5201,2.5205,2.4465,2.4039,2.3899,2.2892,2.1499,1.9876,2.0015,2.1058,2.2791,2.2532,2.2056,2.1938,2.1485,2.1181,2.1207,2.1797,2.3394,2.6025,2.7209,2.945,3.24,3.5087,3.7214,3.8656,3.9908,4.0717,4.1096,4.2038,4.2693,4.275,4.3178,4.3444,4.3479,4.3479,4.3479,4.3479,4.3479,4.3479,4.3479,4.3479,4.3809,4.4599,4.5388,4.6195,4.7003,4.7737,4.8159,4.8196,4.8251,4.8324,4.8324,4.8324,4.8324,4.8324,4.8324,4.8324,4.8324,4.8434,4.8618,4.9187,5.0105,5.1077,5.2105,5.2637,5.3023,5.3206,5.3206,5.3206,2.3237,2.1849,2.0678,2.0135,1.9286,1.6626,1.513,1.4566,1.3141,1.3215,1.4608,1.7489,1.9814,2.2287,2.5065,2.6488,2.6685,2.6896,2.683,2.6354,2.5185,2.4561,2.4415,2.3948,2.4094,2.4804,2.5972,2.658,2.6674,2.6725,2.6708,2.6708,2.6657,2.6624,2.6691,2.659,2.6791,2.7051,2.7181,2.7227,2.7147,2.7085,2.7072,2.7085,2.6971,2.6454,2.5433,2.5227,2.5173,2.5057,2.4194,2.2326,2.0825,2.2248,2.3307,2.3001,2.3716,2.4354,2.4089,2.3431,2.2519,2.1904,2.2636,2.4037,2.5767,2.7669,2.9978,3.2803,3.5778,3.8071,3.8765,4.016,4.1402,4.1843,4.2483,4.277,4.2864,4.3178,4.3479,4.3479,4.3479,4.3479,4.3479,4.3479,4.3479,4.3479,4.3497,4.3846,4.4727,4.548,4.6195,4.7058,4.781,4.8269,4.8324,4.8324,4.8324,4.8324,4.8324,4.8324,4.8324,4.8324,4.8324,4.8343,4.8655,4.8893,4.9887,5.0805,5.1591,5.2472,5.2913,5.3206,5.3206,5.3206,5.3206,2.3119,2.08,2.0264,1.8479,1.5903,1.3231,1.036,0.7045,0.5887,0.5868,0.7153,1.1097,1.4878,1.8565,2.2622,2.5216,2.6092,2.625,2.6059,2.5623,2.515,2.4511,2.3921,2.3681,2.409,2.4989,2.5686,2.628,2.6623,2.6708,2.6708,2.6708,2.6708,2.6708,2.6708,2.6691,2.6906,2.7272,2.7352,2.7409,2.7625,2.7654,2.7672,2.7654,2.7672,2.743,2.7092,2.6455,2.6095,2.6112,2.5999,2.5228,2.4332,2.5171,2.5931,2.5965,2.6627,2.6881,2.6341,2.5598,2.4818,2.4164,2.4188,2.5099,2.6648,2.8106,3.0259,3.3102,3.6158,3.8545,4.0288,4.0724,4.15,4.283,4.316,4.3214,4.3214,4.3375,4.3479,4.3479,4.3479,4.3479,4.3479,4.3479,4.3479,4.3479,4.3497,4.392,4.5186,4.5663,4.6489,4.7664,4.8104,4.8324,4.8324,4.8324,4.8324,4.8324,4.8324,4.8324,4.8324,4.8324,4.8324,4.8563,4.8857,4.9538,5.0551,5.132,5.205,5.2656,5.3078,5.3206,5.3206,5.3206,5.3206,2.1606,1.767,1.7035,1.4782,1.1144,0.76,0.3574,-0.0178,-0.1849,-0.1864,0.0179,0.5377,1.0417,1.5096,2.0629,2.4122,2.5619,2.6068,2.5997,2.5449,2.5028,2.443,2.3767,2.4032,2.4424,2.5064,2.5733,2.6272,2.6657,2.6708,2.6708,2.6708,2.6708,2.6708,2.6725,2.6856,2.7115,2.747,2.7678,2.789,2.821,2.8308,2.8326,2.8326,2.8308,2.8228,2.8075,2.7578,2.7273,2.7278,2.7715,2.7657,2.6946,2.7856,2.8672,2.8849,2.887,2.8653,2.8181,2.76,2.7002,2.6352,2.6256,2.6867,2.8116,2.8927,3.0305,3.333,3.6207,3.8968,4.1112,4.1445,4.1862,4.3283,4.3444,4.3479,4.3479,4.3479,4.3479,4.3479,4.3479,4.3479,4.3479,4.3479,4.3479,4.3479,4.3497,4.4085,4.5351,4.5865,4.6874,4.7755,4.8196,4.8324,4.8324,4.8324,4.8324,4.8324,4.8324,4.8324,4.8324,4.8324,4.8343,4.8875,4.926,5.0034,5.1011,5.154,5.216,5.2692,5.3206,5.3206,5.3206,5.3206,5.3206,1.9294,1.319,1.1938,0.9669,0.5782,0.0316,-0.3648,-0.6715,-0.9142,-0.8657,-0.542,0.0945,0.6478,1.2068,1.8853,2.3443,2.5134,2.6245,2.6367,2.5799,2.5105,2.4348,2.3809,2.4455,2.4815,2.5013,2.5986,2.659,2.6708,2.6708,2.6708,2.6708,2.6708,2.6708,2.6758,2.7083,2.7396,2.7794,2.8156,2.8464,2.8881,2.8947,2.8929,2.8929,2.8905,2.8773,2.8554,2.88,2.88,2.8594,2.9574,2.9862,2.9518,3.0474,3.1179,3.1193,3.058,3.0028,2.9661,2.9605,2.9169,2.8272,2.8781,2.945,2.9765,2.9822,3.0734,3.3543,3.6434,3.9066,4.1092,4.1831,4.2354,4.3249,4.3479,4.3479,4.3479,4.3479,4.3479,4.3479,4.3479,4.3479,4.3479,4.3479,4.3479,4.3516,4.3589,4.4452,4.5424,4.6159,4.6801,4.7479,4.8155,4.8053,4.7995,4.7995,4.7995,4.8035,4.8151,4.8343,4.8453,4.8508,4.8636,4.9169,4.9961,5.0717,5.1342,5.1926,5.2399,5.2931,5.3188,5.3206,5.3206,5.3206,5.3206,1.9656,1.3042,1.1206,0.7489,0.2297,-0.3044,-0.7531,-1.1059,-1.3076,-1.243,-0.8788,-0.1695,0.3511,0.7333,1.7517,2.342,2.5291,2.6347,2.6436,2.5997,2.5779,2.4776,2.3948,2.4292,2.4784,2.5163,2.5875,2.6367,2.6657,2.6725,2.6725,2.6708,2.6758,2.6725,2.6725,2.6856,2.7241,2.7811,2.7982,2.8386,2.8905,2.9017,2.8975,2.8975,2.8998,2.9089,2.9246,3.0217,3.0782,3.0798,3.1653,3.2553,3.2847,3.3004,3.2979,3.2845,3.2262,3.156,3.1236,3.1568,3.1447,3.0847,3.1017,3.1182,3.0921,3.1395,3.2379,3.4395,3.716,3.9658,4.0985,4.1952,4.2718,4.3321,4.3479,4.3479,4.3479,4.3479,4.3479,4.3479,4.3479,4.3479,4.3479,4.3479,4.355,4.3642,4.4064,4.4744,4.5809,4.6471,4.7095,4.7565,4.7995,4.7756,4.7632,4.7632,4.7632,4.7674,4.7933,4.8379,4.8618,4.8893,4.9114,4.9481,5.0618,5.1485,5.1944,5.2417,5.2839,5.317,5.3188,5.3206,5.3206,5.3206,5.3206,2.0925,1.495,1.1477,0.6655,0.0816,-0.4879,-0.996,-1.3892,-1.5558,-1.4831,-1.0872,-0.3147,0.1989,0.5456,1.6728,2.3398,2.5572,2.6383,2.6521,2.6315,2.6085,2.5335,2.4617,2.4816,2.5189,2.5443,2.5999,2.6436,2.6691,2.6841,2.6939,2.7019,2.7115,2.721,2.7272,2.7361,2.7613,2.8075,2.8255,2.8601,2.897,2.9112,2.9178,2.9181,2.9249,2.9549,3.0303,3.1418,3.2045,3.2229,3.2981,3.4016,3.4845,3.4489,3.4087,3.3815,3.3166,3.2669,3.2669,3.3176,3.3369,3.2988,3.2973,3.2748,3.2323,3.2369,3.2748,3.5497,3.7535,3.941,4.1286,4.2464,4.3069,4.3444,4.3479,4.3479,4.3479,4.3479,4.3479,4.3479,4.3479,4.3479,4.3479,4.3513,4.38,4.4125,4.4446,4.5434,4.6463,4.6893,4.7332,4.7803,4.7856,4.7591,4.7482,4.75,4.7585,4.7609,4.8279,4.8634,4.904,4.9426,4.9903,5.0417,5.1389,5.2123,5.2491,5.2784,5.2986,5.3206,5.3206,5.3206,5.3206,5.3206,5.3206,2.264,1.7718,1.2134,0.6415,0.0368,-0.6172,-1.1717,-1.5846,-1.7312,-1.6324,-1.2301,-0.4132,0.167,0.5323,1.6914,2.3508,2.5826,2.6556,2.6791,2.6724,2.6488,2.5911,2.5603,2.5635,2.5701,2.5675,2.6352,2.6742,2.6925,2.7198,2.7303,2.7409,2.7678,2.784,2.7864,2.8209,2.8468,2.8732,2.9168,2.9499,2.9717,2.9893,3.0015,3.0076,3.0236,3.0704,3.1564,3.2454,3.2974,3.279,3.3805,3.4673,3.5302,3.4944,3.4357,3.3831,3.3426,3.3239,3.3697,3.4217,3.4629,3.4312,3.4301,3.4137,3.3447,3.2703,3.3341,3.5943,3.7076,3.915,4.1707,4.3032,4.3391,4.3479,4.3479,4.3479,4.3479,4.3479,4.3479,4.3479,4.3479,4.3532,4.3615,4.3726,4.4099,4.4929,4.5329,4.6215,4.6958,4.7353,4.7757,4.8121,4.7915,4.7464,4.7414,4.7425,4.7536,4.7717,4.8707,4.9315,4.9719,5.0178,5.0784,5.1426,5.2068,5.2546,5.2931,5.3151,5.3206,5.3206,5.3206,5.3206,5.3206,5.3206,5.3206,2.3424,1.703,1.2219,0.6013,-0.1103,-0.7838,-1.3199,-1.72,-1.8677,-1.7825,-1.3753,-0.5081,0.1785,0.6991,1.7017,2.3753,2.6214,2.6926,2.7317,2.756,2.7224,2.6985,2.6707,2.6402,2.5779,2.57,2.6302,2.6993,2.7469,2.7438,2.747,2.7765,2.7918,2.7943,2.8088,2.8746,2.9251,2.9753,3.0404,3.0921,3.1238,3.1374,3.1501,3.1626,3.1924,3.224,3.2687,3.3577,3.4046,3.4118,3.4506,3.5039,3.5185,3.4547,3.4027,3.3805,3.3473,3.3502,3.4132,3.4654,3.4883,3.51,3.505,3.4728,3.3735,3.3614,3.4017,3.5524,3.7086,3.9445,4.2127,4.3142,4.3444,4.3479,4.3479,4.3479,4.3479,4.3479,4.3479,4.3479,4.3529,4.3712,4.4279,4.4668,4.5126,4.5716,4.6375,4.7132,4.7543,4.7885,4.8052,4.8324,4.7866,4.7407,4.7371,4.7479,4.7716,4.8206,4.9193,5.0031,5.0453,5.1004,5.1646,5.2105,5.2527,5.2931,5.3188,5.3206,5.3206,5.3206,5.3206,5.3206,5.3206,5.3206,5.3371,2.4418,1.8009,1.2059,0.4938,-0.2817,-0.9876,-1.5375,-1.889,-2.0215,-1.9232,-1.5206,-0.6765,0.0572,0.6862,1.6326,2.3008,2.6125,2.7091,2.75,2.7783,2.7648,2.7589,2.753,2.7095,2.6588,2.6117,2.6605,2.7319,2.7709,2.7883,2.7946,2.8183,2.8446,2.8826,2.8995,2.9544,3.0111,3.0674,3.1214,3.1704,3.1973,3.2302,3.2568,3.2731,3.3014,3.3213,3.3697,3.4146,3.4595,3.4865,3.5033,3.5085,3.5064,3.4488,3.4032,3.3778,3.3807,3.4226,3.4992,3.5508,3.5847,3.6046,3.5928,3.4923,3.3986,3.3683,3.395,3.4952,3.6987,3.9599,4.2322,4.3178,4.3444,4.3479,4.3479,4.3479,4.3479,4.3479,4.3479,4.3529,4.3638,4.4271,4.4878,4.5472,4.6233,4.6873,4.6948,4.7648,4.8076,4.8345,4.8199,4.8169,4.7753,4.7453,4.7407,4.7619,4.8019,4.8689,4.975,5.0582,5.1242,5.1867,5.2546,5.2784,5.2936,5.3004,5.3206,5.3206,5.323,5.3206,5.3206,5.3206,5.3225,5.3261,5.3555,2.4769,1.903,1.1441,0.3509,-0.4619,-1.1922,-1.7445,-2.1192,-2.1848,-2.054,-1.6896,-0.9013,-0.2297,0.4569,1.4419,2.1625,2.5886,2.722,2.7678,2.812,2.802,2.7964,2.7908,2.7747,2.747,2.6989,2.7241,2.7661,2.8082,2.8281,2.8342,2.8608,2.9263,2.968,3.0189,3.0802,3.1321,3.1864,3.2232,3.2553,3.2694,3.3125,3.3469,3.3685,3.3853,3.4131,3.4542,3.4761,3.4947,3.5523,3.5316,3.5069,3.4813,3.448,3.445,3.4164,3.4334,3.486,3.5859,3.6374,3.6595,3.7084,3.6388,3.5518,3.4415,3.3489,3.3684,3.5489,3.7643,4.027,4.24,4.3178,4.3444,4.3479,4.3479,4.3479,4.3513,4.3566,4.3612,4.366,4.3899,4.4445,4.5461,4.6297,4.7159,4.7899,4.7909,4.8021,4.8463,4.8604,4.8402,4.8306,4.7925,4.7777,4.7747,4.8387,4.8689,4.9273,5.031,5.1201,5.1974,5.257,5.3071,5.3088,5.3175,5.3254,5.34,5.3542,5.3502,5.3295,5.3295,5.3359,5.3373,5.3316,5.3739,2.2733,1.751,0.9937,0.1641,-0.6788,-1.3652,-1.8672,-2.1945,-2.2937,-2.1942,-1.8906,-1.1921,-0.6457,-0.0454,1.0931,2.031,2.6064,2.7695,2.812,2.8558,2.8489,2.8368,2.8342,2.8201,2.8,2.7935,2.795,2.8217,2.8551,2.8575,2.8809,2.9122,2.9959,3.0551,3.1052,3.18,3.2724,3.3184,3.3581,3.3999,3.4388,3.4693,3.4865,3.5022,3.5071,3.5237,3.5334,3.5424,3.5495,3.5581,3.5515,3.5412,3.5226,3.4716,3.4889,3.5331,3.503,3.5344,3.6413,3.6394,3.6612,3.6717,3.6435,3.6078,3.5262,3.3969,3.439,3.6934,3.9645,4.2024,4.2582,4.3214,4.3444,4.3479,4.3479,4.3479,4.3548,4.3693,4.3912,4.3986,4.421,4.474,4.5982,4.7039,4.7732,4.8382,4.8691,4.8506,4.8542,4.855,4.8344,4.8306,4.8229,4.819,4.8172,4.905,4.9655,5.001,5.0872,5.1842,5.2622,5.3218,5.3533,5.3567,5.3545,5.3565,5.372,5.3851,5.372,5.3524,5.3545,5.3565,5.3511,5.3482,5.4069,2.4947,1.963,1.0864,0.2354,-0.5944,-1.445,-2.0159,-2.3432,-2.3853,-2.2732,-1.9236,-1.3785,-0.9624,-0.4263,0.7725,1.8886,2.5644,2.7823,2.8326,2.8797,2.892,2.8906,2.8911,2.881,2.8897,2.8934,2.8897,2.884,2.9062,2.9441,2.9586,3.0071,3.1016,3.1751,3.2146,3.2901,3.3696,3.4205,3.4584,3.4865,3.5224,3.5449,3.5611,3.5696,3.5749,3.5736,3.5655,3.564,3.5588,3.5558,3.5528,3.5488,3.545,3.5567,3.5604,3.6196,3.604,3.6128,3.6962,3.6994,3.7255,3.7488,3.7291,3.7108,3.6789,3.6071,3.6456,3.9616,4.1298,4.3014,4.3142,4.3375,4.3444,4.3479,4.3479,4.3479,4.3563,4.3836,4.4016,4.4252,4.4602,4.5382,4.6866,4.772,4.8285,4.8821,4.9324,4.914,4.8744,4.8477,4.8324,4.8306,4.8361,4.8543,4.8897,4.9932,5.0634,5.1006,5.1602,5.2549,5.3232,5.3875,5.4043,5.4013,5.3996,5.4083,5.3941,5.4083,5.3888,5.3796,5.3796,5.3795,5.3603,5.3739,5.4472,2.7401,2.2042,1.215,0.3404,-0.4825,-1.443,-2.1105,-2.439,-2.4665,-2.315,-2.0288,-1.505,-1.1154,-0.5491,0.6422,1.8883,2.6627,2.7472,2.8308,2.8879,2.9228,2.9373,2.9494,2.9589,2.9606,2.9533,2.987,2.9772,2.9751,3.0163,3.065,3.1203,3.2212,3.2997,3.339,3.3823,3.4338,3.4734,3.4943,3.5009,3.5143,3.5379,3.5611,3.5667,3.5675,3.5655,3.5621,3.5621,3.559,3.5631,3.5712,3.5753,3.5718,3.6404,3.6996,3.7221,3.7411,3.7581,3.7911,3.8095,3.8358,3.8724,3.9024,3.8833,3.8805,3.8968,3.987,4.2902,4.3513,4.3444,4.341,4.3479,4.3479,4.3479,4.3479,4.3513,4.3597,4.3772,4.4016,4.4383,4.487,4.5868,4.7191,4.7949,4.8403,4.9118,4.9597,4.9189,4.8813,4.8495,4.8306,4.8324,4.8453,4.8799,4.9542,5.0917,5.1547,5.1918,5.2617,5.3478,5.403,5.4572,5.4579,5.4609,5.4741,5.4771,5.4541,5.4414,5.4602,5.4572,5.427,5.4069,5.4,5.4535,5.5371,2.7166,2.205,1.2698,0.3478,-0.5229,-1.3563,-2.0371,-2.4862,-2.5051,-2.3263,-2.0241,-1.5913,-1.104,-0.2531,1.125,2.0841,2.5026,2.73,2.8272,2.8893,2.9275,2.9589,2.9681,2.9678,2.9952,3.0137,3.0595,3.0789,3.0942,3.1111,3.1411,3.2108,3.3058,3.3745,3.3977,3.4527,3.5092,3.5285,3.5111,3.5113,3.5399,3.5491,3.5553,3.5601,3.5611,3.5611,3.5611,3.5611,3.564,3.5829,3.6398,3.629,3.6061,3.7822,3.9282,3.9592,3.9254,3.8564,3.911,3.9308,3.9595,3.9993,4.028,4.0717,4.1176,4.1377,4.21,4.4027,4.3899,4.3513,4.3479,4.3479,4.3479,4.3479,4.3479,4.3479,4.3529,4.3772,4.4016,4.4408,4.4877,4.6017,4.7283,4.791,4.8508,4.9234,4.9719,4.9314,4.8949,4.864,4.8306,4.8306,4.8785,4.9226,5.0249,5.1657,5.2541,5.2912,5.3522,5.4264,5.4686,5.508,5.5212,5.5262,5.5356,5.5237,5.4905,5.496,5.5331,5.5193,5.4722,5.456,5.4471,5.5232,5.6164,2.8625,2.5788,1.7924,0.8517,-0.1561,-0.9214,-1.7355,-2.3967,-2.4855,-2.3079,-2.0197,-1.7523,-0.996,0.1968,1.4664,2.1585,2.5138,2.7157,2.8358,2.9067,2.9492,2.9961,3.0408,3.0361,3.04,3.1268,3.1546,3.2087,3.2352,3.2635,3.2813,3.317,3.4152,3.4774,3.4649,3.5109,3.5345,3.5432,3.536,3.5369,3.5477,3.5495,3.5507,3.5565,3.5546,3.5574,3.559,3.5611,3.5902,3.6162,3.6451,3.6615,3.7153,3.8423,3.9597,4.0585,4.02,3.9815,3.9794,4.0175,4.061,4.1138,4.1598,4.2616,4.3514,4.3629,4.3545,4.4449,4.3929,4.3566,4.3479,4.3479,4.3479,4.3479,4.3479,4.3479,4.3563,4.3786,4.4072,4.4461,4.5017,4.6233,4.7333,4.7922,4.8555,4.9264,4.9702,4.9521,4.9227,4.8949,4.8604,4.8306,4.9007,4.9765,5.1028,5.2356,5.3508,5.4025,5.4227,5.4865,5.5205,5.5531,5.5554,5.5577,5.5577,5.5399,5.5186,5.5262,5.5512,5.5356,5.5141,5.5009,5.4988,5.5894,5.6791,2.9931,2.8891,2.27,1.3008,0.1368,-0.5389,-1.4945,-2.4993,-2.5287,-2.3462,-2.0146,-1.6105,-0.6335,0.5538,1.4501,2.0664,2.4729,2.6957,2.8522,2.9402,3.0056,3.0763,3.1312,3.1367,3.1693,3.2929,3.2628,3.2987,3.3703,3.4165,3.4148,3.4244,3.4923,3.5345,3.5455,3.5441,3.5493,3.5474,3.5474,3.5474,3.5501,3.5501,3.5488,3.5488,3.5501,3.5528,3.5599,3.592,3.6366,3.6609,3.7055,3.7506,3.8124,3.9054,3.9898,4.0643,4.0548,4.061,4.0687,4.0992,4.1325,4.2038,4.3017,4.4285,4.4785,4.4935,4.4643,4.4505,4.3915,4.3548,4.3479,4.3479,4.3479,4.3479,4.3479,4.3479,4.3513,4.3693,4.3878,4.4138,4.4967,4.6509,4.7444,4.7983,4.8621,4.9294,4.9579,4.9655,4.948,4.9221,4.8982,4.8658,4.877,4.9787,5.1409,5.2742,5.4004,5.4905,5.5115,5.5282,5.5531,5.564,5.564,5.5684,5.5684,5.5621,5.5423,5.5512,5.5599,5.5489,5.5394,5.5377,5.5627,5.6581,5.7446,3.0286,2.9728,2.4794,1.4612,0.1342,-0.4378,-1.4227,-2.5802,-2.6402,-2.4488,-2.0074,-1.1718,-0.2641,0.6473,1.3628,1.9239,2.3279,2.6615,2.8779,3.0126,3.0951,3.179,3.2333,3.2615,3.2718,3.3179,3.3372,3.3814,3.4353,3.4941,3.5158,3.5435,3.5416,3.5455,3.5507,3.5507,3.5507,3.5507,3.5507,3.5507,3.5474,3.5474,3.546,3.5512,3.5507,3.5547,3.5658,3.6366,3.6987,3.7305,3.803,3.8569,3.885,3.9565,4.03,4.0466,4.0604,4.0843,4.1358,4.1837,4.2452,4.3423,4.4511,4.5437,4.5548,4.5555,4.5144,4.4392,4.3823,4.3548,4.3479,4.3479,4.3479,4.3479,4.3479,4.3479,4.3479,4.3513,4.3689,4.386,4.4941,4.6593,4.7608,4.8116,4.8548,4.9177,4.9872,4.9976,4.9655,4.9416,4.9314,4.9085,4.8697,4.962,5.1499,5.2987,5.4571,5.5186,5.5356,5.5489,5.564,5.5684,5.5684,5.5684,5.5684,5.5684,5.5684,5.5662,5.5662,5.5662,5.5695,5.5768,5.6518,5.7592,5.8342,2.9607,2.9079,2.6724,1.7548,0.4251,0.0692,-0.9233,-2.1681,-2.4186,-2.1927,-1.7029,-0.8325,0.097,0.944,1.4769,1.957,2.3878,2.7677,2.96,3.079,3.1694,3.267,3.3223,3.341,3.3391,3.4141,3.443,3.4584,3.5064,3.5292,3.5416,3.5488,3.5446,3.5507,3.5507,3.5474,3.546,3.546,3.5474,3.5493,3.5441,3.5243,3.5243,3.5493,3.5898,3.6122,3.6485,3.7207,3.7839,3.8355,3.8742,3.9057,3.9326,3.9881,3.9938,4.0046,4.0085,4.0783,4.1784,4.243,4.3422,4.4729,4.5577,4.5955,4.5881,4.5805,4.5318,4.4605,4.3899,4.3631,4.3513,4.3479,4.3479,4.3479,4.3513,4.3513,4.355,4.3603,4.392,4.4287,4.5397,4.6823,4.7605,4.8255,4.8627,4.9038,4.9711,5.018,4.9843,4.9778,4.9769,4.9985,4.9771,5.052,5.2378,5.3876,5.5268,5.5423,5.5577,5.564,5.5684,5.5684,5.5684,5.5684,5.5684,5.5684,5.5684,5.5684,5.5684,5.5703,5.5953,5.6258,5.7248,5.8525,5.9073,2.8953,2.8252,2.701,1.9135,0.7679,0.403,-0.5938,-1.8706,-2.2371,-1.9177,-1.2291,-0.4032,0.4195,1.1888,1.6681,2.0485,2.4567,2.8182,3.0466,3.1823,3.281,3.3647,3.4057,3.4257,3.441,3.5185,3.4957,3.4851,3.522,3.5266,3.5223,3.5207,3.5254,3.527,3.5474,3.5417,3.5335,3.527,3.5273,3.5273,3.5187,3.5011,3.517,3.5553,3.5948,3.6382,3.6926,3.7609,3.8255,3.8646,3.8984,3.932,3.9621,3.9693,3.9204,3.9188,3.9494,4.0253,4.1445,4.2966,4.4297,4.5553,4.5903,4.6033,4.5974,4.5927,4.552,4.5029,4.4277,4.3791,4.3744,4.386,4.3791,4.3836,4.374,4.3726,4.3812,4.3889,4.4375,4.4856,4.6112,4.7345,4.8077,4.8717,4.8692,4.8931,4.9158,4.9663,4.9759,4.9891,5.0331,5.07,5.1071,5.2213,5.3582,5.4609,5.547,5.5535,5.564,5.5662,5.5684,5.5684,5.5684,5.5684,5.5684,5.5684,5.5703,5.5703,5.5703,5.5684,5.6299,5.7146,5.8146,5.9283,5.9534,2.8424,2.7201,2.5112,1.861,0.9663,0.4446,-0.5588,-1.7321,-1.9917,-1.6383,-0.7691,0.2328,0.8528,1.2706,1.7364,2.1491,2.5221,2.8858,3.1506,3.3092,3.3829,3.4634,3.5032,3.5238,3.5076,3.5316,3.517,3.5057,3.5086,3.4756,3.4679,3.4678,3.4679,3.485,3.5364,3.5203,3.4962,3.4715,3.4676,3.4579,3.4632,3.4548,3.4883,3.5472,3.5919,3.6396,3.7177,3.7938,3.8491,3.8744,3.9159,3.9425,3.9564,3.9193,3.8581,3.789,3.8701,3.9808,4.1276,4.346,4.4912,4.582,4.6021,4.6027,4.6034,4.5946,4.5732,4.516,4.4749,4.4383,4.4355,4.4355,4.4213,4.4136,4.4046,4.4023,4.4098,4.4332,4.4804,4.5552,4.681,4.7975,4.8727,4.9184,4.8952,4.8888,4.8833,4.9089,4.9539,5.0274,5.0907,5.1421,5.1986,5.3068,5.4181,5.5001,5.5624,5.5684,5.5684,5.5684,5.5684,5.5684,5.5684,5.5684,5.5684,5.5684,5.5703,5.5722,5.6165,5.6742,5.755,5.8396,5.9319,5.9888,6.0073,2.7157,2.5984,2.3702,1.974,1.4089,0.6398,-0.2794,-1.0714,-1.034,-0.7051,-0.165,0.6804,1.2119,1.5466,1.9009,2.2987,2.6453,2.9844,3.2613,3.3745,3.4563,3.5095,3.5455,3.5432,3.546,3.5465,3.535,3.5001,3.4623,3.4202,3.4113,3.4151,3.382,3.4068,3.4365,3.4363,3.4192,3.3759,3.3467,3.3366,3.3744,3.3712,3.4,3.4885,3.559,3.6362,3.7184,3.7936,3.8527,3.8826,3.9295,3.9282,3.9312,3.8915,3.8615,3.8212,3.8852,3.9536,4.1422,4.349,4.4868,4.5564,4.5918,4.5907,4.5901,4.5918,4.565,4.5281,4.4895,4.4572,4.4538,4.4519,4.4474,4.4447,4.4419,4.4401,4.4496,4.4829,4.5305,4.6271,4.7379,4.8602,4.9514,4.9569,4.9351,4.9514,4.9569,4.942,4.9721,5.083,5.1664,5.2131,5.2767,5.3807,5.4741,5.5357,5.5665,5.5684,5.5684,5.5684,5.5684,5.5684,5.5684,5.5684,5.5684,5.5703,5.5953,5.6357,5.728,5.803,5.8684,5.9088,5.9569,6.0061,6.038,2.6337,2.5158,2.2526,1.9872,1.6288,0.8422,0.1044,-0.3135,0.0408,0.4327,0.8216,1.3904,1.6937,1.9052,2.1618,2.4772,2.794,3.0623,3.3089,3.4116,3.483,3.5098,3.5171,3.5242,3.5145,3.521,3.5075,3.4757,3.412,3.3578,3.3268,3.299,3.2631,3.217,3.2385,3.2505,3.2762,3.213,3.156,3.1672,3.1932,3.2093,3.2342,3.3433,3.4449,3.542,3.6543,3.7533,3.8409,3.8748,3.9007,3.898,3.895,3.8726,3.8567,3.8488,3.9022,3.986,4.1844,4.3081,4.4326,4.5207,4.5534,4.5648,4.5628,4.5674,4.515,4.4782,4.4738,4.477,4.4732,4.4739,4.483,4.483,4.4757,4.4757,4.5249,4.5613,4.6181,4.7126,4.8002,4.9171,4.9937,4.991,4.9746,5.0069,5.0405,5.0233,5.0165,5.1269,5.236,5.2847,5.3388,5.4302,5.4998,5.5472,5.5684,5.5684,5.5684,5.5684,5.5684,5.5684,5.5684,5.5703,5.5722,5.5895,5.6415,5.7049,5.8127,5.8934,5.9569,5.9838,5.9915,6.0215,6.0584,2.5971,2.4744,2.1664,1.9146,1.6212,1.053,0.585,0.35,1.0577,1.5499,1.9104,2.2635,2.3433,2.1706,2.3835,2.6563,2.916,3.1172,3.3052,3.4413,3.4905,3.4889,3.4812,3.4793,3.4734,3.4639,3.4521,3.4296,3.3588,3.287,3.2294,3.1565,3.0974,3.0297,3.0191,3.0323,3.0592,2.9945,2.9452,2.9767,3.0245,2.972,3.0101,3.1038,3.1983,3.309,3.4295,3.5625,3.6806,3.7572,3.831,3.8572,3.8496,3.8083,3.8025,3.8404,3.926,4.0772,4.1947,4.2898,4.3713,4.46,4.4991,4.5093,4.5186,4.5227,4.4855,4.4511,4.4436,4.4751,4.4952,4.5129,4.5302,4.5222,4.5118,4.5497,4.61,4.6657,4.7246,4.8003,4.8758,4.9541,4.9693,4.9757,4.9981,5.0412,5.0811,5.1295,5.1358,5.195,5.2914,5.3531,5.411,5.479,5.5331,5.564,5.5684,5.5684,5.5684,5.5684,5.5684,5.5662,5.5599,5.5618,5.5758,5.6222,5.728,5.8223,5.9127,5.9819,6.0242,6.0339,6.0358,6.0454,6.0734,2.5533,2.4244,2.2022,1.9894,1.7705,1.425,1.0982,0.9268,1.443,1.7822,1.9168,2.4479,2.5843,2.5045,2.5762,2.7893,2.9954,3.1858,3.3391,3.4407,3.4906,3.4813,3.4754,3.4653,3.4386,3.4216,3.4097,3.3767,3.2648,3.1934,3.1016,3.0086,2.9383,2.8575,2.8077,2.7937,2.7921,2.7714,2.7175,2.7668,2.8053,2.7555,2.7723,2.7891,2.9044,3.0218,3.1587,3.3209,3.452,3.6064,3.7434,3.8198,3.8658,3.8524,3.8592,3.9294,4.035,4.1563,4.1984,4.2759,4.3523,4.405,4.4361,4.4388,4.4499,4.4613,4.4535,4.4318,4.4087,4.4298,4.4726,4.5026,4.5222,4.5243,4.5356,4.5932,4.6557,4.7247,4.7827,4.8409,4.9183,4.9311,4.9445,4.9746,5.0032,5.0607,5.1216,5.1861,5.2445,5.2996,5.3538,5.4161,5.4631,5.5255,5.5423,5.5684,5.5684,5.5684,5.5684,5.5684,5.5662,5.5599,5.5535,5.5804,5.6393,5.7434,5.8646,5.9396,5.9858,6.0242,6.0627,6.0723,6.08,6.08,6.08,2.5776,2.485,2.2717,2.0681,1.8821,1.728,1.5988,1.6058,1.8644,2.063,2.2796,2.6343,2.7732,2.7315,2.7472,2.8612,3.0583,3.1826,3.3177,3.4175,3.4882,3.4813,3.4733,3.4569,3.4293,3.4057,3.3629,3.3149,3.1952,3.0735,2.9794,2.8638,2.7923,2.7077,2.6448,2.6042,2.5702,2.5339,2.511,2.5366,2.5331,2.5239,2.4706,2.4524,2.5762,2.726,2.8655,3.0398,3.256,3.4496,3.6204,3.7771,3.8449,3.8864,4.0146,4.0866,4.1446,4.2127,4.2517,4.3027,4.3555,4.3869,4.4016,4.3967,4.3967,4.4028,4.3986,4.3881,4.3758,4.3809,4.4318,4.4806,4.4988,4.514,4.5703,4.6243,4.6946,4.7681,4.8232,4.8748,4.902,4.909,4.9307,4.9673,5.0297,5.1152,5.1989,5.2775,5.3311,5.3827,5.4315,5.4852,5.5209,5.5621,5.5684,5.5684,5.5684,5.5684,5.5684,5.5684,5.564,5.5775,5.5868,5.6525,5.7319,5.8357,5.9358,5.9838,6.03,6.0627,6.08,6.08,6.08,6.08,6.08,2.6538,2.6235,2.3599,2.1495,1.9862,1.9699,2.0765,2.3073,2.2847,2.4867,2.7729,2.883,2.8933,2.8668,2.8599,2.926,3.077,3.1965,3.2996,3.3869,3.4645,3.4848,3.4659,3.4405,3.4189,3.3872,3.3255,3.2403,3.1507,3.0327,2.8948,2.741,2.6753,2.5972,2.5021,2.4714,2.424,2.3366,2.3283,2.3329,2.265,2.2259,2.201,2.1502,2.2927,2.4682,2.6054,2.8146,3.0864,3.2756,3.4899,3.6854,3.852,3.9677,4.1379,4.2377,4.265,4.285,4.313,4.3558,4.3776,4.396,4.4016,4.3849,4.374,4.3693,4.366,4.3542,4.3389,4.3542,4.402,4.4215,4.4361,4.4908,4.5555,4.6252,4.7048,4.784,4.8615,4.8961,4.8946,4.9043,4.9202,4.958,5.0422,5.1521,5.251,5.3356,5.4049,5.4511,5.4912,5.5371,5.5528,5.5684,5.5684,5.5684,5.5684,5.5684,5.5684,5.5934,5.6104,5.6201,5.628,5.7197,5.8189,5.8931,5.9781,6.0223,6.0531,6.0666,6.08,6.08,6.08,6.08,6.08,2.6852,2.632,2.4147,2.2627,2.1843,2.1909,2.2672,2.4064,2.5421,2.6993,2.8776,2.9195,2.9471,2.9602,2.912,2.9665,3.102,3.2106,3.319,3.3964,3.4677,3.4994,3.4805,3.4566,3.4218,3.3588,3.28,3.1683,3.0427,2.9476,2.8481,2.682,2.6111,2.5271,2.4308,2.3974,2.3107,2.2274,2.2087,2.2033,2.1667,2.1169,2.0831,2.0495,2.1425,2.1847,2.3156,2.482,2.7783,3.0513,3.3716,3.6626,3.9582,4.0905,4.192,4.2699,4.3595,4.3778,4.3826,4.4055,4.4252,4.405,4.3986,4.3772,4.3646,4.3548,4.3391,4.3213,4.3177,4.3419,4.3465,4.3573,4.3801,4.4543,4.5417,4.6263,4.7103,4.8042,4.8957,4.8977,4.8911,4.9075,4.9234,4.9759,5.0612,5.1554,5.2565,5.3472,5.4357,5.4934,5.5203,5.5547,5.5585,5.5684,5.5684,5.5684,5.5684,5.5684,5.5684,5.6049,5.6511,5.7088,5.7566,5.8232,5.9045,5.9667,6.0165,6.0492,6.0762,6.08,6.08,6.08,6.08,6.08,6.08,2.7474,2.6931,2.5319,2.4117,2.3488,2.3661,2.4148,2.4882,2.6447,2.7831,2.8956,2.9451,2.9836,3.0027,2.9505,2.9567,3.0934,3.2243,3.2833,3.3585,3.4711,3.5214,3.5091,3.4816,3.4484,3.3889,3.2706,3.1422,2.9783,2.9191,2.8386,2.6457,2.5675,2.5273,2.4352,2.3469,2.2875,2.2313,2.1867,2.149,2.1234,2.0804,2.0566,2.0323,2.0313,2.0527,2.1339,2.295,2.5607,2.9623,3.3565,3.6982,3.9801,4.1571,4.3007,4.391,4.4558,4.4775,4.4607,4.4597,4.4662,4.439,4.4046,4.3868,4.3563,4.3479,4.3479,4.3321,4.3267,4.344,4.2757,4.2609,4.3032,4.3634,4.5101,4.6333,4.7454,4.8596,4.8851,4.8618,4.8829,4.9426,4.9617,4.9846,5.0792,5.2195,5.3106,5.3877,5.4724,5.5222,5.5511,5.5684,5.5684,5.5684,5.5684,5.5684,5.5684,5.5684,5.5722,5.6242,5.6838,5.805,5.8946,5.9259,5.9638,6.0172,6.0608,6.0762,6.08,6.08,6.08,6.08,6.0781,6.0804,6.0804,2.7906,2.7589,2.6386,2.5373,2.4632,2.4871,2.5128,2.5505,2.6805,2.7924,2.8799,2.9751,3.0075,3.0015,2.9892,2.9805,3.0403,3.2006,3.2602,3.3339,3.4791,3.5256,3.5358,3.5199,3.468,3.3938,3.2925,3.1489,2.9922,2.9491,2.8466,2.6272,2.5697,2.5643,2.4631,2.4152,2.3895,2.282,2.2187,2.1628,2.1098,2.0576,2.0576,2.0566,2.0479,2.0401,2.0951,2.1945,2.4049,2.8496,3.3352,3.7487,4.0232,4.2291,4.3962,4.5033,4.5291,4.5351,4.526,4.517,4.4946,4.4632,4.4243,4.3881,4.3597,4.3479,4.3479,4.3479,4.3444,4.3178,4.2505,4.2038,4.248,4.3317,4.4967,4.6522,4.7782,4.8841,4.8657,4.8383,4.8954,4.9616,5.0068,5.0284,5.1291,5.2684,5.3666,5.4495,5.5131,5.5359,5.5607,5.5684,5.5684,5.5684,5.5684,5.5684,5.5684,5.5838,5.5953,5.6472,5.7261,5.8742,5.9665,5.98,6.0223,6.0569,6.0685,6.0781,6.08,6.08,6.08,6.0781,6.0808,6.0808,6.0808,2.7345,2.6824,2.5766,2.5221,2.5012,2.4752,2.4964,2.5837,2.7104,2.8205,2.9008,2.9749,3.0195,3.0158,3.008,2.9989,3.0098,3.1751,3.2594,3.3187,3.4707,3.5271,3.5301,3.4983,3.4513,3.3887,3.3219,3.2212,3.0963,3.022,2.9005,2.7232,2.7144,2.6594,2.5253,2.4897,2.4607,2.3534,2.2358,2.169,2.1021,2.0644,2.0566,2.0323,1.9756,1.952,1.9474,1.9547,2.1681,2.6074,3.2443,3.7548,4.1026,4.3104,4.4705,4.5505,4.577,4.5699,4.5609,4.5346,4.4993,4.4619,4.4223,4.3836,4.3597,4.3479,4.3479,4.3532,4.3513,4.3529,4.2959,4.2292,4.2499,4.3822,4.5358,4.6724,4.8034,4.8421,4.8476,4.8704,4.9181,4.9931,5.0704,5.1199,5.1973,5.3178,5.4,5.4776,5.5479,5.5615,5.5684,5.5684,5.5684,5.5684,5.5684,5.5684,5.5722,5.5895,5.6376,5.7223,5.83,5.9704,6.0396,6.0339,6.0435,6.0704,6.0781,6.08,6.08,6.08,6.08,6.0804,6.0811,6.086,6.0883]}]]